     2.11           OBSERVATION DATA    G (GPS)             RINEX VERSION / TYPE
teqc 2010Oct21 OPUS Account 20111028 19:54:06UTC            PGM / RUN BY / DATE
R 1527                                                      MARKER NAME
3076                                                        MARKER NUMBER
CSMIDDLETON NGS                                             OBSERVER / AGENCY
0220390627 TRIMBLE R7 2.32                                  REC # / TYPE / VERS
60124849 TRM41249.00 NONE                                   ANT # / TYPE
  -713163.2069 -5594225.2534  2969349.7937                  APPROX POSITION XYZ
        2.0010        0.0000        0.0000                  ANTENNA: DELTA H/E/N
     1     1                                                WAVELENGTH FACT L1/2
     5    L1    L2    C1    P1    P2                        # / TYPES OF OBSERV
    15                                                      LEAP SECONDS
  2011     8    26     0     0   30.0000000     GPS         TIME OF FIRST OBS
                                                            END OF HEADER
 11  8 26  0  0 30.0000000  0  9G10G04G12G17G09G05G25G02G30
 -29655119.74258 -23081770.12556  20945663.1174                   20945662.6914
 -33121898.57458 -25551587.29355  21915407.3914                   21915407.5704
 -23447565.84058 -18245538.82056  21462501.8284                   21462500.9064
 -35164033.63357 -27371369.77354  23325450.3444                   23325450.9224
 -14128365.72757 -10958746.08654  23869237.0554                   23869241.7464
 -20046960.63357 -15593732.12956  21862797.6254                   21862798.2344
  -4410983.61757  -3428773.99654  24098821.6174                   24098825.0474
 -33352800.78558 -25961161.43056  20723482.0164                   20723479.1294
  -1791334.07056  -1139709.25053  24179787.9064                   24179788.6214
 11  8 26  0  1  0.0000000  0  9G10G04G12G17G09G05G25G02G30
 -29678375.65248 -23099891.58246  20941237.7114                   20941236.9384
 -33075329.76648 -25515299.92245  21924268.9534                   21924269.5824
 -23535880.04748 -18314355.03546  21445696.3984                   21445694.8794
 -35142066.57447 -27354252.60545  23329630.0474                   23329631.2114
 -14080912.16447 -10921769.45744  23878267.3524                   23878271.9924
 -20164241.10948 -15685119.40646  21840480.1334                   21840480.2894
  -4540058.89147  -3529352.05944  24074260.5084                   24074262.8204
 -33381439.65648 -25983477.41846  20718032.1804                   20718028.8594
  -1922911.47746  -1242237.02043  24154749.6094                   24154750.4844
 11  8 26  0  1 30.0000000  0  9G10G04G12G17G09G05G25G02G30
 -29701002.07448 -23117522.52346  20936932.0634                   20936931.0944
 -33028649.73848 -25478925.87945  21933152.0634                   21933152.3014
 -23623750.75048 -18382825.66046  21428974.7734                   21428973.5824
 -35119937.13347 -27337008.92244  23333841.1254                   23333842.2854
 -14033324.57847 -10884688.37144  23887322.7814                   23887327.4344
 -20281187.81648 -15776246.60246  21818225.6484                   21818226.0984
  -4668942.07447  -3629780.44544  24049734.0554                   24049736.9574
 -33409808.28948 -26005582.82846  20712633.8284                   20712630.3714
  -2054251.72746  -1344580.02043  24129756.2274                   24129757.0474
 11  8 26  0  2  0.0000000  0  9G10G04G12G17G09G05G25G02G30
 -29722997.66848 -23134661.91446  20932746.3984                   20932745.4734
 -32981858.38348 -25442465.09045  21942056.4224                   21942056.2544
 -23711173.70348 -18450947.39146  21412338.8444                   21412337.4104
 -35097643.05147 -27319636.94944  23338083.3914                   23338084.8954
 -13985604.29747 -10847503.91443  23896403.5554                   23896408.4774
 -20397795.89548 -15867109.93746  21796035.9224                   21796036.0354
  -4797628.55947  -3730055.54344  24025245.8204                   24025248.5784
 -33437905.99248 -26027477.12946  20707286.8914                   20707283.5594
  -2185350.18746  -1446734.62143  24104809.0234                   24104809.7384
 11  8 26  0  2 30.0000000  0  9G10G04G12G17G09G05G25G02G30
 -29744362.34448 -23151309.68446  20928680.6804                   20928679.9384
 -32934957.39548 -25405918.87945  21950981.2424                   21950981.3874
 -23798146.28548 -18518718.18446  21395788.6644                   21395786.9614
 -35075183.08247 -27302135.73044  23342357.4924                   23342359.0234
 -13937754.53547 -10810218.57044  23905509.6644                   23905514.5554
 -20514062.25448 -15957707.00446  21773911.4224                   21773911.2274
  -4926115.34447  -3830175.03944  24000795.8134                   24000798.5084
 -33465733.33248 -26049160.75446  20701991.6564                   20701988.2704
  -2316203.55546  -1548698.26244  24079908.8834                   24079909.3914
 11  8 26  0  3  0.0000000  0  9G10G04G12G17G09G05G25G02G30
 -29765093.89548 -23167464.09046  20924735.5944                   20924735.3014
 -32887946.32448 -25369286.87545  21959927.3284                   21959927.2704
 -23884663.99648 -18586134.53146  21379324.5944                   21379323.5044
 -35052554.77747 -27284503.32445  23346664.1254                   23346665.1174
 -13889776.53947 -10772833.27044  23914640.0084                   23914644.7734
 -20629981.95748 -16048033.94546  21751852.3594                   21751852.7774
  -5054397.66447  -3930135.19144  23976384.2034                   23976387.3164
 -33493289.73048 -26070633.25446  20696747.7814                   20696744.3134
  -2446806.89147  -1650467.05543  24055055.4304                   24055056.2734
 11  8 26  0  3 30.0000000  0  9G10G04G12G17G09G05G25G02G30
 -29785202.00848 -23183132.72746  20920909.3524                   20920908.4224
 -32840836.61348 -25332578.03145  21968891.6414                   21968891.9654
 -23970734.31648 -18653202.27046  21362946.0634                   21362944.6334
 -35029766.78147 -27266746.48445  23351000.3834                   23351001.4104
 -13841682.81647 -10735357.80144  23923791.9144                   23923796.5084
 -20745561.42248 -16138095.77746  21729858.0394                   21729857.9024
  -5182482.30947  -4029941.31644  23952010.1414                   23952013.0084
 -33520585.35248 -26091902.56246  20691553.6414                   20691550.5044
  -2577166.69147  -1752046.11343  24030248.5554                   24030249.5864
 11  8 26  0  4  0.0000000  0  9G10G04G12G17G09G05G25G02G30
 -29804680.07048 -23198310.39846  20917202.5474                   20917201.8204
 -32793623.50848 -25295788.61745  21977876.2194                   21977876.2734
 -24056348.45348 -18719914.54346  21346654.4144                   21346653.0204
 -35006811.88747 -27248859.59845  23355368.2034                   23355369.3834
 -13793470.16447 -10697789.64544  23932966.9614                   23932970.8984
 -20860791.46947 -16227885.32846  21707930.7424                   21707930.6564
  -5310360.02047  -4129586.21144  23927676.2814                   23927678.5784
 -33547615.44148 -26112964.95746  20686410.1804                   20686406.8954
  -2707273.74246  -1853428.17643  24005489.9384                   24005490.9144
 11  8 26  0  4 30.0000000  0  9G10G04G12G17G09G05G25G02G30
 -29823526.80948 -23212996.13746  20913616.1724                   20913615.5784
 -32746306.82448 -25258918.49245  21986880.1884                   21986880.5824
 -24141502.24648 -18786268.11346  21330450.3834                   21330448.5314
 -34983687.79747 -27230840.88345  23359769.0234                   23359770.0744
 -13745139.91047 -10660129.87944  23942163.6334                   23942168.2664
 -20975667.49648 -16317399.02746  21686070.2974                   21686070.2854
  -5438026.20747  -4229066.27744  23903381.8834                   23903384.9414
 -33574378.66048 -26133819.39846  20681316.7894                   20681313.5164
  -2837123.06646  -1954609.43043  23980780.1644                   23980781.3324
 11  8 26  0  5  0.0000000  0  9G10G04G12G17G09G05G25G02G30
 -29841746.06648 -23227192.93446  20910149.1094                   20910148.1764
 -32698892.27048 -25221972.11745  21995903.0394                   21995903.1024
 -24226196.70348 -18852263.76246  21314333.0314                   21314331.4614
 -34960397.70347 -27212692.81245  23364200.9534                   23364202.4494
 -13696699.34047 -10622384.15244  23951381.9384                   23951386.7194
 -21090190.39548 -16406637.55946  21664277.2034                   21664277.1334
  -5565481.93447  -4328382.36344  23879127.7814                   23879130.4344
 -33600879.88348 -26154469.69946  20676273.7584                   20676270.9574
  -2966715.67247  -2055590.64143  23956119.7894                   23956120.8204
 11  8 26  0  5 30.0000000  0  9G10G04G12G17G09G05G25G02G30
 -29859334.83248 -23240898.44546  20906802.3204                   20906801.3324
 -32651377.95748 -25184948.00445  22004944.8834                   22004944.5664
 -24310426.86748 -18917897.63746  21298304.8054                   21298303.4184
 -34936937.74647 -27194412.36345  23368665.3674                   23368666.3164
 -13648148.35947 -10584552.40644  23960620.4694                   23960625.5824
 -21204353.93048 -16495596.07446  21642552.4694                   21642552.6914
  -5692721.09447  -4427529.69544  23854914.7584                   23854917.4964
 -33627117.00848 -26174914.20346  20671280.8914                   20671278.1564
  -3096045.22746  -2156366.85243  23931509.5394                   23931509.6564
 11  8 26  0  6  0.0000000  0  9G10G04G12G17G09G05G25G02G30
 -29876293.62148 -23254113.05946  20903575.1414                   20903574.2854
 -32603766.25848 -25147848.00445  22014005.0554                   22014004.7154
 -24394191.18748 -18983168.51246  21282364.8594                   21282363.3914
 -34913307.35547 -27175999.13745  23373161.6174                   23373163.4734
 -13599490.83647 -10546637.63344  23969880.2034                   23969884.9614
 -21318156.00448 -16584272.92246  21620896.4224                   21620896.9344
  -5819741.44147  -4526506.53944  23830743.7974                   23830746.3634
 -33653091.76248 -26195154.25446  20666338.5314                   20666335.3484
  -3225109.31246  -2256936.21943  23906948.9534                   23906949.7894
 11  8 26  0  6 30.0000000  0  9G10G04G12G17G09G05G25G02G30
 -29892624.05548 -23266838.04746  20900467.4694                   20900466.7584
 -32556060.21148 -25110674.50445  22023082.8364                   22023083.3444
 -24477488.41048 -19048075.42246  21266513.6884                   21266512.7544
 -34889507.25447 -27157453.67644  23377690.6024                   23377691.9844
 -13550730.95347 -10508643.09844  23979158.6884                   23979164.0784
 -21431594.76647 -16672666.67646  21599310.0634                   21599309.3284
  -5946541.47347  -4625311.72344  23806614.2504                   23806616.9574
 -33678806.51648 -26215191.72746  20661444.9454                   20661441.9384
  -3353906.27346  -2357297.39843  23882439.6484                   23882440.5004
 11  8 26  0  7  0.0000000  0  9G10G04G12G17G09G05G25G02G30
 -29908329.09848 -23279075.71146  20897478.9614                   20897478.0594
 -32508263.51647 -25073430.35945  22032178.7424                   22032178.6214
 -24560318.54348 -19112618.37146  21250751.6724                   21250750.9264
 -34865539.25447 -27138777.35544  23382252.2424                   23382253.6094
 -13501874.19547 -10470573.09443  23988455.7504                   23988461.2154
 -21544669.75448 -16760776.98046  21577792.3674                   21577792.6134
  -6073120.75447  -4723944.87544  23782527.2424                   23782529.7814
 -33704264.54748 -26235029.13746  20656600.7504                   20656597.1294
  -3482435.51246  -2457449.99643  23857981.7584                   23857982.4654
 11  8 26  0  7 30.0000000  0  9G10G04G12G17G09G05G25G02G30
 -29923404.86348 -23290823.03946  20894610.1724                   20894609.1524
 -32460373.89848 -25036113.80945  22041291.7504                   22041291.6644
 -24642675.14848 -19176792.34046  21235079.8134                   21235078.5864
 -34841399.16447 -27119966.95744  23386845.5864                   23386847.3284
 -13452919.81647 -10432426.98443  23997771.9064                   23997776.9304
 -21657374.34448 -16848598.65646  21556345.0944                   21556344.9574
  -6199472.26247  -4822400.58244  23758483.8134                   23758485.6684
 -33729462.68048 -26254664.03146  20651805.3834                   20651802.3984
  -3610689.94146  -2557388.39843  23833575.2974                   23833575.8954
 11  8 26  0  8  0.0000000  0  9G10G04G12G17G09G05G25G02G30
 -29937857.79748 -23302085.04746  20891859.9454                   20891858.8404
 -32412399.03147 -24998730.84045  22050421.1954                   22050420.8954
 -24724561.90248 -19240600.19146  21219497.2504                   21219496.0514
 -34817091.60547 -27101026.06644  23391471.3444                   23391472.5594
 -13403877.11746 -10394212.07444  24007104.8524                   24007109.6844
 -21769711.64548 -16936134.13346  21534968.1564                   21534968.1174
  -6325599.35947  -4920681.40644  23734482.1414                   23734484.4884
 -33754408.40248 -26274102.24246  20647058.4924                   20647055.1334
  -3738672.64546  -2657115.11343  23809221.2734                   23809221.7934
 11  8 26  0  8 30.0000000  0  9G10G04G12G17G09G05G25G02G30
 -29951684.87148 -23312859.36746  20889228.3524                   20889227.5274
 -32364337.58647 -24961280.39545  22059566.9534                   22059566.8524
 -24805973.76248 -19304037.98846  21204005.0004                   21204003.8984
 -34792612.97747 -27081951.86344  23396129.0234                   23396130.6174
 -13354746.20346 -10355928.40643  24016453.9384                   24016459.3524
 -21881675.28148 -17023378.44146  21513662.1334                   21513662.1094
  -6451496.11747  -5018782.74644  23710524.8984                   23710526.9384
 -33779099.26248 -26293341.86347  20642360.1174                   20642356.8714
  -3866377.52346  -2756625.32043  23784919.0634                   23784920.3554
 11  8 26  0  9  0.0000000  0  9G10G04G12G17G09G05G25G02G30
 -29964881.42248 -23323142.37946  20886717.0004                   20886716.1804
 -32316185.69547 -24923759.48045  22068729.4064                   22068729.9224
 -24886903.27748 -19367099.94546  21188604.8284                   21188603.5004
 -34767957.43047 -27062739.79344  23400821.1414                   23400822.5664
 -13305524.66447 -10317574.18444  24025821.1484                   24025826.3754
 -21993257.65648 -17110325.67246  21492428.3204                   21492428.5164
  -6577154.33247  -5116698.18444  23686612.5634                   23686614.9264
 -33803531.29348 -26312379.79346  20637710.6334                   20637707.4224
  -3993796.37146  -2855912.64143  23760672.3444                   23760673.2424
 11  8 26  0  9 30.0000000  0  9G10G04G12G17G09G05G25G02G30
 -29977458.83648 -23332942.94946  20884323.5004                   20884322.2624
 -32267956.21547 -24886178.12145  22077907.3364                   22077907.6054
 -24967359.39848 -19429793.01246  21173294.5314                   21173292.9344
 -34743135.62947 -27043398.17244  23405544.5634                   23405546.2464
 -13256227.03547 -10279160.63743  24035201.9384                   24035207.6884
 -22104467.01648 -17196982.23846  21471266.2584                   21471266.1564
  -6702582.44947  -5214434.33644  23662744.6024                   23662746.7384
 -33827716.80948 -26331225.63346  20633108.4844                   20633105.2774
  -4120937.37947  -2954983.50844  23736478.6174                   23736479.0044
 11  8 26  0 10  0.0000000  0  9G10G04G12G17G09G05G25G02G30
 -29989416.51248 -23342260.59846  20882048.3984                   20882047.1644
 -32219649.55547 -24848536.61345  22087099.7344                   22087099.9384
 -25047338.62148 -19492114.46146  21158075.0084                   21158073.7424
 -34718145.61747 -27023925.48844  23410300.0164                   23410301.1334
 -13206855.10246 -10240689.24643  24044597.2664                   24044602.5204
 -22215299.51648 -17283345.14546  21450175.0944                   21450175.1914
  -6827776.45747  -5311988.05544  23638920.8834                   23638922.6644
 -33851655.42248 -26349879.07846  20628553.0234                   20628549.7424
  -4247796.42246  -3053834.62143  23712337.9064                   23712338.2074
 11  8 26  0 10 30.0000000  0  9G10G04G12G17G09G05G25G02G30
 -30000753.26248 -23351094.41046  20879890.8914                   20879889.9574
 -32171265.54747 -24810834.82445  22096307.2194                   22096307.0084
 -25126837.48848 -19554061.61746  21142946.9614                   21142945.2384
 -34692985.12147 -27004319.90644  23415088.0784                   23415089.7424
 -13157410.57846 -10202161.24243  24054006.4924                   24054012.1604
 -22325750.60548 -17369410.85946  21429157.1884                   21429157.0164
  -6952731.88747  -5409355.83245  23615142.6254                   23615144.9304
 -33875346.84448 -26368339.90246  20624044.1884                   20624041.2194
  -4374368.81647  -3152462.40644  23688251.3754                   23688252.5704
 11  8 26  0 11  0.0000000  0  9G10G04G12G17G09G05G25G02G30
 -30011467.38348 -23359443.05946  20877852.3284                   20877851.5554
 -32122803.47347 -24773072.21945  22105529.3984                   22105529.1994
 -25205850.73848 -19615630.36746  21127910.9924                   21127909.8404
 -34667651.10946 -26984579.16444  23419909.1484                   23419910.3164
 -13107894.05547 -10163577.14844  24063429.1884                   24063435.0204
 -22435814.73048 -17455175.04746  21408212.4774                   21408212.4104
  -7077443.45747  -5506533.58245  23591410.8284                   23591413.1844
 -33898789.50048 -26386606.88346  20619583.4614                   20619580.0984
  -4500649.21547  -3250862.67244  23664221.1644                   23664222.3834
 11  8 26  0 11 30.0000000  0  9G10G04G12G17G09G05G25G02G30
 -30021555.46148 -23367303.88346  20875932.5634                   20875931.5594
 -32074260.87147 -24735246.84845  22114766.6174                   22114766.8674
 -25284373.11748 -19676816.60946  21112969.0164                   21112967.1804
 -34642139.08246 -26964699.70344  23424763.6804                   23424765.0394
 -13058304.74246 -10124936.34843  24072865.9384                   24072871.3914
 -22545485.79748 -17540632.94546  21387342.8444                   21387342.7034
  -7201904.55947  -5603516.15245  23567726.5474                   23567728.7544
 -33921980.63748 -26404677.87146  20615170.3594                   20615166.9104
  -4626630.82047  -3349030.11744  23640247.9844                   23640248.5784
 11  8 26  0 12  0.0000000  0  9G10G04G12G17G09G05G25G02G30
 -30031020.63748 -23374679.32846  20874131.2034                   20874130.7154
 -32025642.15247 -24697362.18045  22124018.5394                   22124018.9534
 -25362404.89848 -19737620.57846  21098119.6724                   21098118.0434
 -34616451.30547 -26944683.27744  23429651.2734                   23429653.7774
 -13008648.52746 -10086243.37544  24082315.1884                   24082321.1524
 -22654763.93448 -17625784.68746  21366547.5634                   21366547.6914
  -7326115.07047  -5700303.46945  23544090.1174                   23544092.2624
 -33944924.18048 -26422555.93746  20610804.2584                   20610800.7814
  -4752313.34847  -3446964.50844  23616331.1414                   23616331.7814
 11  8 26  0 12 30.0000000  0  9G10G04G12G17G09G05G25G02G30
 -30039859.07848 -23381566.41046  20872448.9534                   20872448.3284
 -31976944.07447 -24659415.67245  22133285.7194                   22133285.4144
 -25439939.52048 -19798037.13746  21083365.2974                   21083363.6374
 -34590582.00047 -26924525.40244  23434574.9614                   23434576.1764
 -12958923.96146 -10047497.17244  24091777.6724                   24091783.4304
 -22763641.27348 -17710624.09846  21345829.1954                   21345829.0234
  -7450067.53547  -5796889.68745  23520502.3524                   23520504.7814
 -33967616.46548 -26440238.22346  20606486.4454                   20606482.8244
  -4877689.22746  -3544659.96144  23592473.1804                   23592473.7774
 11  8 26  0 13  0.0000000  0  9G10G04G12G17G09G05G25G02G30
 -30048081.31648 -23387973.32846  20870884.6484                   20870884.1374
 -31928178.04347 -24621416.20745  22142565.1334                   22142565.5594
 -25516984.80948 -19858072.39146  21068703.8284                   21068702.1994
 -34564541.03547 -26904233.78944  23439529.5944                   23439531.3014
 -12909144.04346 -10008707.83644  24101251.1644                   24101256.6844
 -22872125.28948 -17795157.02746  21325185.1954                   21325184.8714
  -7573769.09847  -5893280.40245  23496962.8364                   23496964.9104
 -33990068.32448 -26457733.15246  20602213.8134                   20602209.8634
  -5002765.32446  -3642121.80144  23568671.6954                   23568672.2544
 11  8 26  0 13 30.0000000  0  9G10G04G12G17G09G05G25G02G30
 -30055679.29748 -23393893.81646  20869438.6954                   20869438.1374
 -31879337.13747 -24583358.39845  22151859.8444                   22151859.7734
 -25593529.66448 -19917717.71546  21054138.0004                   21054136.5084
 -34538318.76647 -26883800.87144  23444520.5704                   23444520.8984
 -12859303.28947  -9969871.10544  24110735.1254                   24110741.1914
 -22980204.29748 -17879374.37546  21304618.6254                   21304618.5904
  -7697208.11747  -5989466.52745  23473472.7274                   23473475.3754
 -34012272.18048 -26475034.82846  20597988.3054                   20597984.9264
  -5127530.06647  -3739341.03544  23544929.7034                   23544930.2504
 11  8 26  0 14  0.0000000  0  9G10G04G12G17G09G05G25G02G30
 -30062663.41447 -23399335.96146  20868109.7734                   20868109.0204
 -31830432.20747 -24545250.68745  22161165.8914                   22161165.9924
 -25669581.31648 -19976978.71946  21039666.0944                   21039664.5984
 -34511924.38347 -26863233.84044  23449542.5394                   23449543.7624
 -12809414.17246  -9930996.69944  24120229.0234                   24120235.2504
 -23087885.12548 -17963281.43746  21284127.5084                   21284127.4144
  -7820391.37547  -6085453.37544  23450031.5394                   23450034.0634
 -34034238.61348 -26492151.50846  20593808.3914                   20593805.0314
  -5251989.91047  -3836322.67644  23521245.9064                   23521246.1914
 11  8 26  0 14 30.0000000  0  9G10G04G12G17G09G05G25G02G30
 -30069029.10548 -23404296.22746  20866898.2664                   20866897.9344
 -31781459.88347 -24507090.48045  22170485.1564                   22170485.3134
 -25745133.52048 -20035850.53946  21025288.8754                   21025287.6134
 -34485352.49647 -26842528.51244  23454599.5314                   23454600.8164
 -12759475.04347  -9892083.32044  24129732.7194                   24129738.1524
 -23195160.75048 -18046872.77046  21263713.2584                   21263712.9614
  -7943311.32447  -6181235.04344  23426640.7344                   23426643.3164
 -34055964.05948 -26509080.39546  20589674.2734                   20589670.7894
  -5376137.20746  -3933060.79344  23497621.4694                   23497621.7934
 11  8 26  0 15  0.0000000  0  9G10G04G12G17G09G05G25G02G30
 -30074777.16048 -23408775.21146  20865804.4534                   20865803.4414
 -31732421.94547 -24468879.13345  22179816.4384                   22179816.8984
 -25820184.39148 -20094331.72746  21011006.8984                   21011005.4734
 -34458602.60547 -26821684.46144  23459689.5004                   23459690.8054
 -12709488.96147  -9853133.31244  24139244.9224                   24139249.9774
 -23302028.39848 -18130146.19146  21243377.3134                   21243377.3164
  -8065965.17247  -6276809.38344  23403300.4304                   23403302.5664
 -34077449.80548 -26525822.51246  20585585.5864                   20585582.1764
  -5499969.11346  -4029553.10543  23474056.8284                   23474057.0704
 11  8 26  0 15 30.0000000  0  9G10G04G12G17G09G05G25G02G30
 -30079908.63748 -23412773.74646  20864827.8834                   20864827.3594
 -31683319.93747 -24430617.85545  22189160.6564                   22189160.3554
 -25894731.88748 -20152420.66046  20996821.4304                   20996819.6374
 -34431674.14846 -26800701.27744  23464814.5004                   23464815.7034
 -12659459.25047  -9814149.33644  24148765.2424                   24148771.2734
 -23408485.30948 -18213099.55946  21223118.9534                   21223119.0474
  -8188350.25847  -6372174.28944  23380011.0634                   23380013.9694
 -34098696.78148 -26542378.56246  20581542.5474                   20581538.7384
  -5623482.83246  -4125797.48043  23450552.8524                   23450552.9494
 11  8 26  0 16  0.0000000  0  9G10G04G12G17G09G05G25G02G30
 -30084419.23048 -23416288.47746  20863969.5864                   20863969.1604
 -31634149.78547 -24392303.48045  22198517.3914                   22198517.8714
 -25968768.66048 -20210111.64546  20982732.5784                   20982731.1174
 -34404561.17246 -26779574.32444  23469973.4774                   23469974.3554
 -12609383.43747  -9775129.43744  24158293.5084                   24158300.6484
 -23514523.62948 -18295726.75846  21202940.4144                   21202940.5314
  -8310458.24247  -6467323.28544  23356775.0234                   23356776.6684
 -34119700.62148 -26558745.16846  20577545.2664                   20577541.7734
  -5746669.80146  -4221787.23844  23427111.1484                   23427111.4344
 11  8 26  0 16 30.0000000  0  9G10G04G12G17G09G05G25G02G30
 -30088314.01248 -23419323.35546  20863228.5554                   20863227.6524
 -31584917.32447 -24353940.54345  22207885.6644                   22207886.2304
 -26042296.97748 -20267406.42246  20968740.6644                   20968738.9694
 -34377267.42646 -26758306.50844  23475167.3204                   23475168.8914
 -12559269.07046  -9736079.53144  24167830.8204                   24167837.0004
 -23620144.82047 -18378028.92246  21182841.5164                   21182841.1804
  -8432290.67247  -6562257.57044  23333591.1644                   23333592.6454
 -34140466.82448 -26574926.59846  20573593.6564                   20573590.3244
  -5869531.50046  -4317523.52043  23403731.5634                   23403731.9184
 11  8 26  0 17  0.0000000  0  9G10G04G12G17G09G05G25G02G30
 -30091598.34048 -23421882.55946  20862603.7034                   20862603.2234
 -31535628.68047 -24315533.84445  22217265.4534                   22217265.6884
 -26115319.38348 -20324306.98846  20954844.9534                   20954843.3754
 -34349797.07446 -26736901.09444  23480394.8364                   23480396.6644
 -12509124.06646  -9697005.73844  24177373.4614                   24177379.6524
 -23725351.16848 -18460007.83246  21162821.4844                   21162821.4344
  -8553849.46947  -6656978.64844  23310458.9614                   23310461.0904
 -34161001.16048 -26590927.35246  20569686.2194                   20569682.5314
  -5992069.70746  -4413007.75843  23380412.5944                   23380412.8284
 11  8 26  0 17 30.0000000  0  9G10G04G12G17G09G05G25G02G30
 -30094281.09048 -23423972.98846  20862093.0164                   20862092.5594
 -31486293.20747 -24277090.62145  22226653.6954                   22226653.6914
 -26187841.94948 -20380818.06646  20941044.1564                   20941042.7304
 -34322157.35246 -26715363.67644  23485655.3524                   23485656.0004
 -12458959.00846  -9657916.32843  24186919.7584                   24186925.9144
 -23830147.75048 -18541667.44146  21142879.3444                   21142878.9844
  -8675139.60947  -6751490.38744  23287378.0784                   23287380.0744
 -34181312.79748 -26606754.57846  20565821.1484                   20565817.6134
  -6114289.37546  -4508243.74643  23357155.2194                   23357155.6994
 11  8 26  0 18  0.0000000  0  9G10G04G12G17G09G05G25G02G30
 -30096350.67248 -23425585.64146  20861698.9224                   20861698.5554
 -31436899.81247 -24238602.28545  22236052.8834                   22236052.9654
 -26259850.36348 -20436928.52046  20927341.6174                   20927340.1454
 -34294335.33247 -26693684.22344  23490949.2034                   23490950.7304
 -12408764.52046  -9618803.97743  24196471.6024                   24196477.9024
 -23934519.73848 -18622996.19946  21123017.6644                   21123017.6094
  -8796145.84047  -6845780.91444  23264351.9304                   23264353.5514
 -34201389.98048 -26622399.11346  20562000.4924                   20561997.1724
  -6236175.00047  -4603219.49643  23333961.2584                   23333961.4964
 11  8 26  0 18 30.0000000  0  9G10G04G12G17G09G05G25G02G30
 -30097806.18048 -23426719.77746  20861422.4064                   20861421.5084
 -31387447.97747 -24200068.39845  22245463.6094                   22245463.3134
 -26331340.92248 -20492635.44146  20913737.0314                   20913736.0554
 -34266328.81647 -26671861.00844  23496278.4384                   23496280.1414
 -12358541.85246  -9579669.66043  24206029.0004                   24206034.9304
 -24038462.41448 -18703990.42246  21103238.2194                   21103238.0554
  -8916863.45347  -6939846.54345  23241379.6254                   23241380.9534
 -34221231.92648 -26637860.34846  20558224.2114                   20558221.0634
  -6357721.84447  -4697931.19544  23310831.6804                   23310831.7544
 11  8 26  0 19  0.0000000  0  9G10G04G12G17G09G05G25G02G30
 -30098647.98448 -23427375.71546  20861262.1884                   20861261.2464
 -31337938.85947 -24161489.87545  22254884.6724                   22254884.7034
 -26402311.21148 -20547936.94546  20900232.0864                   20900230.5434
 -34238136.56646 -26649893.08644  23501643.4454                   23501645.2974
 -12308293.72746  -9540515.45743  24215590.6884                   24215596.8444
 -24141972.82447 -18784647.82046  21083540.8284                   21083540.5314
  -9037289.35547  -7033684.85545  23218463.0394                   23218464.9104
 -34240839.38748 -26653138.87146  20554493.7194                   20554490.0554
  -6478926.77047  -4792376.52744  23287767.1724                   23287766.8954
 11  8 26  0 19 30.0000000  0  9G10G04G12G17G09G05G25G02G30
 -28523464.38348 -22199959.90246  21161009.4064                   21161008.2344
 -29712962.70347 -22895274.71145  22564106.9454                   22564107.4534
 -24897343.98848 -19375235.20346  21186617.6094                   21186616.1884
 -32634346.19146 -25400186.36344  23806834.5704                   23806836.6414
 -10682611.93446  -8273750.66043  24524947.4384                   24524954.0044
 -22669632.60948 -17637369.66446  21363717.7814                   21363717.7774
  -7582003.89847  -5899696.14545  23495394.9774                   23495396.5394
 -32684800.02748 -25440640.63346  20850597.4534                   20850594.5984
  -5024369.93747  -3658955.52044  23564559.8524                   23564559.8594
 11  8 26  0 20  0.0000000  0  9G10G04G12G17G09G05G25G02G30
 -28523099.20348 -22199675.33646  21161078.8524                   21161077.9804
 -29663360.48847 -22856623.64845  22573545.9694                   22573546.2814
 -24967285.14148 -19429734.78946  21173308.5394                   21173307.0354
 -32605798.35946 -25377941.36144  23812266.8284                   23812268.6644
 -10632339.24646  -8234577.36743  24534514.8834                   24534520.6524
 -22772288.53548 -17717361.23046  21344182.6254                   21344182.7154
  -7701855.20747  -5993086.72745  23472587.5704                   23472589.9774
 -32703959.10948 -25455569.76646  20846951.7194                   20846948.6604
  -5144899.41847  -3752874.51644  23541624.2584                   23541624.0234
 11  8 26  0 20 30.0000000  0  9G10G04G12G17G09G05G25G02G30
 -28522126.17648 -22198917.12546  21161264.0314                   21161263.2074
 -29613707.89547 -22817933.33645  22582994.8594                   22582995.2034
 -25036703.60948 -19483827.10246  21160098.4924                   21160097.0474
 -32577065.89146 -25355552.48844  23817734.9304                   23817736.1214
 -10582053.03946  -8195393.53543  24544083.4614                   24544089.9924
 -22874507.57048 -17797012.36746  21324731.2664                   21324731.0594
  -7821409.09447  -6086245.54745  23449837.1954                   23449838.9734
 -32722889.77348 -25470320.91446  20843349.2664                   20843345.7814
  -5265080.91447  -3846522.34044  23518753.6564                   23518753.7194
 11  8 26  0 21  0.0000000  0  9G10G04G12G17G09G05G25G02G30
 -28520553.21148 -22197691.42646  21161563.3594                   21161562.2034
 -29564012.87147 -22779209.96545  22592451.6724                   22592451.5984
 -25105604.08248 -19537515.76646  21146987.0554                   21146985.8834
 -32548155.21546 -25333024.74244  23823236.1254                   23823237.8834
 -10531762.63746  -8156206.46143  24553653.5394                   24553659.9264
 -22976293.78948 -17876326.24246  21305361.8524                   21305361.6884
  -7940669.32447  -6179175.55145  23427142.9924                   23427144.9694
 -32741599.67248 -25484900.03546  20839788.7664                   20839785.6524
  -5384918.07047  -3939901.89144  23495949.8054                   23495949.7584
 11  8 26  0 21 30.0000000  0  9G10G04G12G17G09G05G25G02G30
 -28518380.86748 -22195998.66846  21161976.6484                   21161976.0394
 -29514276.25447 -22740454.18045  22601915.9774                   22601916.3954
 -25173984.21148 -19590798.98046  21133974.9224                   21133973.5634
 -32519065.29346 -25310357.34444  23828771.3364                   23828773.7774
 -10481470.79746  -8117018.28543  24563224.4384                   24563230.7114
 -23077644.20348 -17955300.52746  21286075.4304                   21286075.1334
  -8059632.77747  -6271874.31245  23404504.5234                   23404507.0594
 -32760089.53548 -25499307.71546  20836270.4224                   20836266.9534
  -5504407.66847  -4033010.59044  23473211.1724                   23473211.6294
 11  8 26  0 22  0.0000000  0  9G10G04G12G17G09G05G25G02G30
 -28515607.27348 -22193837.41446  21162504.3594                   21162503.4414
 -29464496.55147 -22701664.81644  22611389.1804                   22611388.8444
 -25241839.31648 -19643673.07446  21121062.2344                   21121060.7344
 -32489792.55946 -25287547.48044  23834342.4384                   23834344.1294
 -10431177.78946  -8077829.17243  24572794.3594                   24572800.8554
 -23178553.40648 -18033931.01246  21266872.7734                   21266872.4964
  -8178293.70347  -6364337.32045  23381924.3754                   23381926.7854
 -32778357.79748 -25513542.71946  20832794.0234                   20832790.4224
  -5623543.81647  -4125843.90244  23450540.4844                   23450540.6294
 11  8 26  0 22 30.0000000  0  9G10G04G12G17G09G05G25G02G30
 -28512233.35948 -22191208.37546  21163146.6644                   21163145.8404
 -29414675.36747 -22662843.13745  22620869.3674                   22620869.6804
 -25309167.07048 -19696136.24646  21108250.1884                   21108248.7194
 -32460336.80946 -25264595.00844  23839947.6334                   23839949.3014
 -10380886.48446  -8038641.41843  24582365.1804                   24582371.7814
 -23279018.77348 -18112215.65646  21247755.3364                   21247754.6764
  -8296649.27747  -6456562.39845  23359402.0164                   23359404.2544
 -32796404.80948 -25527605.31646  20829359.9304                   20829356.7734
  -5742323.75046  -4218399.62544  23427937.7974                   23427937.4774
 11  8 26  0 23  0.0000000  0  9G10G04G12G17G09G05G25G02G30
 -28508257.19148 -22188110.05546  21163903.0234                   21163901.9494
 -29364810.09447 -22623987.10245  22630358.4384                   22630358.5354
 -25375962.72348 -19748184.79746  21095539.4844                   21095537.8674
 -32430693.98446 -25241496.77044  23845589.1804                   23845590.6174
 -10330596.02746  -7999454.30943  24591935.1724                   24591942.3674
 -23379034.68048 -18190150.07046  21228722.6024                   21228722.0984
  -8414693.12147  -6548544.57445  23336939.0864                   23336941.4614
 -32814228.57048 -25541493.94946  20825967.7974                   20825964.8874
  -5860740.85546  -4310672.61744  23405403.0944                   23405403.4774
 11  8 26  0 23 30.0000000  0  9G10G04G12G17G09G05G25G02G30
 -28503685.45748 -22184547.66046  21164772.9534                   21164772.5274
 -29314907.63347 -22585102.10245  22639854.6334                   22639854.9494
 -25442230.20748 -19799821.78146  21082929.0004                   21082927.5824
 -32400868.82446 -25218256.44544  23851264.0634                   23851265.7344
 -10280314.93046  -7960274.49743  24601503.7344                   24601510.6174
 -23478603.98448 -18267736.48446  21209775.2114                   21209774.7734
  -8532427.93047  -6640285.94945  23314534.7424                   23314537.5744
 -32831835.10948 -25555213.32446  20822617.7734                   20822614.8054
  -5978797.84047  -4402665.01244  23382937.7814                   23382937.9884
 11  8 26  0 24  0.0000000  0  9G10G04G12G17G09G05G25G02G30
 -28498521.27748 -22180523.61746  21165755.8204                   21165754.7274
 -29264971.25847 -22546190.66845  22649357.4304                   22649357.9414
 -25507970.12548 -19851047.67646  21070419.2664                   21070417.8204
 -32370862.86346 -25194875.21544  23856974.3444                   23856975.9384
 -10230048.48046  -7921106.09443  24611069.4614                   24611076.0514
 -23577726.10948 -18344974.44946  21190912.6174                   21190912.1214
  -8649852.91047  -6731785.88745  23292189.7424                   23292191.8834
 -32849228.11348 -25568766.32046  20819307.8284                   20819304.4264
  -6096493.80146  -4494376.07044  23360541.2664                   23360540.9614
 11  8 26  0 24 30.0000000  0  9G10G04G12G17G09G05G25G02G30
 -28492752.24648 -22176028.26246  21166853.4774                   21166852.7424
 -29214988.82047 -22507243.34045  22658868.8984                   22658869.4024
 -25573166.64148 -19901850.12946  21058012.8444                   21058011.3634
 -32340662.11747 -25171342.21144  23862721.6724                   23862722.6564
 -10179786.03946  -7881940.83643  24620633.7504                   24620640.9344
 -23676385.35548 -18421851.71946  21172138.7814                   21172138.1294
  -8766951.83247  -6823031.77345  23269906.1334                   23269908.6764
 -32866395.00848 -25582143.10946  20816041.1644                   20816037.5234
  -6213812.35947  -4585793.07844  23338216.1724                   23338215.8094
 11  8 26  0 25  0.0000000  0  9G10G04G12G17G09G05G25G02G30
 -28486397.07448 -22171076.17646  21168062.7894                   21168062.2814
 -29164979.41447 -22468275.00045  22668385.2114                   22668386.0204
 -25637835.90248 -19952241.73446  21045706.6724                   21045704.8524
 -32310283.95746 -25147670.95744  23868501.6254                   23868503.2464
 -10129548.09046  -7842794.68743  24630194.4384                   24630201.6844
 -23774596.98848 -18498380.19946  21153449.2504                   21153448.9414
  -8883739.57047  -6914035.17645  23247682.2734                   23247684.2034
 -32883354.33648 -25595358.16846  20812813.8594                   20812810.5984
  -6330768.38747  -4676927.57444  23315959.9774                   23315960.0664
 11  8 26  0 25 30.0000000  0  9G10G04G12G17G09G05G25G02G30
 -28479457.03948 -22165668.34446  21169383.7034                   21169382.9774
 -29114943.67647 -22429286.15245  22677906.8754                   22677907.2664
 -25701975.85548 -20002220.91046  21033500.8364                   21033499.5314
 -32279727.09846 -25123860.44544  23874317.1174                   23874318.3244
 -10079337.06646  -7803669.49643  24639749.6024                   24639756.1724
 -23872358.28548 -18574557.77346  21134845.6334                   21134845.7234
  -9000212.96547  -7004793.64545  23225518.3204                   23225520.3554
 -32900107.09048 -25608412.26646  20809625.5474                   20809622.2544
  -6447358.64547  -4767777.09844  23293773.3674                   23293773.2194
 11  8 26  0 26  0.0000000  0  9G10G04G12G17G09G05G25G02G30
 -28471923.62148 -22159798.14146  21170817.3054                   21170816.1954
 -29064873.05147 -22390270.12145  22687435.2274                   22687435.0594
 -25765575.07848 -20051778.72346  21021398.6564                   21021397.0704
 -32248982.12147 -25099903.37144  23880167.2584                   23880169.0634
 -10029146.36346  -7764560.16043  24649300.4454                   24649308.1524
 -23969657.03148 -18650374.92246  21116330.5234                   21116329.8284
  -9116359.44947  -7095297.38345  23203416.2664                   23203418.2274
 -32916644.18048 -25621298.30146  20806479.0084                   20806475.6454
  -6563570.45747  -4858331.69544  23271658.9144                   23271659.1214
 11  8 26  0 26 30.0000000  0  9G10G04G12G17G09G05G25G02G30
 -28463805.55548 -22153472.36746  21172361.8364                   21172360.8834
 -29014776.34447 -22351233.75445  22696968.2194                   22696968.4734
 -25828639.46548 -20100919.78946  21009397.6884                   21009396.8244
 -32218055.48046 -25075804.72344  23886052.6174                   23886054.5274
  -9978986.27047  -7725474.65644  24658846.1174                   24658853.8984
 -24066498.12948 -18725835.46946  21097902.4224                   21097902.1374
  -9232183.59847  -7185549.96545  23181375.5864                   23181377.5784
 -32932973.93448 -25634022.78546  20803371.2974                   20803368.3714
  -6679408.32047  -4948594.93044  23249615.7894                   23249615.4454
 11  8 26  0 27  0.0000000  0  9G10G04G12G17G09G05G25G02G30
 -28455105.90248 -22146693.41446  21174017.3444                   21174016.3054
 -28964656.48847 -22312179.34045  22706505.5634                   22706505.3054
 -25891169.40648 -20149644.40246  20997498.8054                   20997497.5784
 -32186948.79346 -25051565.77744  23891972.3914                   23891973.9184
  -9928861.37947  -7686416.58643  24668385.1174                   24668392.3634
 -24162881.12548 -18800939.04746  21079561.1644                   21079560.5864
  -9347684.37547  -7275550.55145  23159396.6804                   23159398.6604
 -32949099.45348 -25646588.12546  20800303.1174                   20800299.4144
  -6794871.28147  -5038566.02744  23227643.5784                   23227643.5984
 11  8 26  0 27 30.0000000  0  9G10G04G12G17G09G05G25G02G30
 -28445808.84848 -22139448.94946  21175786.9224                   21175785.6914
 -28914497.36747 -22273094.34445  22716050.7894                   22716051.3054
 -25953145.93448 -20197937.78546  20985704.9454                   20985703.2814
 -32155643.77046 -25027172.28544  23897929.8364                   23897930.8794
  -9878757.17647  -7647374.64844  24677919.4384                   24677926.6024
 -24258786.37548 -18875670.35246  21061310.9694                   21061309.8164
  -9462841.78147  -7365283.56645  23137483.0234                   23137485.1374
 -32965004.50448 -25658981.65246  20797275.9144                   20797272.7114
  -6909939.05947  -5128229.20344  23205747.3984                   23205746.9344
 11  8 26  0 28  0.0000000  0  9G10G04G12G17G09G05G25G02G30
 -28435931.56248 -22131752.35246  21177666.1884                   21177665.4774
 -28864316.18447 -22233992.14845  22725599.7974                   22725599.7974
 -26014583.30948 -20245811.05546  20974013.9844                   20974012.3444
 -32124155.95346 -25002636.32844  23903921.1254                   23903922.6954
  -9828692.37147  -7608363.43044  24687447.0944                   24687454.8164
 -24354227.50848 -18950040.01246  21043149.0394                   21043148.3134
  -9577668.92247  -7454759.23445  23115632.0004                   23115633.4144
 -32980706.00448 -25671216.59046  20794288.5234                   20794285.0664
  -7024624.84847  -5217594.71144  23183923.7734                   23183922.7424
 11  8 26  0 28 30.0000000  0  9G10G04G12G17G09G05G25G02G30
 -28425465.75048 -22123597.16446  21179658.0084                   21179657.1334
 -28814104.40247 -22194866.10944  22735154.5784                   22735154.8794
 -26075470.29748 -20293255.44946  20962427.3984                   20962425.7344
 -32092476.02746 -24977950.68744  23909949.9144                   23909951.3094
  -9778660.18747  -7569377.61344  24696968.4144                   24696975.4454
 -24449192.73848 -19024038.84446  21025077.8204                   21025077.1484
  -9692153.41047  -7543967.89845  23093846.4224                   23093848.4344
 -32996195.45748 -25683286.27746  20791341.1174                   20791338.0394
  -7138916.20347  -5306652.90644  23162174.2814                   23162173.5664
 11  8 26  0 29  0.0000000  0  9G10G04G12G17G09G05G25G02G30
 -28414421.18048 -22114990.99646  21181759.8134                   21181758.9064
 -28763871.49247 -22155723.61744  22744713.2734                   22744714.2584
 -26135813.78948 -20340276.34446  20950944.2274                   20950942.8484
 -32060611.38746 -24953121.10244  23916013.6724                   23916014.7854
  -9728672.14847  -7530426.20344  24706481.2664                   24706488.5434
 -24543687.86748 -19097671.35946  21007096.2664                   21007094.9104
  -9806300.77047  -7632913.85545  23072124.8594                   23072126.3714
 -33011482.13748 -25695197.96146  20788431.8674                   20788428.8914
  -7252818.59447  -5395407.99644  23140499.3204                   23140499.0824
 11  8 26  0 29 30.0000000  0  9G10G04G12G17G09G05G25G02G30
 -28402791.81648 -22105929.14846  21183972.7814                   21183971.4264
 -28713611.30547 -22116559.87944  22754277.8594                   22754277.8484
 -26195604.62148 -20386866.59846  20939566.4534                   20939565.3714
 -32028553.97346 -24928141.31644  23922114.0634                   23922115.4264
  -9678723.64147  -7491505.58644  24715986.0554                   24715993.6524
 -24637703.38348 -19170930.13746  20989205.4064                   20989204.6134
  -9920100.71548  -7721589.08645  23050469.4694                   23050471.1804
 -33026559.42648 -25706946.49246  20785563.0474                   20785559.4654
  -7366321.72347  -5483851.97744  23118900.2734                   23118899.9344
 11  8 26  0 30  0.0000000  0  9G10G04G12G17G09G05G25G02G30
 -28390583.80547 -22096416.40246  21186295.7664                   21186295.1174
 -28663329.33647 -22077379.16044  22763845.9924                   22763846.0514
 -26254846.19948 -20433028.86346  20928293.3054                   20928291.7854
 -31996308.08646 -24903014.64844  23928250.3284                   23928251.4774
  -9628821.91447  -7452621.41844  24725482.0164                   24725489.8244
 -24731241.27348 -19243816.75046  20971405.7814                   20971404.7194
 -10033554.97347  -7809994.94545  23028879.6724                   23028881.8364
 -33041432.66848 -25718536.02346  20782732.5474                   20782729.4534
  -7479427.18747  -5571986.09444  23097376.9454                   23097377.0744
 11  8 26  0 30 30.0000000  0  9G10G04G12G17G09G05G25G02G30
 -28377811.18047 -22086463.70346  21188726.4144                   21188725.4304
 -28613039.10947 -22038191.99644  22773416.2584                   22773416.4264
 -26313549.31648 -20478771.54346  20917122.7894                   20917121.0234
 -31963885.73046 -24877750.47344  23934419.7664                   23934421.3324
  -9578982.23847  -7413785.57444  24734966.4384                   24734974.4304
 -24824311.75048 -19316339.14846  20953694.9774                   20953694.2424
 -10146673.24647  -7898138.99245  23007353.8364                   23007356.1644
 -33056115.64148 -25729977.30146  20779938.5634                   20779935.1884
  -7592144.68047  -5659817.88744  23075928.0004                   23075927.7664
 11  8 26  0 31  0.0000000  0  9G10G04G12G17G09G05G25G02G30
 -28364464.09848 -22076063.37546  21191266.0164                   21191264.8054
 -28562730.34447 -21998990.41044  22782989.8914                   22782989.6804
 -26371701.22748 -20524084.71946  20906056.5164                   20906055.1254
 -31931275.05546 -24852339.55544  23940625.3834                   23940626.6054
  -9529195.90647  -7374991.34044  24744440.3364                   24744448.2624
 -24916901.24248 -19388486.74246  20936075.7034                   20936075.1954
 -10259441.35547  -7986010.17245  22985894.8054                   22985896.2704
 -33070597.89848 -25741262.16046  20777182.7194                   20777179.2704
  -7704459.98447  -5747336.28144  23054554.9694                   23054554.7464
 11  8 26  0 31 30.0000000  0  9G10G04G12G17G09G05G25G02G30
 -28350542.39547 -22065215.28146  21193915.0084                   21193914.2504
 -28512402.87147 -21959774.22744  22792566.4304                   22792567.0634
 -26429299.19148 -20568966.23846  20895096.3674                   20895094.6454
 -31898474.39146 -24826780.60244  23946867.2034                   23946868.3094
  -9479464.24646  -7336239.67243  24753904.5084                   24753912.8324
 -25009006.36748 -19460256.92246  20918548.7814                   20918547.9574
 -10371855.12147  -8073605.22745  22964503.1094                   22964505.0084
 -33084878.94948 -25752390.24246  20774465.2114                   20774461.6844
  -7816368.88347  -5834537.99644  23033258.8984                   23033259.3324
 11  8 26  0 32  0.0000000  0  9G10G04G12G17G09G05G25G02G30
 -28336046.18448 -22053919.53146  21196673.7344                   21196672.6254
 -28462056.11747 -21920543.02744  22802147.0234                   22802147.5744
 -26486340.03948 -20613413.64546  20884241.6484                   20884240.2774
 -31865481.57846 -24801071.93444  23953145.3284                   23953146.8484
  -9429788.61746  -7297531.68743  24763357.5234                   24763366.3484
 -25100623.25848 -19531646.65246  20901114.4144                   20901113.4064
 -10483910.32047  -8160920.88345  22943179.8594                   22943181.5394
 -33098958.18448 -25763361.06246  20771785.9694                   20771782.8364
  -7927867.09847  -5921419.71544  23012041.7274                   23012041.9844
 11  8 26  0 32 30.0000000  0  9G10G04G12G17G09G05G25G02G30
 -28320982.74648 -22042181.79346  21199540.3444                   21199539.1454
 -28411696.84847 -21881302.07844  22811730.5234                   22811731.2774
 -26542827.67248 -20657429.98046  20873492.5164                   20873490.6254
 -31832301.69946 -24775217.49243  23959458.5314                   23959461.0784
  -9380177.42246  -7258873.90643  24772797.6564                   24772806.5784
 -25191755.35548 -19602658.62146  20883772.4774                   20883771.8284
 -10595609.73847  -8247959.30145  22921923.9144                   22921925.3164
 -33112842.43448 -25774179.95346  20769143.7734                   20769140.8134
  -8038957.44547  -6007983.59444  22990901.9144                   22990902.3914
 11  8 26  0 33  0.0000000  0  9G10G04G12G17G09G05G25G02G30
 -28305350.19948 -22030000.58246  21202514.9774                   21202514.3284
 -28361322.73047 -21842049.55944  22821316.5004                   22821316.4494
 -26598757.97748 -20701012.02346  20862849.0864                   20862847.7584
 -31798931.49246 -24749214.76244  23965809.3914                   23965810.8094
  -9330629.73445  -7220265.61742  24782227.0634                   24782236.0234
 -25282396.92248 -19673288.35946  20866523.9304                   20866522.8164
 -10706947.16047  -8334715.63745  22900737.3054                   22900738.6414
 -33126529.08648 -25784844.87546  20766538.9844                   20766536.0434
  -8149633.57447  -6094224.71544  22969841.1564                   22969841.0204
 11  8 26  0 33 30.0000000  0  9G10G04G12G17G09G05G25G02G30
 -28289153.85948 -22017380.05546  21205596.8834                   21205595.6024
 -28310938.15247 -21802788.89144  22830903.8054                   22830904.6374
 -26654133.00848 -20744161.40246  20852311.6024                   20852310.1214
 -31765373.68446 -24723065.85943  23972195.6484                   23972197.2154
  -9281152.07045  -7181711.89542  24791642.1954                   24791652.0594
 -25372549.20748 -19743536.83646  20849368.4924                   20849367.8324
 -10817923.51648  -8421190.63745  22879618.6564                   22879620.1054
 -33140022.73048 -25795359.38746  20763971.5004                   20763968.0434
  -8259896.46147  -6180143.78544  22948859.0474                   22948858.8794
 11  8 26  0 34  0.0000000  0  9G10G04G12G17G09G05G25G02G30
 -28272389.25048 -22004316.72346  21208787.2734                   21208786.1914
 -28260538.54347 -21763516.50444  22840495.2504                   22840495.5984
 -26708945.37548 -20786872.33246  20841881.0314                   20841879.9414
 -31731622.13746 -24696765.98444  23978618.3364                   23978619.9104
  -9231741.113 5                  24801045.023
 -25462204.71948 -19813398.21946  20832307.6804                   20832307.0124
 -10928530.08647  -8507377.50045  22858570.7194                   22858572.8364
 -33153318.45748 -25805719.68446  20761441.3204                   20761437.8674
  -8369737.31247  -6265734.01244  22927956.1954                   22927956.5314
 11  8 26  0 34 30.0000000  0  9G10G04G12G17G09G05G25G02G30
 -28255055.15248 -21990809.63746  21212085.7734                   21212084.8204
 -28210121.91047 -21724230.86344  22850088.8054                   22850089.4964
 -26763191.02348 -20829141.66446  20831558.2664                   20831557.2854
 -31697673.42246 -24670312.48444  23985078.3284                   23985080.0944
  -9182397.035 5                  24810435.156
 -25551358.03948 -19882868.28946  20815342.4534                   20815341.6914
 -11038761.32447  -8593271.89545  22837594.4534                   22837596.4224
 -33166414.25848 -25815924.18446  20758949.3834                   20758945.9614
  -8479150.55947  -6350991.01244  22907135.9614                   22907136.0164
 11  8 26  0 35  0.0000000  0  9G10G04G12G17G09G05G25G02G30
 -28237164.10248 -21976868.56246  21215490.6564                   21215489.3754
 -28159700.13747 -21684941.21544  22859684.1564                   22859684.8834
 -26816879.10548 -20870976.52746  20821342.0164                   20821340.3364
 -31663538.25446 -24643713.71144  23991573.9064                   23991576.1484
  -9133133.246 5                  24819809.695
 -25640018.06648 -19951953.97346  20798470.9694                   20798470.0314
 -11148625.14547  -8678879.98445  22816688.3444                   22816690.3984
 -33179321.95348 -25825982.11346  20756493.1954                   20756489.6914
  -8588144.18447  -6435921.02344  22886394.8754                   22886394.9534
 11  8 26  0 35 30.0000000  0  8G10G04G12G17G05G25G02G30
 -28218710.02348 -21962488.75846  21219002.1334                   21219001.0474
 -28109266.42647 -21645642.26244  22869281.3364                   22869281.7304
 -26870001.28548 -20912370.42246  20811233.2274                   20811231.5474
 -31629208.45746 -24616963.27344  23998106.8984                   23998108.9264
 -25728175.09448 -20020647.69546  20781695.1644                   20781694.8164
 -11258111.19947  -8764193.71545  22795853.4534                   22795855.5204
 -33192035.12148 -25835888.46546  20754073.8754                   20754070.4884
  -8696707.80147  -6520515.96144  22865736.1094                   22865736.5044
 11  8 26  0 36  0.0000000  0  8G10G04G12G17G05G25G02G30
 -28199698.89548 -21947674.89846  21222619.8364                   21222618.8594
 -28058825.91847 -21606338.01244  22878879.9384                   22878880.4104
 -26922560.43048 -20953325.60246  20801231.6804                   20801229.9304
 -31594687.86746 -24590064.18044  24004675.7894                   24004677.9144
 -25815831.18048 -20088951.09446  20765014.3524                   20765013.5944
 -11367221.06647  -8849214.32845  22775090.9144                   22775092.2664
 -33204558.34848 -25845646.82046  20751690.6724                   20751687.0274
  -8804842.94947  -6604777.05144  22845158.5084                   22845158.1054
 11  8 26  0 36 30.0000000  0  8G10G04G12G17G05G25G02G30
 -28180127.69148 -21932424.62146  21226344.2734                   21226342.9774
 -28008374.93447 -21567025.59044  22888479.7894                   22888480.8204
 -26974550.12948 -20993837.05146  20791338.2894                   20791336.4574
 -31559970.99646 -24563012.10944  24011282.6254                   24011284.4104
 -25902979.10248 -20156858.51246  20748430.7664                   20748429.8094
 -11475946.94547  -8933935.75445  22754400.4224                   22754402.4104
 -33216887.63348 -25855254.04746  20749344.4534                   20749341.2034
  -8912541.86747  -6688698.20744  22824663.7584                   22824663.6414
 11  8 26  0 37  0.0000000  0  8G10G04G12G17G05G25G02G30
 -28160003.73848 -21916743.61746  21230173.4384                   21230172.3834
 -27957919.66847 -21527709.85544  22898081.9534                   22898082.5394
 -27025974.80548 -21033908.22346  20781552.3524                   20781551.1884
 -31525063.19546 -24535811.28544  24017925.1564                   24017927.2154
 -25989622.77048 -20224373.01646  20731943.1644                   20731942.0314
 -11584291.91047  -9018360.37145  22733783.4454                   22733784.6454
 -33229030.02348 -25864715.64546  20747033.8594                   20747030.3634
  -9019807.60547  -6772281.81644  22804251.8984                   22804251.5204
 11  8 26  0 37 30.0000000  0  8G10G04G12G17G05G25G02G30
 -28139323.55548 -21900629.19546  21234108.9384                   21234108.0084
 -27907456.38347 -21488387.85544  22907684.3754                   22907684.9924
 -27076828.21548 -21073534.25846  20771875.1484                   20771874.1844
 -31489959.35947 -24508457.68744  24024604.9614                   24024606.9654
 -26075754.96548 -20291488.95746  20715552.5084                   20715551.8444
 -11692248.11747  -9102482.07045  22713239.9144                   22713242.0664
 -33240981.33248 -25874028.35546  20744759.6414                   20744756.2814
  -9126632.22347  -6855521.69544  22783923.5704                   22783922.9064
 11  8 26  0 38  0.0000000  0  8G10G04G12G17G05G25G02G30
 -28118092.54348 -21884085.54745  21238149.0394                   21238148.3554
 -27856989.44947 -21449063.01244  22917287.7814                   22917288.4924
 -27127112.89548 -21112717.13346  20762306.5004                   20762305.1884
 -31454662.67247 -24480953.83244  24031321.8204                   24031324.1374
 -26161377.42248 -20358207.69946  20699259.1804                   20699258.5434
 -11799816.39147  -9186301.47345  22692770.2894                   22692771.9454
 -33252745.85548 -25883195.51646  20742521.0944                   20742517.6414
  -9233016.73447  -6938418.64544  22763679.7344                   22763679.0554
 11  8 26  0 38 30.0000000  0  8G10G04G12G17G05G25G02G30
 -28096319.37948 -21867119.45746  21242292.4694                   21242291.6374
 -27806526.56647 -21409741.32844  22926891.2114                   22926891.6174
 -27176834.94948 -21151461.58646  20752844.7664                   20752843.1644
 -31419178.92247 -24453304.19144  24038074.6024                   24038075.6454
 -26246494.91048 -20424532.96146  20683061.9304                   20683061.0394
 -11907000.96947  -9269821.89545  22672373.5944                   22672375.4264
 -33264331.54748 -25892223.31646  20740316.6884                   20740313.1254
  -9338965.34447  -7020975.91844  22743517.8054                   22743517.3204
 11  8 26  0 39  0.0000000  0  8G10G04G12G17G05G25G02G30
 -28073992.02348 -21849721.52046  21246540.6954                   21246539.9454
 -27756054.84047 -21370412.76644  22936495.5474                   22936496.0164
 -27225978.55148 -21189755.30946  20743492.9924                   20743491.4694
 -31383495.02747 -24425498.58644  24044865.0164                   24044866.8714
 -26331091.50848 -20490452.34046  20666963.3594                   20666962.4774
 -12013785.15247  -9353030.33645  22652053.2974                   22652055.3674
 -33275725.18048 -25901101.47346  20738148.1174                   20738144.8094
  -9444461.36747  -7103180.52744  22723442.9384                   22723442.2624
 11  8 26  0 39 30.0000000  0  8G10G04G12G17G05G25G02G30
 -28051129.32848 -21831906.44546  21250891.9224                   21250890.7304
 -27705592.01647 -21331091.10544  22946098.1564                   22946099.0164
 -27274560.08248 -21227611.04346  20734248.1884                   20734247.0634
 -31347626.82447 -24397549.36744  24051690.1024                   24051691.6884
 -26415182.35248 -20555977.62946  20650961.3834                   20650960.7504
 -12120183.09047  -9435937.80145  22631806.5314                   22631808.4884
 -33286944.62948 -25909843.89546  20736013.2114                   20736009.8444
  -9549518.96947  -7185043.54344  22703451.2114                   22703450.5474
 11  8 26  0 40  0.0000000  0  8G10G04G12G17G05G25G02G30
 -28027722.44548 -21813667.32445  21255345.7114                   21255345.0554
 -27655128.42247 -21291768.86744  22955700.4534                   22955701.8874
 -27322567.70748 -21265019.58246  20725112.3914                   20725111.3284
 -31311563.95747 -24369448.46143  24058553.1094                   24058554.2584
 -26498755.01648 -20621099.13746  20635058.1024                   20635057.1804
 -12226181.75047  -9518534.15245  22611635.7974                   22611637.7504
 -33297980.41048 -25918443.19946  20733913.2664                   20733909.6914
  -9654125.17247  -7266554.81644  22683544.9924                   22683544.3014
 11  8 26  0 40 30.0000000  0  8G10G04G12G17G05G25G02G30
 -28003771.94148 -21795004.60946  21259903.3284                   21259902.5554
 -27604663.76647 -21252445.78944  22965304.2274                   22965304.7704
 -27369999.26248 -21301979.23046  20716086.7194                   20716085.6914
 -31275304.35947 -24341194.25243  24065452.9454                   24065454.3874
 -26581806.17248 -20685814.27346  20619253.8914                   20619253.0274
 -12331777.11347  -9600816.24645  22591541.5084                   22591543.5044
 -33308832.01248 -25926898.97746  20731848.0394                   20731844.4454
  -9758275.97347  -7347711.24244  22663725.6884                   22663725.3554
 11  8 26  0 41  0.0000000  0  8G10G04G12G17G05G25G02G30
 -27979282.37548 -21775921.83646  21264563.5474                   21264562.6604
 -27554201.34447 -21213124.45744  22974907.2344                   22974908.0274
 -27416856.30148 -21338491.19946  20707170.0164                   20707168.4694
 -31238850.46946 -24312788.64143  24072389.6804                   24072391.6524
 -26664336.31248 -20750123.42247  20603549.0164                   20603548.3954
 -12436969.08247  -9682784.00845  22571524.5004                   22571526.2734
 -33319502.97348 -25935214.00446  20729817.4064                   20729813.8164
  -9861971.30947  -7428512.76244  22643992.6174                   22643992.6804
 11  8 26  0 41 30.0000000  0  8G10G04G12G17G05G25G02G30
 -27954257.02748 -21756421.57845  21269325.9694                   21269325.2894
 -27503743.77047 -21173806.88744  22984508.7424                   22984509.0664
 -27463139.25848 -21374555.83246  20698362.4694                   20698361.4224
 -31202203.62546 -24284232.68043  24079363.5234                   24079365.0554
 -26746345.48048 -20814026.62947  20587943.1174                   20587942.3874
 -12541756.69148  -9764436.68745  22551583.9384                   22551585.8094
 -33329995.87548 -25943390.28146  20727820.5004                   20727817.1214
  -9965210.24647  -7508958.65244  22624347.2584                   22624346.8524
 11  8 26  0 42  0.0000000  0  8G10G04G12G17G05G25G02G30
 -27928703.14548 -21736509.47345  21274188.5784                   21274187.6134
 -27453296.90247 -21134497.66844  22994108.4304                   22994108.9184
 -27508852.20348 -21410176.28946  20689663.7034                   20689662.4384
 -31165368.50046 -24255530.00443  24086373.5234                   24086374.7894
 -26827836.84448 -20877526.33646  20572435.9144                   20572435.1054
 -12646142.11748  -9845775.97345  22531719.7584                   22531721.3634
 -33340316.36348 -25951432.20746  20725857.1334                   20725853.4614
 -10067994.92247  -7589050.55944  22604787.6884                   22604787.6134
 11  8 26  0 42 30.0000000  0  8G10G04G12G17G05G25G02G30
 -27902616.96948 -21716182.59845  21279152.3914                   21279151.6174
 -27402855.81247 -21095192.93744  23003707.3284                   23003707.5704
 -27553989.20748 -21445347.96946  20681074.5314                   20681073.1214
 -31128339.49246 -24226676.26643  24093419.7034                   24093420.8554
 -26908803.11748 -20940616.87946  20557028.4844                   20557027.5664
 -12750117.23847  -9926795.52745  22511933.9614                   22511935.8714
 -33350460.00448 -25959336.32046  20723926.1414                   20723922.9734
 -10170317.32847  -7668782.26644  22585316.7274                   22585315.9064
 11  8 26  0 43  0.0000000  0  8G10G04G12G17G05G25G02G30
 -27876000.98448 -21695442.87545  21284217.4384                   21284216.6024
 -27352421.77347 -21055893.71544  23013304.4614                   23013304.7664
 -27598549.18448 -21480070.01646  20672595.0164                   20672593.4454
 -31091116.21146 -24197671.12543  24100502.4924                   24100504.2934
 -26989242.73848 -21003297.05947  20541721.3754                   20541720.8284
 -12853679.76647 -10007493.59045  22492226.4384                   22492228.3834
 -33360427.74248 -25967103.37946  20722029.6884                   20722026.2774
 -10272175.26247  -7748152.04744  22565933.9144                   22565933.3984
 11  8 26  0 43 30.0000000  0  8G10G04G12G17G05G25G02G30
 -27848862.44547 -21674295.96545  21289381.8364                   21289381.0984
 -27302000.89847 -21016604.71944  23022899.7734                   23022900.0164
 -27642536.50448 -21514345.82046  20664224.3134                   20664223.2504
 -31053704.10946 -24168518.83243  24107621.7194                   24107624.1134
 -27069159.10248 -21065569.50447  20526513.6094                   20526512.6174
 -12956832.45747 -10087872.30145  22472597.4384                   22472599.2384
 -33370226.12148 -25974738.45746  20720164.8914                   20720161.5634
 -10373571.48047  -7827162.05545  22546638.7504                   22546638.2464
 11  8 26  0 44  0.0000000  0  8G10G04G12G17G05G25G02G30
 -27821190.37947 -21652733.32045  21294647.6724                   21294646.9344
 -27251581.24647 -20977316.68744  23032493.4144                   23032494.4844
 -27685937.53548 -21548164.78946  20655965.5084                   20655963.9694
 -31016089.80546 -24139208.99243  24114779.5784                   24114781.9304
 -27148537.93748 -21127423.08246  20511408.1254                   20511407.6254
 -13059559.96148 -10167919.70345  22453048.9384                   22453050.4804
 -33379843.00448 -25982232.12546  20718335.0944                   20718331.4064
 -10474490.66447  -7905800.35945  22527434.3134                   22527434.3404
 11  8 26  0 44 30.0000000  0  8G10G04G12G17G05G25G02G30
 -27793002.03548 -21630768.37945  21300011.5944                   21300010.9494
 -27201178.79347 -20938042.04744  23042085.1804                   23042085.7814
 -27728766.60948 -21581538.06646  20647815.4304                   20647813.8634
 -30978288.56646 -24109753.52343  24121973.4144                   24121974.8284
 -27227392.38348 -21188868.05146  20496402.4304                   20496401.5704
 -13161874.77747 -10247645.53145  22433579.0394                   22433580.7894
 -33389294.45748 -25989596.87546  20716536.3364                   20716532.8364
 -10574945.49247  -7984076.83245  22508318.5314                   22508318.4494
 11  8 26  0 45  0.0000000  0  8G10G04G12G17G05G25G02G30
 -26188872.26648 -20380797.12946  21605267.6724                   21605266.5864
 -25575367.77347 -19671176.34444  23351466.5394                   23351467.1684
 -26195593.54348 -20386857.72346  20939568.6174                   20939567.2704
 -29364873.18046 -22852546.72343  24428995.3594                   24428997.4774
 -25730290.07448 -20022294.76246  20781291.6804                   20781290.6214
 -11688342.84447  -9099438.82045  22713982.9384                   22713984.9414
 -31823153.10548 -24769226.97346  21014563.1024                   21014559.8714
  -9099501.88347  -6834380.48445  22789085.8204                   22789085.9304
 11  8 26  0 45 30.0000000  0  8G10G04G12G17G05G25G02G30
 -26159645.65648 -20358023.16446  21610829.1414                   21610828.5864
 -25524990.42646 -19631921.27344  23361053.1644                   23361053.3204
 -26237265.12548 -20419329.07046  20931638.5394                   20931636.8014
 -29326685.56646 -22822790.15643  24436263.2344                   24436264.8204
 -25808079.43448 -20082909.80146  20766488.9614                   20766487.8634
 -11789812.92247  -9178506.41445  22694673.8754                   22694675.3524
 -31832264.77748 -24776326.96146  21012829.4454                   21012826.0164
  -9199008.55147  -6911918.14144  22770150.3594                   22770150.6414
 11  8 26  0 46  0.0000000  0  8G10G04G12G17G05G25G02G30
 -26129910.75048 -20334853.11745  21616487.2894                   21616486.4844
 -25474633.88746 -19592682.42244  23370635.3754                   23370636.4304
 -26278363.94548 -20451354.10946  20923818.2274                   20923816.0004
 -29288311.73046 -22792888.47744  24443565.5704                   24443567.2114
 -25885340.87148 -20143113.46146  20751786.3364                   20751785.4414
 -11890864.07847  -9257247.56645  22675444.3984                   22675446.4024
 -31841215.38348 -24783301.44946  21011126.0394                   21011122.4774
  -9298044.67647  -6989089.14145  22751304.5634                   22751304.6994
 11  8 26  0 46 30.0000000  0  8G10G04G12G17G05G25G02G30
 -26099662.63747 -20311283.17245  21622243.5234                   21622242.8164
 -25424292.47747 -19553455.39144  23380215.2194                   23380216.0554
 -26318882.52748 -20482927.01246  20916107.4064                   20916105.9534
 -29249744.77347 -22762836.30544  24450904.7664                   24450905.9884
 -25962066.40248 -20202899.54347  20737186.1094                   20737185.0124
 -11991487.10248  -9335655.10945  22656296.4774                   22656298.1094
 -31849998.65648 -24790145.54346  21009454.7894                   21009450.8674
  -9396601.28547  -7065886.49645  22732550.0314                   22732549.9694
 11  8 26  0 47  0.0000000  0  8G10G04G12G17G05G25G02G30
 -26068903.58247 -20287315.08245  21628096.8594                   21628095.9654
 -25373967.07847 -19514240.81244  23389791.7814                   23389792.7194
 -26358820.24248 -20514047.29746  20908507.6334                   20908506.1054
 -29210984.53147 -22732633.53544  24458280.3444                   24458282.0394
 -26038254.26648 -20262266.65646  20722687.8524                   20722686.9414
 -12091679.68447  -9413727.23045  22637230.3054                   22637232.4924
 -31858615.69948 -24796860.11346  21007814.6884                   21007811.3324
  -9494675.92647  -7142308.29344  22713886.7894                   22713886.3164
 11  8 26  0 47 30.0000000  0  8G10G04G12G17G05G25G02G30
 -26037645.40647 -20262958.06645  21634045.0784                   21634044.2234
 -25323668.25847 -19475046.95344  23399363.1334                   23399364.1684
 -26398186.65248 -20544722.41846  20901016.5234                   20901014.9494
 -29172040.84047 -22702287.78944  24465690.9224                   24465692.9964
 -26113912.82848 -20321221.33246  20708290.6884                   20708289.5044
 -12191448.98047  -9491469.52045  22618245.0704                   22618246.3954
 -31867077.40648 -24803453.64546  21006204.4774                   21006200.9184
  -9592275.99647  -7218360.29744  22695313.5944                   22695313.7154
 11  8 26  0 48  0.0000000  0  8G10G04G12G17G05G25G02G30
 -26005888.65648 -20238212.55145  21640088.1724                   21640087.3364
 -25273394.89146 -19435872.94544  23408930.2114                   23408930.8014
 -26436979.35248 -20574950.48446  20893634.2974                   20893632.3404
 -29132911.96947 -22671797.77044  24473136.7974                   24473138.6994
 -26189038.93448 -20379761.10946  20693994.3914                   20693993.1564
 -12290790.91047  -9568878.77345  22599341.1644                   22599342.7274
 -31875382.68048 -24809925.28146  21004624.0704                   21004621.1024
  -9689397.53547  -7294039.43045  22676832.3204                   22676832.3284
 11  8 26  0 48 30.0000000  0  9G10G04G12G17G29G05G25G02G30
 -25973625.33647 -20213072.29745  21646227.4384                   21646226.2774
 -25223137.66846 -19396711.52044  23418493.5944                   23418494.7344
 -26475187.16848 -20604722.80946  20886363.4384                   20886361.6564
 -29093587.37147 -22641155.23844  24480619.9384                   24480622.2814
   2986512.12157   2439915.23854  24751111.2424                   24751110.1844
 -26263620.76248 -20437876.77046  20679801.9454                   20679800.7384
 -12389692.60947  -9645944.97745  22580520.2974                   22580522.1294
 -31883522.28948 -24816267.83246  21003075.2974                   21003071.9064
  -9786027.71947  -7369335.68445  22658444.2424                   22658444.1764
 11  8 26  0 49  0.0000000  0  9G10G04G12G17G29G05G25G02G30
 -25940864.08247 -20187544.05945  21652461.7974                   21652460.8554
 -25172903.55546 -19357568.10544  23428052.6024                   23428054.2664
 -26512816.01648 -20634043.99646  20879203.0704                   20879201.7074
 -29054073.14147 -22610364.94944  24488139.5234                   24488141.4304
   2875657.71147   2353535.23443  24730016.3594                   24730016.5744
 -26337663.19148 -20495572.12946  20665712.1954                   20665711.3594
 -12488158.21947  -9722671.37545  22561782.6414                   22561784.7234
 -31891503.74648 -24822487.14846  21001556.5474                   21001553.0514
  -9882170.73447  -7444252.31644  22640148.9534                   22640148.8714
 11  8 26  0 49 30.0000000  0  9G10G04G12G17G29G05G25G02G30
 -25907610.51248 -20161632.18445  21658789.8674                   21658788.9384
 -25122696.82046 -19318446.03144  23437606.9614                   23437607.8594
 -26549868.54348 -20662916.10246  20872152.3674                   20872150.5784
 -29014372.80947 -22579429.64544  24495694.3754                   24495695.9184
   2764716.75047   2267087.79343  24708904.9844                   24708905.0394
 -26411168.04348 -20552848.59446  20651724.7664                   20651723.4774
 -12586188.49647  -9799058.53145  22543128.3914                   22543130.2234
 -31899330.93748 -24828586.25846  21000066.8444                   21000063.7034
  -9977827.46947  -7518790.04345  22621945.9694                   22621946.2624
 11  8 26  0 50  0.0000000  0  9G10G04G12G17G29G05G25G02G30
 -25873867.59848 -20135339.00045  21665210.4454                   21665209.9694
 -25072519.20346 -19279346.62144  23447155.6484                   23447155.8594
 -26586345.41448 -20691339.65246  20865210.7194                   20865209.5274
 -28974487.19947 -22548349.94944  24503283.8984                   24503286.1134
   2653688.89147   2180572.66843  24687777.0634                   24687777.6524
 -26484135.16048 -20609706.04347  20637839.5554                   20637838.0434
 -12683782.21547  -9875105.52045  22524556.9844                   22524558.0634
 -31907005.96948 -24834566.80546  20998606.0634                   20998603.3444
 -10072996.65647  -7592947.84845  22603836.6174                   22603835.7624
 11  8 26  0 50 30.0000000  0  9G10G04G12G17G29G05G25G02G30
 -25839636.92647 -20108665.75045  21671724.8754                   21671723.7664
 -25022370.60946 -19240269.84044  23456698.6334                   23456699.6884
 -26622245.42248 -20719313.69946  20858379.3914                   20858377.7974
 -28934415.30547 -22517125.12944  24510909.6804                   24510911.7814
   2542575.95746   2093991.20743  24666632.5234                   24666633.8484
 -26556562.12148 -20666142.59447  20624057.0394                   20624055.6054
 -12780935.94947  -9950809.65245  22506069.4774                   22506070.7304
 -31914528.57048 -24840428.57846  20997174.9064                   20997171.3984
 -10167675.12547  -7666723.27045  22585819.1334                   22585819.3984
 11  8 26  0 51  0.0000000  0  9G10G04G12G17G29G05G25G02G30
 -25804915.40648 -20081610.01645  21678332.0554                   21678330.8594
 -24972246.09447 -19201211.84044  23466237.0234                   23466237.9694
 -26657562.74648 -20746833.69946  20851658.8134                   20851657.1844
 -28894151.45346 -22485750.69943  24518571.4844                   24518573.0944
   2431384.17646   2007348.38343  24645473.6174                   24645474.0904
 -26628441.97348 -20722152.82847  20610378.9774                   20610377.3404
 -12877641.91448 -10026164.87145  22487666.3284                   22487668.0864
 -31921894.35548 -24846168.16446  20995773.1254                   20995769.9454
 -10261854.98847  -7740110.15645  22567897.8444                   22567897.4804
 11  8 26  0 51 30.0000000  0  9G10G04G12G17G29G05G25G02G30
 -25769708.71148 -20054176.23045  21685031.8524                   21685030.6604
 -24922149.94547 -19162175.91844  23475770.5864                   23475771.0234
 -26692300.33648 -20773901.97346  20845048.2344                   20845046.6914
 -28853699.34446 -22454229.60943  24526269.7114                   24526271.4224
   2320110.60946   1920641.75843  24624298.9224                   24624299.6484
 -26699776.87548 -20777738.43447  20596804.1094                   20596802.7384
 -12973901.27347 -10101172.08245  22469348.9694                   22469350.8444
 -31929107.63748 -24851788.91046  20994400.7504                   20994397.3164
 -10355537.75047  -7813109.68045  22550070.1174                   22550070.3794
 11  8 26  0 52  0.0000000  0  9G10G04G12G17G29G05G25G02G30
 -25734007.05548 -20026356.75445  21691825.4064                   21691824.7774
 -24872071.07847 -19123153.48444  23485300.2584                   23485300.5124
 -26726445.92248 -20800508.93746  20838550.7274                   20838549.3244
 -28813046.92646 -22422552.38743  24534005.0474                   24534007.4924
   2208767.82846   1833881.22743  24603110.8284                   24603111.5474
 -26770553.48848 -20832889.00447  20583335.8054                   20583334.3484
 -13069699.68747 -10175820.12945  22451119.2974                   22451120.8444
 -31936157.23448 -24857282.11746  20993058.8594                   20993055.5824
 -10448709.04747  -7885710.65245  22532340.2424                   22532340.2774
 11  8 26  0 52 30.0000000  0  9G10G04G12G17G29G05G25G02G30
 -25697822.09848 -19998160.67645  21698711.1484                   21698709.9844
 -24822018.91847 -19084151.82844  23494824.7114                   23494824.6844
 -26760008.05548 -20826661.26646  20832164.1804                   20832162.9614
 -28772203.08246 -22390726.02043  24541777.6094                   24541778.7344
   2097347.92246   1747060.60943  24581907.9454                   24581909.1604
 -26840779.71548 -20887610.69547  20569972.1334                   20569970.7304
 -13165043.80947 -10250114.16845  22432975.7664                   22432977.3594
 -31943053.11748 -24862655.54746  20991747.0634                   20991744.0594
 -10541375.78547  -7957918.44945  22514705.9304                   22514706.0634
 11  8 26  0 53  0.0000000  0  9G10G04G12G17G29G05G25G02G30
 -25661159.59048 -19969592.48045  21705687.6954                   21705687.1724
 -24771997.68747 -19045174.28944  23504343.9694                   23504343.8014
 -26792989.61748 -20852361.19146  20825888.0394                   20825886.4414
 -28731171.41046 -22358753.32843  24549585.2734                   24549587.2424
   1985848.21946   1660177.78143  24560690.9614                   24560691.4304
 -26910457.64848 -20941905.16047  20556712.8594                   20556711.6524
 -13259934.79347 -10324055.12545  22414918.5004                   22414919.7114
 -31949799.55948 -24867912.53146  20990463.1414                   20990459.9694
 -10633539.15647  -8029733.98845  22497168.6954                   22497168.1764
 11  8 26  0 53 30.0000000  0  8G10G04G12G29G05G25G02G30
 -25624023.13748 -19940654.97345  21712754.8984                   21712754.2274
 -24722009.41847 -19006222.43044  23513856.3204                   23513855.9184
 -26825392.00448 -20877609.81646  20819722.1484                   20819720.3094
   1874268.02346   1573232.29343  24539457.6334                   24539458.3324
 -26979587.53548 -20995772.55947  20543557.8834                   20543556.8364
 -13354371.67647 -10397642.24645  22396947.7034                   22396948.9064
 -31956398.64148 -24873054.68046  20989207.4384                   20989203.7194
 -10725198.21547  -8101156.56245  22479725.8054                   22479725.5314
 11  8 26  0 54  0.0000000  0  8G10G04G12G29G05G25G02G30
 -25586417.79348 -19911352.09845  21719910.8674                   21719910.1564
 -24672057.23047 -18967298.65244  23523361.7734                   23523362.0234
 -26857216.97348 -20902408.50046  20813666.1334                   20813664.3204
   1762605.71946   1486222.81343  24518208.0704                   24518209.1604
 -27048170.58248 -21049213.85947  20530506.8444                   20530505.6524
 -13448354.63348 -10470875.66445  22379063.3134                   22379064.2774
 -31962853.84448 -24878084.71946  20987978.9454                   20987975.4304
 -10816353.42247  -8172186.51245  22462380.0164                   22462379.1254
 11  8 26  0 54 30.0000000  0  8G10G04G12G29G05G25G02G30
 -25548342.65248 -19881683.15245  21727156.3524                   21727155.3954
 -24622138.94547 -18928401.32044  23532860.6564                   23532861.1954
 -26888461.64848 -20926755.00846  20807719.9774                   20807718.8674
   1650865.23446   1399152.41843  24496945.0944                   24496945.9184
 -27116202.56648 -21102225.75447  20517560.7734                   20517559.7734
 -13541878.32847 -10543751.22345  22361266.3984                   22361267.2464
 -31969162.77048 -24883000.77046  20986778.7194                   20986775.3364
 -10906999.50847  -8242819.74245  22445130.1644                   22445130.1414
 11  8 26  0 55  0.0000000  0  8G10G04G12G29G05G25G02G30
 -25509787.22348 -19851639.94945  21734493.0164                   21734492.4024
 -24572242.13747 -18889520.71944  23542355.5784                   23542356.0434
 -26919112.94548 -20950639.13746  20801887.3984                   20801885.9414
   1539060.09846   1312031.63343  24475669.4774                   24475670.0514
 -27183669.24648 -21154797.15247  20504722.0634                   20504720.8324
 -13634927.71947 -10616257.19945  22343559.4304                   22343560.7584
 -31975313.80548 -24887793.79346  20985608.1884                   20985604.5314
 -10997121.58247  -8313044.67245  22427980.4224                   22427979.9654
 11  8 26  0 55 30.0000000  0  8G10G04G12G29G05G25G02G30
 -25470757.81648 -19821227.41045  21741920.3444                   21741919.2424
 -24522371.39547 -18850660.40244  23551845.8284                   23551846.7274
 -26949174.40648 -20974063.65646  20796166.9694                   20796165.6764
   1427187.26646   1224858.10544  24454380.3284                   24454381.2664
 -27250573.64848 -21206930.40647  20491990.6024                   20491989.5824
 -13727504.39847 -10688394.83645  22325943.1174                   22325944.0314
 -31981311.44948 -24892467.28546  20984466.7664                   20984462.9654
 -11086721.43747  -8382862.66845  22410930.3054                   22410930.1684
 11  8 26  0 56  0.0000000  0  8G10G04G12G29G05G25G02G30
 -25431268.46148 -19790456.48045  21749434.3984                   21749433.8954
 -24472538.69947 -18811829.75844  23561328.8134                   23561329.1724
 -26978657.44948 -20997037.45346  20790556.5084                   20790554.9884
   1315236.23446   1137623.66444  24433076.9224                   24433077.8324
 -27316925.76648 -21258633.32047  20479364.2114                   20479363.1764
 -13819617.50847 -10760171.26645  22308413.9534                   22308415.3324
 -31987167.73848 -24897030.64546  20983352.4774                   20983348.8874
 -11175808.32847  -8452280.95745  22393977.3984                   22393976.9024
 11  8 26  0 56 30.0000000  0  8G10G04G12G29G05G25G02G30
 -25391304.22348 -19759315.50445  21757039.4694                   21757039.0354
 -24422727.62147 -18773015.95743  23570807.3364                   23570808.0784
 -27007544.23848 -21019546.62946  20785059.7034                   20785058.3834
   1203224.96146   1050342.26244  24411761.8134                   24411762.6994
 -27382707.41448 -21309891.71147  20466846.3914                   20466845.4804
 -13911247.55948 -10831571.28145  22290977.6724                   22290979.0004
 -31992866.33648 -24901471.10546  20982268.0084                   20982264.9184
 -11264362.96947  -8521284.51245  22377126.0704                   22377125.5824
 11  8 26  0 57  0.0000000  0  8G10G04G12G29G05G25G02G30
 -25350883.02348 -19727818.46945  21764731.5474                   21764730.6564
 -24372954.15647 -18734231.43744  23580279.2034                   23580279.9734
 -27035850.30548 -21041603.30546  20779673.1724                   20779671.5234
   1091138.95347    963002.62344  24390432.5084                   24390433.2974
 -27447933.07848 -21360716.85547  20454434.0554                   20454433.4574
 -14002407.94147 -10902605.33246  22273630.1174                   22273631.4304
 -31998423.70748 -24905801.52746  20981210.0864                   20981207.0004
 -11352398.74647  -8589883.76645  22360373.5314                   22360373.0824
 11  8 26  0 57 30.0000000  0  8G10G04G12G29G05G25G02G30
 -25310007.82448 -19695967.66045  21772509.5864                   21772508.9924
 -24323219.32447 -18695477.04344  23589742.9064                   23589743.9774
 -27063576.16848 -21063207.87146  20774396.9384                   20774395.6524
    978978.56347    875605.01644  24369089.0704                   24369089.3714
 -27512602.02348 -21411108.20747  20442128.4924                   20442126.9964
 -14093096.77747 -10973271.94545  22256372.9224                   22256374.2624
 -32003840.90248 -24910022.71546  20980179.4844                   20980175.9264
 -11439914.05947  -8658077.47345  22343719.6414                   22343719.1334
 11  8 26  0 58  0.0000000  0  8G10G04G12G29G05G25G02G30
 -25268676.94548 -19663761.77745  21780374.4774                   21780373.8914
 -24273519.64547 -18656750.05943  23599200.8594                   23599201.5044
 -27090717.82048 -21084357.19546  20769232.2894                   20769230.4734
    866748.79347    788153.33244  24347732.8054                   24347733.0004
 -27576709.45748 -21461062.01247  20429928.8914                   20429927.6604
 -14183308.04348 -11043566.44145  22239206.1174                   22239207.1374
 -32009115.07848 -24914132.45346  20979175.7584                   20979172.4804
 -11526903.09847  -8725861.09845  22327166.2584                   22327165.8444
 11  8 26  0 58 30.0000000  0  8G10G04G12G29G05G25G02G30
 -25226894.49648 -19631204.01645  21788325.2734                   21788325.1334
 -24223857.29346 -18618052.14543  23608650.8524                   23608652.4104
 -27117276.75448 -21105052.46146  20764178.4064                   20764176.8484
    754448.91447    700647.03144  24326362.0394                   24326362.3674
 -27640255.72348 -21510578.53547  20417836.4144                   20417835.2234
 -14273040.98447 -11113488.21146  22222130.4064                   22222131.8054
 -32014248.16848 -24918132.25846  20978199.0864                   20978195.7194
 -11613365.20747  -8793234.14145  22310712.7504                   22310712.4184
 11  8 26  0 59  0.0000000  0  8G10G04G12G29G05G25G02G30
 -25184653.56247 -19598289.00045  21796363.8674                   21796363.3754
 -24174223.42647 -18579376.43743  23618096.0314                   23618096.8834
 -27143243.06248 -21125285.94146  20759236.9064                   20759235.3874
    642089.10547    613094.02744  24304981.3594                   24304981.8444
 -27703230.20348 -21559649.52347  20405852.7894                   20405851.6684
 -14362283.92248 -11183028.14845  22205148.2584                   22205149.4024
 -32019231.51248 -24922015.36746  20977250.8834                   20977247.5004
 -11699288.88747  -8860187.63745  22294362.2424                   22294361.7584
 11  8 26  0 59 30.0000000  0  8G10G04G12G29G05G25G02G30
 -25141971.55948 -19565030.30145  21804485.5554                   21804484.6914
 -24124633.64847 -18540735.07444  23627532.7274                   23627533.5744
 -27168632.25448 -21145069.72346  20754405.9454                   20754404.2114
    529655.16447    525483.24644  24283585.4384                   24283585.7424
 -27765647.10548 -21608286.02747  20393975.2194                   20393974.3794
 -14451049.99248 -11252196.50845  22188256.5394                   22188258.0314
 -32024081.44148 -24925794.51646  20976327.6094                   20976324.4414
 -11784687.50047  -8926731.98845  22278111.7274                   22278110.6094
 11  8 26  1  0  0.0000000  0  8G10G04G12G29G05G25G02G30
 -25098843.18048 -19531423.77745  21812693.0084                   21812691.9654
 -24075080.65647 -18502122.37944  23636962.2814                   23636963.1294
 -27193436.43048 -21164397.64546  20749685.6174                   20749684.0274
    417156.15246    437821.73444  24262177.7504                   24262177.9734
 -27827497.81248 -21656481.34447  20382205.6724                   20382204.5744
 -14539329.07448 -11320985.39546  22171457.4144                   22171458.6174
 -32028790.24648 -24929463.69946  20975431.7034                   20975428.4734
 -11869551.07447  -8992859.42645  22261962.3914                   22261961.3754
 11  8 26  1  0 30.0000000  0  8G10G04G12G29G05G25G02G30
 -25055269.24648 -19497470.06645  21820984.5164                   21820984.1454
 -24025563.27347 -18463537.45343  23646384.8204                   23646386.4884
 -27217653.56248 -21183268.12946  20745077.2344                   20745075.3714
    304594.84047    350111.71944  24240757.5784                   24240757.8954
 -27888779.38748 -21704233.18047  20370543.8674                   20370542.9844
 -14627117.24648 -11389391.74645  22154752.0164                   22154753.0394
 -32033357.19948 -24933022.34446  20974562.7814                   20974559.4884
 -11953875.85247  -9058567.02745  22245915.7274                   22245915.3204
 11  8 26  1  1  0.0000000  0  8G10G04G12G29G05G25G02G30
 -25011254.44547 -19463172.82845  21829360.5164                   21829359.8204
 -23976083.84847 -18424982.09844  23655800.6334                   23655801.5824
 -27241285.65648 -21201682.73846  20740580.0784                   20740578.7584
    191970.05946    262352.22343  24219326.1094                   24219326.2274
 -27949493.21948 -21751542.62147  20358990.4304                   20358989.4964
 -14714414.51247 -11457415.56645  22138139.7114                   22138141.1914
 -32037785.08248 -24936472.62946  20973720.0944                   20973716.5944
 -12037661.99247  -9123854.91445  22229971.5704                   22229971.4734
 11  8 26  1  1 30.0000000  0  8G10G04G12G29G05G25G02G30
 -24966798.64547 -19428531.94145  21837820.1024                   21837819.1134
 -23926640.69147 -18386454.98443  23665209.9534                   23665210.5744
 -27264331.34048 -21219640.41446  20736194.5004                   20736192.9844
     79285.13747    174545.87543  24197882.3594                   24197882.4534
 -28009635.99248 -21798407.07847  20347545.6254                   20347544.4414
 -14801216.39147 -11525053.35945  22121621.6254                   22121623.5274
 -32042072.20348 -24939813.22746  20972904.5634                   20972900.9024
 -12120905.30547  -9188719.81245  22214131.2344                   22214130.8324
 11  8 26  1  2  0.0000000  0  8G10G04G12G29G05G25G02G30
 -24921912.80148 -19393555.96945  21846361.9144                   21846361.1524
 -23877242.52047 -18347962.95344  23674610.0314                   23674610.8954
 -27286798.49648 -21237147.28546  20731918.9454                   20731917.7814
    -33467.30946     86686.89143  24176426.7664                   24176426.5904
 -28069215.11348 -21844832.33247  20336207.8284                   20336206.7074
 -14887529.15647 -11592310.02345  22105197.0944                   22105198.3554
 -32046227.48048 -24943051.08246  20972113.6414                   20972110.0124
 -12203612.14547  -9253166.68045  22198392.6954                   22198391.7274
 11  8 26  1  2 30.0000000  0  8G10G04G12G29G05G25G02G30
 -24876592.35548 -19358241.35245  21854986.0004                   21854985.1484
 -23827882.83247 -18309500.90644  23684002.7194                   23684004.0044
 -27308680.04348 -21254197.84446  20727755.2734                   20727753.4804
   -146279.37546     -1218.52343  24154958.8444                   24154958.9924
 -28128222.82048 -21890812.32847  20324979.1414                   20324978.1024
 -14973343.69948 -11659178.45745  22088867.0864                   22088868.3204
 -32050244.91448 -24946181.53546  20971348.8914                   20971345.5434
 -12285773.60947  -9317188.58245  22182757.6254                   22182757.2894
 11  8 26  1  3  0.0000000  0  8G10G04G12G29G05G25G02G30
 -24830845.56648 -19322594.51245  21863691.4384                   21863690.5164
 -23778567.56247 -18271073.46544  23693387.7894                   23693388.0084
 -27329981.74248 -21270796.57046  20723701.8444                   20723700.4064
   -259155.19546    -89173.61743  24133479.7584                   24133478.8404
 -28186663.54348 -21936350.50847  20313858.4144                   20313857.2384
 -15058663.41847 -11725661.30945  22072631.2814                   22072632.7934
 -32054130.53948 -24949209.27046  20970609.7034                   20970606.1994
 -12367393.38347  -9380788.36345  22167225.9844                   22167225.3634
 11  8 26  1  3 30.0000000  0  8G10G04G12G29G05G25G02G30
 -24784666.53548 -19286610.86745  21872478.9924                   21872478.3484
 -23729288.82047 -18232674.48844  23702764.5864                   23702765.5904
 -27350695.52348 -21286937.18046  20719760.0864                   20719758.7734
   -372086.13746   -177171.65243  24111989.4694                   24111988.8554
 -28244528.10948 -21981439.75047  20302846.8674                   20302845.6134
 -15143478.08248 -11791750.60945  22056491.6644                   22056493.1414
 -32057876.95348 -24952128.53946  20969896.4774                   20969892.9264
 -12448461.36747  -9443958.20345  22151799.2814                   22151798.4344
 11  8 26  1  4  0.0000000  0  8G10G04G12G29G05G25G02G30
 -24738062.75847 -19250296.24245  21881347.5634                   21881346.7504
 -23680052.06247 -18194308.20344  23712134.2114                   23712134.9064
 -27370826.32448 -21302623.52346  20715929.5704                   20715927.5084
   -485075.30146   -265215.06243  24090487.6724                   24090487.7704
 -28301821.35948 -22026083.81247  20291944.3134                   20291942.9454
 -15227790.64148 -11857448.66046  22040447.3674                   22040448.7274
 -32061489.32448 -24954943.35546  20969209.4614                   20969205.3754
 -12528980.73447  -9506700.53545  22136476.6254                   22136475.8444
 11  8 26  1  4 30.0000000  0  8G10G04G12G29G05G25G02G30
 -24691038.32047 -19213653.84045  21890295.8284                   21890295.1764
 -23630859.50047 -18155976.36744  23721495.1724                   23721495.7584
 -27390376.54748 -21317857.46546  20712209.0704                   20712207.4574
   -598123.67646   -353304.64143  24068975.0944                   24068975.5664
 -28358543.85948 -22070283.12547  20281150.5554                   20281149.3834
 -15311600.69148 -11922755.13746  22024498.8364                   22024499.9304
 -32064970.55548 -24957655.98846  20968546.8594                   20968543.0864
 -12608951.37147  -9569015.29345  22121259.3054                   22121258.4184
 11  8 26  1  5  0.0000000  0  8G10G04G12G29G05G25G02G30
 -24643598.57447 -19176687.82445  21899323.1954                   21899322.4534
 -23581713.97747 -18117681.17644  23730847.5234                   23730848.9184
 -27409349.14848 -21332641.32046  20708598.9694                   20708597.1254
   -711233.04346   -441441.71543  24047451.1094                   24047452.2194
 -28414697.50448 -22114039.18747  20270464.6024                   20270463.2974
 -15394909.03148 -11987670.67246  22008645.7344                   22008647.0314
 -32068323.55548 -24960268.69546  20967908.7034                   20967904.9734
 -12688374.16447  -9630903.16045  22106145.7504                   22106144.6604
 11  8 26  1  5 30.0000000  0  8G10G04G12G29G05G25G02G30
 -24595742.38747 -19139397.29745  21908429.8054                   21908429.5704
 -23532612.34447 -18079420.20744  23740190.4774                   23740191.8674
 -27427739.94948 -21346971.82046  20705098.8914                   20705097.1644
   -824398.57446   -529622.56244  24025916.7664                   24025916.8444
 -28470278.07448 -22157348.68447  20259888.1724                   20259886.6604
 -15477709.89548 -12052190.77746  21992889.4384                   21992890.6294
 -32071545.57848 -24962779.34046  20967295.5314                   20967292.1484
 -12767243.69147  -9692359.91045  22091136.9694                   22091136.2114
 11  8 26  1  6  0.0000000  0  8G10G04G12G29G05G25G02G30
 -24547473.59047 -19101785.25845  21917615.3984                   21917614.9774
 -23483555.83247 -18041194.38743  23749526.0394                   23749526.8874
 -27445550.80948 -21360850.42646  20701709.6724                   20701707.8914
   -937620.00046   -617846.98044  24004371.2274                   24004371.0274
 -28525285.72348 -22200211.75047  20249420.6884                   20249419.1564
 -15560002.41048 -12116314.78146  21977229.5234                   21977230.6844
 -32074638.23048 -24965189.19146  20966707.2974                   20966703.5394
 -12845559.14147  -9753384.91845  22076233.4534                   22076233.4694
 11  8 26  1  6 30.0000000  0  8G10G04G12G29G05G25G02G30
 -24498789.56647 -19063849.67645  21926879.6254                   21926878.9414
 -23434540.41847 -18003000.59843  23758853.6094                   23758854.0904
 -27462777.77048 -21374274.04346  20698431.5004                   20698430.1174
  -1050891.99246   -706110.79344  23982816.5394                   23982816.0314
 -28579715.14848 -22242624.26247  20239063.0784                   20239061.5984
 -15641779.91048 -12180037.47346  21961667.7274                   21961669.0004
 -32077597.45748 -24967495.07446  20966143.7734                   20966140.3164
 -12923314.22747  -9813973.26245  22061437.7894                   22061437.2704
 11  8 26  1  7  0.0000000  0  8G10G04G12G29G05G25G02G30
 -24449703.43747 -19025600.75445  21936220.6644                   21936220.0434
 -23385576.36747 -17964846.82443  23768170.4224                   23768172.2074
 -27479430.60948 -21387250.28546  20695262.4534                   20695261.0744
  -1164223.26646   -794420.80944  23961250.0474                   23961250.6564
 -28633575.92248 -22284593.65647  20228813.3984                   20228812.3954
 -15723050.63348 -12243365.27346  21946202.4614                   21946203.3524
 -32080434.07848 -24969705.41846  20965603.8754                   20965600.4654
 -13000517.33247  -9874131.48445  22046746.4224                   22046746.4144
 11  8 26  1  7 30.0000000  0  8G10G04G12G29G05G25G02G30
 -24400215.79347 -18987038.96145  21945637.5554                   21945636.9384
 -23336662.52046 -17926732.11343  23777479.4614                   23777479.6454
 -27495508.44148 -21399778.47746  20692202.9224                   20692201.6764
  -1277610.69547   -882774.60544  23939673.6564                   23939673.6914
 -28686865.46548 -22326117.93747  20218672.8674                   20218671.3634
 -15803810.83648 -12306295.27046  21930834.2974                   21930835.5044
 -32083146.84848 -24971819.24646  20965088.0314                   20965084.4734
 -13077164.97747  -9933856.88745  22032160.7274                   22032159.9224
 11  8 26  1  8  0.0000000  0  8G10G04G12G29G05G25G02G30
 -24350320.59448 -18948159.59845  21955132.4774                   21955131.5084
 -23287790.26246 -17888649.87943  23786778.8364                   23786779.9384
 -27511002.52348 -21411851.78946  20689254.6954                   20689253.3674
  -1391044.64847   -971164.67244  23918088.1724                   23918087.3634
 -28739574.79748 -22367190.12147  20208642.7344                   20208640.9734
 -15884049.94148 -12368819.21546  21915565.0944                   21915566.2384
 -32085727.69548 -24973830.28946  20964596.9064                   20964593.6564
 -13153246.82447  -9993141.41445  22017683.0474                   22017682.2624
 11  8 26  1  8 30.0000000  0  8G10G04G12G29G05G25G02G30
 -24300026.24647 -18908969.19945  21964702.8984                   21964702.2894
 -23238965.43446 -17850604.54743  23796070.5394                   23796070.8524
 -27525918.40648 -21423474.57046  20686416.3204                   20686414.6804
  -1504529.42247  -1059594.31644  23896491.8984                   23896492.1764
 -28791708.42648 -22407813.68747  20198721.8754                   20198720.4884
 -15963771.54348 -12430939.91046  21900394.7974                   21900395.8094
 -32088182.61748 -24975743.20746  20964129.4454                   20964126.0824
 -13228766.73447 -10051988.05545  22003312.0864                   22003311.3834
 11  8 26  1  9  0.0000000  0  8G10G04G12G29G05G25G02G30
 -24249339.97747 -18869473.42645  21974348.1484                   21974347.5904
 -23190193.67646 -17812600.64143  23805350.8054                   23805351.9064
 -27540262.65248 -21434651.91446  20683686.3754                   20683685.3284
  -1618069.05147  -1148066.71944  23874886.1414                   23874886.4574
 -28843271.39848 -22447992.59447  20188909.7664                   20188908.6764
 -16042979.02048 -12492659.99246  21885321.8674                   21885323.0824
 -32090517.55948 -24977562.63346  20963685.1414                   20963681.9264
 -13303728.33647 -10110399.66045  21989047.0944                   21989046.3554
 11  8 26  1  9 30.0000000  0  8G10G04G12G29G05G25G02G30
 -24198261.45347 -18829671.99245  21984068.1414                   21984067.1374
 -23141472.11346 -17774635.75843  23814622.8204                   23814623.1094
 -27554032.23048 -21445381.46946  20681066.4534                   20681065.1094
  -1731658.94947  -1236578.28944  23853270.2114                   23853270.6724
 -28894259.96148 -22487723.90647  20179207.0634                   20179205.4494
 -16121667.36748 -12553975.56646  21870347.9144                   21870349.3954
 -32092729.91048 -24979286.53946  20963264.1564                   20963261.0904
 -13378126.85547 -10168372.49645  21974889.8754                   21974889.0824
 11  8 26  1 10  0.0000000  0  8G10G04G12G29G05G25G02G30
 -24146784.26647 -18789559.90245  21993864.1564                   21993863.6054
 -23092791.98446 -17736703.22343  23823886.0864                   23823886.8364
 -27567218.02348 -21455656.11746  20678557.5004                   20678555.7464
  -1845289.05947  -1325121.20744  23831647.5474                   23831647.6334
 -28944664.50048 -22527000.14147  20169615.1804                   20169613.6844
 -16199825.68748 -12614878.14146  21855475.0234                   21855476.0474
 -32094811.29348 -24980908.39846  20962868.5704                   20962864.8954
 -13451951.66847 -10225898.29345  21960841.0474                   21960840.5124
 11  8 26  1 10 30.0000000  0  8G10G04G12G29G05G25G02G30
 -22519502.43447 -17521548.10245  22303525.3204                   22303524.4844
 -21468744.55146 -16471211.75443  24132932.1804                   24132932.9414
 -26004410.40248 -20237883.94546  20975949.6724                   20975948.2154
   -383544.21947   -186099.24244  24109807.8984                   24109808.1644
 -27419072.21148 -21338226.89547  20459926.0634                   20459924.3484
 -14702039.07848 -11447771.67646  22140494.4694                   22140495.2544
 -30521351.28148 -23754835.66846  21262288.0164                   21262284.2034
 -11949788.28548  -9055381.33645  22246692.9454                   22246692.8674
 11  8 26  1 11  0.0000000  0  8G10G04G12G29G05G25G02G30
 -22467253.48447 -17480834.65645  22313468.1174                   22313467.2384
 -21420165.75446 -16433358.16843  24142176.0084                   24142177.6644
 -26016449.29348 -20247264.90246  20973658.7194                   20973657.0314
   -497269.38347   -274716.22344  24088167.2114                   24088167.0354
 -27468324.87148 -21376605.55547  20450553.5234                   20450551.8444
 -14779149.68748 -11507857.84846  22125820.5554                   22125821.3134
 -30523189.87148 -23756268.34046  21261937.7814                   21261934.3554
 -12022478.83248  -9112023.29745  22232860.7424                   22232860.1724
 11  8 26  1 11 30.0000000  0  8G10G04G12G29G05G25G02G30
 -22414624.65247 -17439825.19945  22323483.0084                   22323482.3874
 -21371640.11347 -16395546.02043  24151410.5314                   24151411.5514
 -26027917.44948 -20256201.12946  20971476.4924                   20971474.7664
   -611042.24247   -363370.38744  24066516.9454                   24066516.6684
 -27517003.25448 -21414536.72347  20441290.2584                   20441288.4774
 -14855735.74248 -11567535.27046  22111246.7424                   22111247.8094
 -30524909.74248 -23757608.50446  21261610.4534                   21261606.8524
 -12094601.89848  -9168223.06245  22219136.2664                   22219135.7624
 11  8 26  1 12  0.0000000  0  8G10G04G12G29G05G25G02G30
 -22361613.45747 -17398517.79345  22333570.6024                   22333569.8444
 -21323162.58246 -16357771.32843  24160635.6884                   24160636.9144
 -26038810.30548 -20264689.07446  20969403.5234                   20969401.6844
   -724856.08647   -452056.46544  24044858.6414                   24044858.5084
 -27565101.65648 -21452015.96947  20432137.2814                   20432135.4414
 -14931790.39848 -11626798.61746  22096773.9534                   22096775.1454
 -30526506.63748 -23758852.83246  21261307.1484                   21261303.3714
 -12166150.96947  -9223975.57445  22205520.7034                   22205520.0164
 11  8 26  1 12 30.0000000  0  8G10G04G12G29G05G25G02G30
 -22308223.77747 -17356915.46545  22343730.5084                   22343729.8954
 -21274735.08646 -16320035.63743  24169851.1334                   24169851.9774
 -26049129.90248 -20272730.32846  20967439.7034                   20967438.2894
   -838711.46147   -540774.92244  24023192.1954                   24023192.8674
 -27612621.10948 -21489044.08247  20423094.4694                   20423092.8754
 -15007313.44548 -11685647.72346  22082402.6254                   22082403.3834
 -30527982.58248 -23760002.92246  21261025.6484                   21261022.0984
 -12237126.10547  -9279280.84845  22192014.6804                   22192014.1374
 11  8 26  1 13  0.0000000  0  8G10G04G12G29G05G25G02G30
 -22254462.68447 -17315023.72345  22353960.1804                   22353959.9654
 -21226361.95046 -16282342.32343  24179056.1804                   24179057.5744
 -26058880.85948 -20280328.48446  20965584.4454                   20965583.0634
   -952611.12147   -629527.86744  24001518.2894                   24001518.0944
 -27659565.50448 -21525624.09847  20414161.3284                   20414159.8244
 -15082307.35948 -11744084.51646  22068131.7274                   22068132.4964
 -30529342.23848 -23761062.39846  21260767.3524                   21260763.9844
 -12307530.07847  -9334141.07845  22178617.3444                   22178616.6054
 11  8 26  1 13 30.0000000  0  8G10G04G12G29G05G25G02G30
 -22200329.19947 -17272841.81245  22364262.3364                   22364261.6414
 -21178040.02046 -16244688.90643  24188251.4924                   24188252.6914
 -26068060.77048 -20287481.66446  20963837.2344                   20963835.9574
  -1066550.39847   -718311.67644  23979835.8984                   23979836.8054
 -27705930.99248 -21561753.02047  20405338.3134                   20405336.9924
 -15156766.98848 -11802104.98446  22053962.4144                   22053963.5514
 -30530582.58648 -23762028.91046  21260530.8364                   21260527.8594
 -12377357.97747  -9388552.41445  22165329.5864                   22165328.6884
 11  8 26  1 14  0.0000000  0  8G10G04G12G29G05G25G02G30
 -22145823.07847 -17230369.54345  22374634.1564                   22374633.5434
 -21129766.70746 -16207073.39543  24197438.1024                   24197438.9574
 -26076667.39548 -20294188.13346  20962199.4224                   20962197.8324
  -1180525.42247   -807123.30143  23958147.6024                   23958147.4534
 -27751714.54748 -21597428.48847  20396625.7814                   20396624.3244
 -15230687.84448 -11859705.63346  22039896.0234                   22039896.6454
 -30531701.28148 -23762900.63746  21260318.2344                   21260314.9304
 -12446605.59047  -9442511.57845  22152151.8914                   22152151.4844
 11  8 26  1 14 30.0000000  0  8G10G04G12G29G05G25G02G30
 -22090947.90247 -17187609.69945  22385077.1414                   22385076.9774
 -21081542.91846 -16169496.45744  24206614.3204                   24206615.0864
 -26084701.83648 -20300448.74246  20960670.6024                   20960669.0824
  -1294535.22747   -895962.04344  23936451.5784                   23936451.7734
 -27796916.78548 -21632650.98047  20388024.1414                   20388022.5394
 -15304068.99248 -11916885.73046  22025931.7424                   22025932.5664
 -30532699.77348 -23763678.68446  21260128.1804                   21260124.7894
 -12515272.32047  -9496018.11345  22139085.0004                   22139084.4734
 11  8 26  1 15  0.0000000  0  8G10G04G12G29G05G25G02G30
 -22035712.34847 -17144569.03145  22395587.5944                   22395587.2154
 -21033374.87946 -16131962.94943  24215780.7734                   24215781.5004
 -26092171.32848 -20306269.12946  20959249.2814                   20959247.6954
  -1408584.72747   -984831.69943  23914748.8984                   23914749.1024
 -27841543.53148 -21667425.03947  20379532.0554                   20379530.5354
 -15376914.81648 -11973648.69146  22012069.7424                   22012070.9494
 -30533584.14548 -23764367.80946  21259959.9384                   21259956.4654
 -12583362.78947  -9549075.61745  22126127.7664                   22126127.2194
 11  8 26  1 15 30.0000000  0  8G10G04G12G29G05G25G02G30
 -21980119.99247 -17101250.35245  22406166.6884                   22406166.0594
 -20985264.19946 -16094474.15243  24224935.9304                   24224936.5314
 -26099078.02348 -20311650.97746  20957934.7734                   20957933.9024
  -1522674.21147  -1073732.49244  23893038.2974                   23893038.6884
 -27885595.77348 -21701751.42647  20371149.0084                   20371147.6094
 -15449225.18048 -12029994.40246  21998309.5164                   21998310.5354
 -30534356.94148 -23764969.99246  21259812.5084                   21259809.5744
 -12650877.22347  -9601684.25445  22113280.2344                   22113279.8324
 11  8 26  1 16  0.0000000  0  8G10G04G12G29G05G25G02G30
 -21924173.33247 -17057655.56645  22416813.0784                   22416812.3714
 -20937210.64847 -16057029.86343  24234079.9924                   24234081.6254
 -26105421.99248 -20316594.34046  20956727.6094                   20956726.5124
  -1636801.68047  -1162662.87544  23871320.4224                   23871320.4574
 -27929072.82848 -21735629.61747  20362875.7734                   20362874.3484
 -15520997.98448 -12085921.23046  21984651.5554                   21984652.3364
 -30535017.79748 -23765484.94546  21259687.6334                   21259683.5784
 -12717813.68047  -9653842.50445  22100542.7344                   22100542.2194
 11  8 26  1 16 30.0000000  0  8G10G04G12G29G05G25G02G30
 -21867871.22747 -17013783.82045  22427526.6094                   22427526.3524
 -20889210.31246 -16019627.03143  24243214.5004                   24243215.5634
 -26111200.46548 -20321097.05146  20955628.2194                   20955627.1054
  -1750962.11747  -1251618.92644  23849596.2584                   23849596.4964
 -27971970.53148 -21769056.37147  20354712.3754                   20354710.7034
 -15592227.69548 -12141424.87146  21971097.0554                   21971097.5784
 -30535563.24648 -23765909.97746  21259583.4064                   21259580.0434
 -12784167.06247  -9705546.41045  22087916.4144                   22087915.4144
 11  8 26  1 17  0.0000000  0  9G10G04G12G26G29G05G25G02G30
 -21811217.04347 -16969637.72345  22438308.3284                   22438307.5164
 -20841264.20346 -15982266.48843  24252337.2114                   24252339.1254
 -26116414.66048 -20325160.06646  20954635.8134                   20954634.7544
   4545090.17655   3579658.69552  24912615.6254                   24912620.6644
  -1865154.62947  -1340599.99244  23827866.1414                   23827865.8404
 -28014289.69948 -21802032.32047  20346659.5394                   20346657.7234
 -15662913.53148 -12196504.73046  21957645.6254                   21957646.9184
 -30535994.49248 -23766246.01646  21259501.2814                   21259497.9024
 -12849936.86747  -9756795.57845  22075400.4304                   22075399.9804
 11  8 26  1 17 30.0000000  0  9G10G04G12G26G29G05G25G02G30
 -21754222.61347 -16925226.50845  22449153.5634                   22449152.8164
 -20793381.51646 -15944955.33243  24261450.0084                   24261451.3014
 -26121074.52748 -20328791.14546  20953749.5784                   20953747.4304
   4422868.32845   3484421.10942  24889358.0004                   24889362.6644
  -1979386.88347  -1429612.03544  23806128.9304                   23806128.3094
 -28056039.22348 -21834564.38347  20338714.6024                   20338712.8834
 -15733063.05948 -12251166.66846  21944296.7974                   21944298.0204
 -30536321.54748 -23766500.87146  21259439.2504                   21259435.4224
 -12915130.93447  -9807596.10945  22062994.8674                   22062993.8794
 11  8 26  1 18  0.0000000  0  9G10G04G12G26G29G05G25G02G30
 -21696884.33647 -16880547.33645  22460064.8914                   22460064.4924
 -20745556.02046 -15907688.75443  24270551.2424                   24270552.1564
 -26125174.72748 -20331986.10546  20952968.6724                   20952967.3524
   4300504.20745   3389072.78942  24866072.4534                   24866077.9574
  -2093651.63747  -1518649.39844  23784384.8594                   23784384.6684
 -28097212.65248 -21866647.54747  20330879.4064                   20330877.9304
 -15802668.50848 -12305404.66046  21931050.9694                   21931052.3134
 -30536537.87548 -23766669.43746  21259397.8594                   21259394.1844
 -12979741.81647  -9857942.21545  22050699.5164                   22050698.2624
 11  8 26  1 18 30.0000000  0  9G10G04G12G26G29G05G25G02G30
 -21639206.41847 -16835603.53945  22471040.3284                   22471039.9804
 -20697789.56246 -15870468.16043  24279640.2734                   24279642.0784
 -26128717.35248 -20334746.60546  20952294.8674                   20952293.4024
   4177999.04345   3293614.47743  24842760.0634                   24842764.5274
  -2207949.14547  -1607712.28544  23762635.0704                   23762634.6094
 -28137811.52048 -21898283.00047  20323154.0554                   20323152.4344
 -15871729.97348 -12359218.75846  21917909.0004                   21917909.6644
 -30536645.83648 -23766753.56646  21259377.2894                   21259373.7624
 -13043769.99247  -9907834.25845  22038515.3364                   22038514.5274
 11  8 26  1 19  0.0000000  0  9G10G04G12G26G29G05G25G02G30
 -21581191.15247 -16790396.85244  22482080.4064                   22482079.9384
 -20650082.20746 -15833293.62543  24288718.4924                   24288720.2154
 -26131704.06248 -20337073.91846  20951726.5084                   20951725.1884
   4055355.95346   3198048.74643  24819421.6644                   24819425.8054
  -2322277.38747  -1696799.12144  23740878.0784                   23740878.1174
 -28177835.77348 -21929470.70347  20315537.4614                   20315535.9924
 -15940245.89848 -12412607.77046  21904870.8054                   21904871.9144
 -30536645.73047 -23766753.48446  21259377.7504                   21259374.1724
 -13107214.23847  -9957271.29745  22026442.1884                   22026441.5274
 11  8 26  1 19 30.0000000  0  9G10G04G12G26G29G05G25G02G30
 -21522845.04747 -16744932.37945  22493183.4694                   22493182.6914
 -20602437.55546 -15796167.96143  24297785.3054                   24297787.1294
 -26134139.23448 -20338971.46946  20951263.1094                   20951261.2544
   3932574.42646   3102375.07443  24796057.5944                   24796060.7544
  -2436638.75447  -1785911.78144  23719116.2664                   23719116.1294
 -28217288.97348 -21960213.43447  20308029.7274                   20308028.1684
 -16008218.46948 -12465573.39146  21891936.4144                   21891937.0704
 -30536541.65648 -23766672.38346  21259396.9534                   21259393.6094
 -13170076.93047 -10006255.18445  22014479.9304                   22014479.2934
 11  8 26  1 20  0.0000000  0  9G10G04G12G26G29G05G25G02G30
 -21464168.54747 -16699210.46144  22504349.4454                   22504348.4264
 -20554854.02346 -15759089.89843  24306840.1254                   24306841.4344
 -26136021.68048 -20340438.31246  20950904.7584                   20950903.4804
   3809659.39846   3006597.39143  24772667.2114                   24772670.5354
  -2551030.20747  -1875047.87544  23697348.6484                   23697347.8054
 -28256168.93448 -21990509.48047  20300631.0864                   20300629.2304
 -16075644.27748 -12518112.96946  21879105.5234                   21879106.6884
 -30536332.16848 -23766509.15246  21259437.0084                   21259433.5394
 -13232355.12947 -10054783.61345  22002628.6564                   22002628.1994
 11  8 26  1 20 30.0000000  0  9G10G04G12G26G29G05G25G02G30
 -21405161.77747 -16653231.17644  22515578.3834                   22515577.6644
 -20507328.61346 -15722057.16443  24315883.8054                   24315885.4924
 -26137349.91448 -20341473.30146  20950652.2344                   20950650.6254
   3686616.75046   2910720.27043  24749252.8594                   24749256.1914
  -2665447.41447  -1964204.05944  23675575.1094                   23675574.7704
 -28294473.32848 -22020357.03947  20293342.1954                   20293340.5744
 -16142519.35548 -12570223.42246  21866379.3674                   21866380.9924
 -30536014.87148 -23766261.90246  21259497.5784                   21259494.1764
 -13294045.12947 -10102853.72345  21990889.6024                   21990888.3094
 11  8 26  1 21  0.0000000  0  9G10G04G12G26G29G05G25G02G30
 -21345834.98047 -16607002.52745  22526867.1804                   22526866.6174
 -20459869.33246 -15685075.89143  24324914.7894                   24324916.1214
 -26138132.38348 -20342083.02346  20950502.9844                   20950501.8754
   3563441.87946   2814740.13343  24725813.4144                   24725816.2544
  -2779896.38747  -2053384.98844  23653796.3444                   23653795.4534
 -28332209.54348 -22049761.85247  20286160.8284                   20286159.2234
 -16208849.70748 -12621909.40646  21853757.4694                   21853758.3204
 -30535597.54348 -23765936.69546  21259576.8054                   21259573.4264
 -13355153.23447 -10150470.40645  21979261.0784                   21979260.0704
 11  8 26  1 21 30.0000000  0  9G10G04G12G26G29G05G25G02G30
 -21286179.75447 -16560517.96145  22538219.3284                   22538219.0474
 -20412464.97746 -15648137.44543  24333935.6024                   24333936.5394
 -26138358.92248 -20342259.56246  20950460.3834                   20950458.5084
   3440149.17246   2718668.16043  24702351.2194                   24702354.3324
  -2894364.72347  -2142581.02344  23632013.3444                   23632013.1414
 -28369366.48048 -22078715.28547  20279090.5234                   20279088.5634
 -16274622.95348 -12673161.30146  21841241.1094                   21841242.5164
 -30535069.72348 -23765525.41046  21259677.3834                   21259674.1844
 -13415667.44147 -10197624.31245  21967745.8364                   21967744.8954
 11  8 26  1 22  0.0000000  0  9G10G04G12G26G29G05G25G02G30
 -21226201.17247 -16513781.43445  22549633.4534                   22549632.3594
 -20365117.84446 -15611243.59843  24342945.3984                   24342947.6604
 -26138032.68048 -20342005.35546  20950522.1804                   20950521.1884
   3316739.36346   2622504.96143  24678866.9224                   24678869.5944
  -3008853.10547  -2231792.68045  23610226.6954                   23610226.5744
 -28405946.69948 -22107219.32047  20272129.2424                   20272128.0164
 -16339839.96948 -12723979.76246  21828831.0084                   21828832.4264
 -30534434.00848 -23765030.04746  21259798.2894                   21259794.8794
 -13475589.05948 -10244316.46945  21956342.4534                   21956341.8714
 11  8 26  1 22 30.0000000  0  9G10G04G12G26G29G05G25G02G30
 -21165903.62147 -16466796.35245  22561107.4304                   22561107.0824
 -20317829.60246 -15574395.64543  24351944.9614                   24351945.3364
 -26137156.51648 -20341322.64846  20950688.9144                   20950687.3794
   3193213.79346   2526251.54743  24655360.6334                   24655363.6724
  -3123361.75047  -2321020.12944  23588437.0554                   23588436.6524
 -28441951.92248 -22135275.31647  20265277.6804                   20265276.0744
 -16404501.19948 -12774365.14846  21816526.2584                   21816527.6024
 -30533692.49248 -23764452.22746  21259939.3054                   21259936.0704
 -13534918.81647 -10290547.44545  21945052.6884                   21945051.4734
 11  8 26  1 23  0.0000000  0  9G10G04G12G26G29G05G25G02G30
 -21105290.63747 -16419565.48045  22572641.5004                   22572641.1804
 -20270601.76646 -15537594.70742  24360931.3054                   24360932.3364
 -26135733.18048 -20340213.56646  20950960.2584                   20950958.3914
   3069574.49646   2429909.52343  24631832.2814                   24631835.6334
  -3237890.73447  -2410263.44144  23566642.4534                   23566642.0314
 -28477383.39548 -22162884.23447  20258535.3364                   20258534.1804
 -16468606.46148 -12824317.32446  21804327.2664                   21804328.5784
 -30532846.85948 -23763793.28146  21260100.2734                   21260096.8054
 -13593656.86347 -10336317.35545  21933875.1254                   21933873.6954
 11  8 26  1 23 30.0000000  0  9G10G04G12G26G29G05G25G02G30
 -21044365.63347 -16372091.48045  22584235.1414                   22584234.6844
 -20223434.69546 -15500841.17643  24369907.4144                   24369908.7774
 -26133764.27048 -20338679.36346  20951334.7664                   20951332.8954
   2945823.93046   2333480.78943  24608283.4224                   24608286.3554
  -3352438.87147  -2499521.68044  23544845.0394                   23544844.1724
 -28512242.12548 -22190046.85247  20251901.7504                   20251900.0824
 -16532155.20748 -12873835.84046  21792234.1024                   21792235.7234
 -30531897.82048 -23763053.76646  21260280.7974                   21260277.4344
 -13651802.93447 -10381625.97745  21922810.2034                   21922808.8524
 11  8 26  1 24  0.0000000  0  9G10G04G12G26G29G05G25G02G30
 -20983131.19947 -16324376.35944  22595887.8204                   22595887.0744
 -20176328.50446 -15464135.02343  24378870.9304                   24378872.7384
 -26131250.53148 -20336720.61346  20951812.9224                   20951811.1054
   2821965.34046   2236967.84443  24584713.0314                   24584716.0044
  -3467004.73047  -2588793.73844  23523043.2424                   23523043.1174
 -28546528.07448 -22216763.15247  20245377.9224                   20245375.9264
 -16595145.99248 -12922919.59846  21780247.6094                   21780248.8484
 -30530845.50848 -23762233.77346  21260481.3524                   21260477.4734
 -13709356.00847 -10426472.54745  21911858.3834                   21911857.1524
 11  8 26  1 24 30.0000000  0  9G10G04G12G26G29G05G25G02G30
 -20921587.37147 -16276420.14144  22607599.3524                   22607598.8874
 -20129280.42647 -15427474.16043  24387824.9304                   24387825.0634
 -26128190.60948 -20334336.25846  20952395.2504                   20952393.5164
   2698004.58246   2140375.34043  24561124.6024                   24561127.4344
  -3581583.69147  -2678076.00444  23501240.4454                   23501239.2544
 -28580238.68448 -22243031.12947  20238962.3364                   20238960.4144
 -16657574.90648 -12971565.51246  21768367.7734                   21768369.3794
 -30529687.70347 -23761331.57446  21260701.1414                   21260697.8204
 -13766312.59047 -10470854.30145  21901019.4224                   21901018.7974
 11  8 26  1 25  0.0000000  0  9G10G04G12G26G29G05G25G02G30
 -20859740.37947 -16228227.69944  22619368.2734                   22619367.5314
 -20082294.32447 -15390861.60243  24396765.4694                   24396766.2974
 -26124589.24648 -20331530.02046  20953080.2114                   20953079.1134
   2573941.10546   2043702.76243  24537515.8054                   24537518.1454
  -3696178.39847  -2767370.52744  23479433.1484                   23479432.6604
 -28613377.84448 -22268853.82047  20232656.1094                   20232654.4694
 -16719444.48448 -13019775.58246  21756594.3284                   21756595.4104
 -30528428.56647 -23760350.41846  21260941.1644                   21260937.6524
 -13822675.54347 -10514773.50845  21890294.3284                   21890292.8244
 11  8 26  1 25 30.0000000  0  9G10G04G12G26G29G05G25G02G30
 -20797597.49647 -16179804.70744  22631193.5474                   22631193.0594
 -20035374.50447 -15354300.70343  24405694.0314                   24405695.3954
 -26120452.64848 -20328306.71546  20953867.6804                   20953866.3674
   2449773.56346   1946949.07043  24513887.1484                   24513889.4064
  -3810791.48847  -2856679.37944  23457623.4224                   23457622.3984
 -28645950.57048 -22294235.14147  20226458.1024                   20226456.2234
 -16780758.16848 -13067552.48446  21744926.7504                   21744928.2384
 -30527072.84047 -23759294.00046  21261199.0004                   21261195.4964
 -13878448.62548 -10558233.06245  21879681.0394                   21879680.1094
 11  8 26  1 26  0.0000000  0  9G10G04G12G26G29G05G25G02G30
 -20735155.24647 -16131148.42244  22643076.4844                   22643075.2814
 -19988515.14147 -15317786.89143  24414611.1724                   24414611.8554
 -26115775.78148 -20324662.41046  20954757.8524                   20954756.2274
   2325511.23845   1850121.55142  24490240.9774                   24490242.9304
  -3925415.50447  -2945996.75444  23435811.4774                   23435810.0514
 -28677950.70748 -22319170.28547  20220368.6724                   20220366.8484
 -16841508.54348 -13114890.44146  21733366.6724                   21733367.8164
 -30525614.87547 -23758157.91846  21261476.4384                   21261472.6994
 -13933624.85948 -10601227.53945  21869181.6644                   21869180.6294
 11  8 26  1 26 30.0000000  0  9G10G04G12G26G29G05G25G02G30
 -20672412.63347 -16082258.08244  22655015.4144                   22655014.7114
 -19941712.55547 -15281317.34043  24423517.5084                   24423518.3914
 -26110556.11748 -20320595.14546  20955750.9454                   20955749.6994
   2201161.06646   1753225.56342  24466577.2194                   24466579.5004
  -4040045.30547  -3035318.65244  23413997.3284                   23413996.9224
 -28709375.30948 -22343656.95747  20214388.7814                   20214386.7934
 -16901690.87148 -13161785.75446  21721914.4384                   21721915.1954
 -30524051.27347 -23756939.51246  21261773.3594                   21261770.4344
 -13988199.86348 -10643753.52745  21858796.3054                   21858795.4534
 11  8 26  1 27  0.0000000  0  9G10G04G12G26G29G05G25G02G30
 -20609375.98046 -16033138.62944  22667010.9064                   22667010.5314
 -19894970.04747 -15244894.60543  24432411.9534                   24432413.0314
 -26104798.56248 -20316108.74646  20956846.4224                   20956844.6994
   2076722.89846   1656260.96942  24442897.1644                   24442899.5744
  -4154682.73447  -3124646.47744  23392182.6644                   23392181.7854
 -28740228.05948 -22367698.03147  20208517.3834                   20208515.4654
 -16961307.73048 -13208240.44546  21710569.6564                   21710570.6604
 -30522386.05547 -23755641.93446  21262090.8524                   21262087.2424
 -14042176.46948 -10685813.22745  21848525.1254                   21848524.1684
 11  8 26  1 27 30.0000000  0  9G10G04G12G26G29G05G25G02G30
 -20546046.69946 -15983791.15644  22679061.9614                   22679061.5274
 -19848286.39147 -15208517.72343  24441295.7274                   24441296.7814
 -26098503.15248 -20311203.24246  20958044.2734                   20958043.0904
   1952200.94146   1559231.11342  24419201.5554                   24419204.3014
  -4269324.87547  -3213977.99244  23370367.3754                   23370366.2584
 -28770508.25448 -22391292.96947  20202755.1804                   20202753.7734
 -17020356.57448 -13254252.51646  21699332.9304                   21699334.2464
 -30520617.86747 -23754264.11746  21262426.9844                   21262423.4964
 -14095552.64848 -10727405.06245  21838367.5084                   21838366.7034
 11  8 26  1 28  0.0000000  0  9G10G04G12G26G29G05G25G02G30
 -20482431.44147 -15934220.85944  22691168.2424                   22691167.5944
 -19801665.75047 -15172189.93743  24450167.1644                   24450168.7274
 -26091675.48848 -20305882.99646  20959343.8364                   20959342.3674
   1827594.38346   1462135.31643  24395490.1564                   24395492.1484
  -4383974.17247  -3303315.06244  23348550.3134                   23348549.3484
 -28800220.20748 -22414445.11747  20197101.2034                   20197099.5744
 -17078840.53948 -13299824.42246  21688203.6644                   21688204.4144
 -30518751.35547 -23752809.68046  21262782.4454                   21262778.9104
 -14148331.81247 -10768531.69545  21828323.9224                   21828323.2234
 11  8 26  1 28 30.0000000  0  9G10G04G12G26G29G05G25G02G30
 -20418528.96547 -15884426.73444  22703327.8754                   22703327.0434
 -19755103.92647 -15135907.99643  24459027.1024                   24459029.1804
 -26084312.39548 -20300145.53546  20960744.7584                   20960743.7344
   1702910.53947   1364979.30543  24371763.1644                   24371764.8554
  -4498625.33247  -3392653.61344  23326732.8754                   23326731.7034
 -28829360.29348 -22437151.64847  20191556.2424                   20191553.9344
 -17136754.62148 -13344952.25846  21677183.1174                   21677184.5594
 -30516782.60248 -23751275.58246  21263156.9924                   21263153.3794
 -14200509.41847 -10809189.56645  21818394.8054                   21818393.9654
 11  8 26  1 29  0.0000000  0  9G10G04G12G26G29G05G25G02G30
 -20354339.64547 -15834409.09844  22715542.7194                   22715542.6254
 -19708598.82846 -15099670.28143  24467876.7734                   24467878.2734
 -26076413.81648 -20293990.80946  20962247.9694                   20962246.6334
   1578154.81647   1267767.28943  24348022.4304                   24348024.2664
  -4613274.47747  -3481990.55544  23304915.3984                   23304914.7504
 -28857926.72348 -22459411.18047  20186119.9774                   20186118.0004
 -17194095.52048 -13389633.46546  21666271.4924                   21666271.9694
 -30514709.93047 -23749660.50046  21263551.5554                   21263548.1054
 -14252082.51648 -10849376.40245  21808580.4534                   21808579.6884
 11  8 26  1 29 30.0000000  0  9G10G04G12G26G29G05G25G02G30
 -20289872.90647 -15784175.30144  22727810.4384                   22727809.9494
 -19662157.07846 -15063481.89143  24476714.8444                   24476715.7464
 -26067987.73048 -20287425.04346  20963851.5864                   20963850.1214
   1453323.69947   1170496.53943  24324267.7664                   24324269.7624
  -4727926.82847  -3571330.00445  23283097.6884                   23283097.3444
 -28885926.81648 -22481229.41047  20180791.8984                   20180789.8554
 -17250869.21948 -13433872.68746  21655467.8054                   21655468.5084
 -30512540.30147 -23747969.87146  21263963.9384                   21263960.8364
 -14303057.44548 -10889097.13745  21798880.5004                   21798880.0474
 11  8 26  1 30  0.0000000  0  9G10G04G12G26G29G05G25G02G30
 -20225133.53147 -15733729.05144  22740129.7584                   22740129.5664
 -19615780.71546 -15027344.47743  24485539.4614                   24485541.1294
 -26059037.46548 -20280450.82046  20965554.5944                   20965552.9454
   1328418.60547   1073168.10943  24300499.2194                   24300500.9694
  -4842582.57447  -3660672.09844  23261279.3984                   23261279.0594
 -28913363.16048 -22502608.35947  20175570.8204                   20175569.2384
 -17307076.66848 -13477670.68046  21644771.6094                   21644772.5594
 -30510275.98047 -23746205.45346  21264395.1804                   21264391.3874
 -14353435.59048 -10928352.83645  21789293.9844                   21789293.6524
 11  8 26  1 30 30.0000000  0  9G10G04G12G26G29G05G25G02G30
 -20160116.89547 -15683066.75844  22752502.1484                   22752501.6374
 -19569462.27346 -14991252.21943  24494354.3984                   24494355.2664
 -26049557.17648 -20273063.59446  20967358.7034                   20967357.3444
   1203449.83646    975790.08243  24276718.1644                   24276719.9264
  -4957233.08247  -3750010.09044  23239462.4064                   23239461.7624
 -28940228.94148 -22523542.70747  20170458.5084                   20170456.5044
 -17362709.65248 -13521021.03146  21634185.0784                   21634185.8984
 -30507910.02747 -23744361.84446  21264845.1724                   21264841.9734
 -14403209.09848 -10967137.38345  21779822.3284                   21779821.8164
 11  8 26  1 31  0.0000000  0  9G10G04G12G26G29G05G25G02G30
 -20094833.29747 -15632196.44144  22764924.6334                   22764925.2934
 -19523209.52746 -14955211.11743  24503155.3284                   24503157.1994
 -26039555.99648 -20265270.48046  20969261.9844                   20969260.4734
   1078413.07847    878359.07843  24252923.6174                   24252926.2664
  -5071884.29347  -3839348.64544  23217644.7194                   23217644.3634
 -28966532.00448 -22544038.57847  20165453.1564                   20165451.3714
 -17417774.95748 -13563929.04746  21623706.6484                   21623707.4774
 -30505450.14547 -23742445.04346  21265313.3834                   21265309.8554
 -14452385.15648 -11005456.39545  21770464.3834                   21770463.6414
 11  8 26  1 31 30.0000000  0  9G10G04G12G26G29G05G25G02G30
 -20029284.09047 -15581119.15244  22777398.9144                   22777398.4574
 -19477021.05146 -14919220.11743  24511944.6724                   24511945.9264
 -26029033.93448 -20257071.48046  20971264.4454                   20971262.6414
    953313.15647    780878.82443  24229118.1564                   24229120.1254
  -5186533.05547  -3928685.27745  23195828.1484                   23195827.4344
 -28992271.98048 -22564095.68747  20160555.0784                   20160553.0354
 -17472270.41048 -13606393.02046  21613336.3754                   21613337.3364
 -30502895.22748 -23740454.19146  21265799.4454                   21265796.2464
 -14500961.98048 -11043308.46945  21761220.5474                   21761220.1024
 11  8 26  1 32  0.0000000  0  9G10G04G12G26G29G05G25G02G30
 -19963473.64147 -15529838.32044  22789922.4064                   22789921.8554
 -19430898.60546 -14883280.60243  24520721.8674                   24520723.1844
 -26017994.65648 -20248469.46946  20973365.0864                   20973363.6644
    828151.47747    683350.46543  24205300.6174                   24205302.3324
  -5301179.37147  -4018020.00844  23174011.4534                   23174010.8594
 -29017451.12548 -22583715.78547  20155763.5704                   20155761.4924
 -17526196.98448 -13648413.70746  21603074.6644                   21603075.8164
 -30500247.67647 -23738391.15246  21266303.1484                   21266299.9534
 -14548941.01248 -11080694.71545  21752090.6804                   21752090.0824
 11  8 26  1 32 30.0000000  0  9G10G04G12G26G29G05G25G02G30
 -19897405.82847 -15478356.92644  22802494.4924                   22802493.9804
 -19384842.84846 -14847393.03943  24529486.1804                   24529487.3914
 -26006440.73848 -20239466.42246  20975563.5084                   20975562.1844
    702930.49647    585775.86343  24181471.8364                   24181473.3794
  -5415822.57447  -4107352.29745  23152195.0164                   23152194.7344
 -29042070.89848 -22602900.00447  20151078.6564                   20151076.7664
 -17579554.71148 -13689991.13746  21592920.9844                   21592922.2814
 -30497508.36747 -23736256.61746  21266824.7194                   21266821.2544
 -14596322.52347 -11117615.37145  21743074.4454                   21743073.8364
 11  8 26  1 33  0.0000000  0  9G10G04G12G26G29G05G25G02G30
 -19831081.24247 -15426675.46544  22815115.5784                   22815115.3984
 -19338852.00446 -14811556.02343  24538237.5474                   24538239.2894
 -25994371.68748 -20230061.99246  20977860.0234                   20977858.7624
    577655.29346    488159.02043  24157632.2894                   24157634.3244
  -5530459.50447  -4196679.70345  23130380.8364                   23130380.2664
 -29066130.28148 -22621647.55547  20146500.0394                   20146498.3054
 -17632341.03148 -13731123.31646  21582876.0634                   21582877.1844
 -30494675.85948 -23734049.46546  21267363.7814                   21267359.9344
 -14643104.53948 -11154068.88345  21734171.8594                   21734171.3134
 11  8 26  1 33 30.0000000  0  9G10G04G12G26G29G05G25G02G30
 -19764504.41047 -15374797.43444  22827785.1094                   22827783.9574
 -19292927.66046 -14775770.88343  24546977.1644                   24546978.2704
 -25981791.04348 -20220258.90646  20980254.0634                   20980252.8484
    452327.19146    390500.98043  24133783.0784                   24133785.2424
  -5645090.00447  -4286002.09844  23108566.7894                   23108567.0744
 -29089631.98848 -22639960.55547  20142027.7584                   20142026.0004
 -17684557.03948 -13771811.10246  21572939.5164                   21572940.9064
 -30491752.14548 -23731771.23846  21267920.1094                   21267916.6914
 -14689288.53948 -11190056.41845  21725383.2034                   21725382.6804
 11  8 26  1 34  0.0000000  0  8G10G12G26G29G05G25G02G30
 -19697667.80947 -15322716.99244  22840503.5944                   22840503.1414
 -25968689.77048 -20210050.13346  20982747.6564                   20982746.0164
    326960.35246    292812.74643  24109925.7664                   24109928.6564
  -5759702.17647  -4375310.21145  23086756.9614                   23086756.3714
 -29112565.81648 -22657831.05947  20137663.8914                   20137661.8094
 -17736191.54348 -13812045.77346  21563113.7504                   21563114.8134
 -30488727.03148 -23729414.00446  21268496.0164                   21268492.7384
 -14734863.57848 -11225569.41845  21716710.5784                   21716709.7854
 11  8 26  1 34 30.0000000  0  8G10G12G26G29G05G25G02G30
 -19630574.42247 -15270436.43744  22853271.3284                   22853270.1524
 -25955070.31248 -20199437.59046  20985339.1564                   20985337.8834
    201557.34046    195096.32043  24086063.0864                   24086064.6334
  -5874294.70347  -4464603.00844  23064950.8284                   23064950.3634
 -29134933.13748 -22675260.11747  20133407.0234                   20133405.1764
 -17787244.47748 -13851827.26646  21553398.4144                   21553400.1294
 -30485601.19148 -23726978.28146  21269090.4144                   21269087.0944
 -14779830.13748 -11260608.29345  21708154.0004                   21708152.9694
 11  8 26  1 35  0.0000000  0  8G10G12G26G29G05G25G02G30
 -19563239.12146 -15217967.40644  22866084.4774                   22866083.7114
 -25940946.21948 -20188431.83246  20988026.7194                   20988025.5204
     76109.28946     97344.78143  24062190.2974                   24062192.2544
  -5988878.27747  -4553888.85245  23043146.1024                   23043145.3134
 -29156747.21148 -22692258.08247  20129256.3284                   20129254.5234
 -17837727.25848 -13891164.50446  21543792.2114                   21543793.8674
 -30482387.13348 -23724473.82046  21269702.1094                   21269698.4414
 -14824200.02748 -11295182.23045  21699710.5554                   21699709.7034
 11  8 26  1 35 30.0000000  0  8G10G12G26G29G05G25G02G30
 -19495656.38747 -15165305.55944  22878945.3914                   22878943.9184
 -25926311.18448 -20177027.91846  20990811.7504                   20990810.5554
    -49372.08646      -432.71543  24038312.1254                   24038314.4144
  -6103442.86347  -4643159.89845  23021345.5634                   23021344.4884
 -29178000.42648 -22708819.01247  20125211.7664                   20125209.7974
 -17887631.03548 -13930050.55146  21534295.8834                   21534297.1174
 -30479076.84048 -23721894.35946  21270332.2974                   21270328.7464
 -14867964.79348 -11329284.62145  21691382.1884                   21691381.7234
 11  8 26  1 36  0.0000000  0  8G10G12G26G29G05G25G02G30
 -17852414.05946 -13884857.02044  23191643.7034                   23191642.8204
 -24335750.82048 -18937630.25446  21293485.2344                   21293483.8914
   1400537.75846   1129367.36743  24314220.2274                   24314222.2974
  -4642565.94947  -3504814.18445  23299341.0554                   23299340.2274
 -27623275.90648 -21497345.34047  20421066.1954                   20421063.7894
 -16361536.64548 -12740886.07446  21824701.9304                   21824702.7544
 -28900253.67648 -22491642.53546  21570772.2664                   21570768.4224
 -13335705.94548 -10135316.66845  21982961.5634                   21982961.0984
 11  8 26  1 36 30.0000000  0  8G10G12G26G29G05G25G02G30
 -17784342.85247 -13831814.54344  23204597.4924                   23204596.8794
 -24320098.14148 -18925433.38346  21296464.0474                   21296462.4144
   1275001.18046   1031546.85243  24290332.0864                   24290333.3754
  -4757085.80547  -3594050.37945  23277548.5314                   23277547.5514
 -27643407.98048 -21513032.64547  20417234.7114                   20417232.9384
 -16410279.18048 -12778867.25446  21815426.8524                   21815427.5234
 -28896750.03148 -22488912.42246  21571438.8284                   21571435.1334
 -13378258.49248 -10168474.47745  21974864.0634                   21974863.3834
 11  8 26  1 37  0.0000000  0  8G10G12G26G29G05G25G02G30
 -17716030.04347 -13778583.80544  23217596.6884                   23217596.2114
 -24303937.34048 -18912840.55946  21299539.4694                   21299537.9224
   1149443.74647    933710.06643  24266439.1484                   24266439.6254
  -4871579.33247  -3683266.05145  23255760.8204                   23255760.1884
 -27662979.29748 -21528283.00047  20413511.0784                   20413509.0164
 -16458438.58248 -12816394.04746  21806261.9144                   21806262.9344
 -28893148.41848 -22486105.95746  21572124.2194                   21572120.5514
 -13420203.14547 -10201158.60245  21966882.2194                   21966881.7304
 11  8 26  1 37 30.0000000  0  8G10G12G26G29G05G25G02G30
 -17647487.26247 -13725173.87944  23230640.2274                   23230639.7664
 -24287279.13748 -18899860.15246  21302709.3054                   21302707.7154
   1023859.75447    835852.57043  24242541.2664                   24242542.1914
  -4986053.59447  -3772466.73845  23233977.1024                   23233976.4064
 -27681999.88748 -21543104.21947  20409891.1254                   20409889.4534
 -16506023.48848 -12853473.19546  21797206.8674                   21797208.0204
 -28889457.95348 -22483230.26646  21572826.3754                   21572822.4454
 -13461548.82848 -10233376.01245  21959014.3984                   21959013.6684
 11  8 26  1 38  0.0000000  0  8G10G12G26G29G05G25G02G30
 -17578713.85247 -13671584.24244  23243727.2584                   23243726.4144
 -24270122.23448 -18886491.14846  21305974.2194                   21305972.8364
    898255.66847    737979.43843  24218639.6724                   24218639.7934
  -5100503.90647  -3861648.75045  23212198.1174                   23212196.9384
 -27700467.15248 -21557494.28147  20406376.8754                   20406374.6564
 -16553030.13748 -12890101.75046  21788262.0164                   21788262.9654
 -28885675.80548 -22480283.12946  21573546.0634                   21573542.4344
 -13502292.29348 -10265124.14545  21951261.6724                   21951260.4844
 11  8 26  1 38 30.0000000  0  8G10G12G26G29G05G25G02G30
 -17509713.71547 -13617817.93444  23256857.6024                   23256856.7234
 -24252469.77048 -18872735.98846  21309333.3204                   21309332.1134
    772634.03947    640092.62943  24194734.3984                   24194735.0744
  -5214929.32447  -3950811.39145  23190423.4224                   23190422.7034
 -27718383.45348 -21571455.00847  20402967.5004                   20402965.9184
 -16599459.19948 -12926280.24246  21779426.6954                   21779427.5004
 -28881803.28548 -22477265.58246  21574283.0314                   21574279.4774
 -13542434.60548 -10296403.85245  21943622.5944                   21943621.6884
 11  8 26  1 39  0.0000000  0  8G10G12G26G29G05G25G02G30
 -17440485.65247 -13563874.03544  23270031.3134                   23270030.5784
 -24234319.93048 -18858593.25846  21312787.1884                   21312785.8204
    647002.08247    542197.77344  24170826.8754                   24170828.2774
  -5329324.32047  -4039950.31244  23168654.7974                   23168653.3874
 -27735745.48048 -21584983.83247  20399663.6414                   20399662.0704
 -16645306.28148 -12962005.23846  21770702.3524                   21770703.2504
 -28877836.50448 -22474174.56646  21575038.2034                   21575034.5554
 -13581971.81248 -10327212.03545  21936098.5314                   21936097.8244
 11  8 26  1 39 30.0000000  0  8G10G12G26G29G05G25G02G30
 -17371041.45347 -13509761.70344  23283246.2034                   23283245.6254
 -24215683.40648 -18844071.30546  21316333.6094                   21316332.1294
    521354.01647    444290.35943  24146916.5394                   24146917.8094
  -5443696.11347  -4129071.17245  23146890.8754                   23146889.3794
 -27752563.39148 -21598088.66847  20396463.7734                   20396461.5234
 -16690580.08248 -12997283.53146  21762086.9774                   21762088.1454
 -28873784.73048 -22471017.33246  21575808.9144                   21575805.3914
 -13620913.03548 -10357555.82445  21928688.0474                   21928687.7544
 11  8 26  1 40  0.0000000  0  8G10G12G26G29G05G25G02G30
 -17301377.43047 -13455478.09044  23296502.6954                   23296501.6134
 -24196556.04748 -18829166.87546  21319973.2424                   21319971.9774
    395699.46146    346377.89543  24123005.4694                   24123005.9494
  -5558036.93047  -4218167.90244  23125132.2974                   23125131.2274
 -27768832.18048 -21610765.63347  20393367.6884                   20393365.5784
 -16735274.07048 -13032110.02346  21753582.3674                   21753582.9344
 -28869641.85248 -22467789.11346  21576597.3054                   21576593.5744
 -13659252.16847 -10387430.46545  21921392.8054                   21921392.0904
 11  8 26  1 40 30.0000000  0  8G10G12G26G29G05G25G02G30
 -17231493.55947 -13401023.16444  23309801.3984                   23309800.8014
 -24176936.65648 -18813879.05146  21323706.8834                   21323704.9494
    270044.69146    248465.26643  24099093.8674                   24099094.9964
  -5672342.30147  -4307237.00844  23103380.4384                   23103379.6644
 -27784550.02748 -21623013.27747  20390376.5634                   20390374.4184
 -16779385.18748 -13066482.32846  21745187.8134                   21745189.0984
 -28865405.45748 -22464488.02346  21577403.7584                   21577400.0594
 -13696986.59847 -10416833.91845  21914212.0394                   21914211.3364
 11  8 26  1 41  0.0000000  0  8G10G12G26G29G05G25G02G30
 -17161387.34847 -13346394.98844  23323142.5474                   23323141.5514
 -24156822.35248 -18798205.57446  21327534.4224                   21327533.4414
    144398.24646    150559.11343  24075184.1094                   24075185.3834
  -5786605.27047  -4396273.09045  23081637.1644                   23081635.9024
 -27799712.85948 -21634828.45347  20387491.0864                   20387489.3404
 -16822907.80148 -13100396.07046  21736905.5784                   21736907.1054
 -28861070.57048 -22461110.18746  21578228.2814                   21578224.5864
 -13734111.17248 -10445762.16045  21907147.3284                   21907146.9844
 11  8 26  1 41 30.0000000  0  8G10G12G26G29G05G25G02G30
 -17091075.57847 -13291606.60944  23336522.2114                   23336521.4384
 -24136229.11348 -18782158.89546  21331453.1174                   21331451.9694
     18749.57446     52651.24243  24051273.9694                   24051274.7854
  -5900837.94547  -4485285.56245  23059899.5314                   23059898.6954
 -27814335.82848 -21646222.95747  20384708.1334                   20384706.6724
 -16865855.79748 -13133862.05146  21728733.1094                   21728734.4144
 -28856651.37948 -22457666.66046  21579069.1254                   21579065.6564
 -13770640.22747 -10474226.34445  21900196.1174                   21900195.4774
 11  8 26  1 42  0.0000000  0  8G10G12G26G29G05G25G02G30
 -17020563.41447 -13236662.10244  23349940.2974                   23349939.7584
 -24115161.61748 -18765742.68046  21335462.2424                   21335461.1024
   -106900.58646    -45257.79743  24027363.2734                   24027364.5044
  -6015041.20347  -4574275.11745  23038167.2194                   23038166.1254
 -27828422.67648 -21657199.71147  20382027.9064                   20382026.0784
 -16908231.49248 -13166882.07846  21720669.5004                   21720670.4654
 -28852150.68048 -22454159.62546  21579925.6024                   21579922.0354
 -13806576.41448 -10502228.57445  21893357.6724                   21893357.2464
 11  8 26  1 42 30.0000000  0  8G10G12G26G29G05G25G02G30
 -16949845.28947 -13181557.10544  23363396.9694                   23363396.8164
 -24093613.17248 -18748951.69946  21339562.6094                   21339561.7854
   -232540.10946   -143158.55943  24003455.0474                   24003455.8444
  -6129204.66047  -4663233.65245  23016442.5314                   23016441.7274
 -27841965.68448 -21667752.68447  20379450.7034                   20379448.8094
 -16950026.14848 -13199449.35546  21712716.1484                   21712717.4224
 -28847560.14848 -22450582.59046  21580799.3594                   21580796.2114
 -13841911.56647 -10529762.46545  21886634.2034                   21886633.1094
 11  8 26  1 43  0.0000000  0  8G10G12G26G29G05G25G02G30
 -16878922.57447 -13126292.67244  23376893.5084                   23376892.7894
 -24071584.62948 -18731786.61746  21343754.4844                   21343752.9804
   -358164.54346   -241047.55943  23979548.2034                   23979549.9694
  -6243325.59847  -4752159.05545  22994725.9064                   22994725.2704
 -27854965.21148 -21677882.16447  20376976.7424                   20376975.1334
 -16991238.51648 -13231562.88746  21704873.4304                   21704874.6914
 -28842878.98048 -22446934.92646  21581690.0004                   21581686.7154
 -13876644.81648 -10556827.35245  21880024.0944                   21880023.0984
 11  8 26  1 43 30.0000000  0  8G10G12G26G29G05G25G02G30
 -16807799.47747 -13070872.09844  23390427.7194                   23390427.4614
 -24049080.19148 -18714250.70346  21348037.1804                   21348035.6374
   -483772.21546   -338923.49644  23955646.5234                   23955647.0984
  -6357403.77347  -4841051.12545  22973017.4144                   22973017.0044
 -27867423.74648 -21687590.10947  20374605.8754                   20374604.0664
 -17031869.97348 -13263223.77046  21697141.6484                   21697142.8914
 -28838108.53548 -22443217.69546  21582598.0554                   21582594.6484
 -13910778.05548 -10583424.68745  21873528.9534                   21873527.8324
 11  8 26  1 44  0.0000000  0  8G10G12G26G29G05G25G02G30
 -16736482.91847 -13015300.79344  23403999.1254                   23403998.0474
 -24026106.19947 -18696348.90246  21352408.6024                   21352407.6524
   -609363.94146   -436787.03543  23931747.3444                   23931747.9614
  -6471441.71147  -4929911.85945  22951317.2664                   22951316.3754
 -27879347.34448 -21696881.20747  20372336.9384                   20372334.8874
 -17071924.85248 -13294435.36346  21689519.3914                   21689520.5164
 -28833253.52348 -22439434.57446  21583521.7504                   21583518.5864
 -13944315.96547 -10609558.12145  21867147.2114                   21867145.7774
 11  8 26  1 44 30.0000000  0  8G10G12G26G29G05G25G02G30
 -16664974.64147 -12959580.05943  23417606.0784                   23417605.5044
 -24002662.83648 -18678081.36346  21356870.0554                   21356868.6454
   -734934.93446   -534634.39844  23907850.9774                   23907851.9924
  -6585436.31647  -5018738.80945  22929624.4384                   22929623.8134
 -27890735.79748 -21705755.31647  20370170.0004                   20370168.3954
 -17111401.71548 -13325196.56246  21682007.2814                   21682008.8324
 -28828312.83648 -22435584.68746  21584461.9774                   21584458.6914
 -13977257.58648 -10635226.92646  21860878.2734                   21860877.7464
 11  8 26  1 45  0.0000000  0  8G10G12G26G29G05G25G02G30
 -16593271.45747 -12903707.48043  23431250.5704                   23431250.1764
 -23978746.80148 -18659445.50846  21361421.3364                   21361419.6954
   -860475.48046   -632458.05543  23883961.7974                   23883962.4614
  -6699379.49647  -5107525.68045  22907941.7344                   22907940.8204
 -27901584.16048 -21714208.56647  20368105.5704                   20368103.5594
 -17150294.39848 -13355502.54746  21674606.2734                   21674607.4804
 -28823280.43048 -22431663.33646  21585419.5004                   21585416.3984
 -14009597.23848 -10660426.66045  21854724.4924                   21854723.6884
 11  8 26  1 45 30.0000000  0  8G10G12G26G29G05G25G02G30
 -16521377.62947 -12847686.34043  23444931.9224                   23444931.4654
 -23954362.17248 -18640444.52046  21366061.3984                   21366059.7854
   -985984.30946   -730256.99243  23860078.2034                   23860078.8014
  -6813271.64147  -5196272.78145  22886268.8134                   22886267.7664
 -27911895.76248 -21722243.56247  20366143.1484                   20366141.6294
 -17188604.85248 -13385354.84846  21667316.0084                   21667317.3794
 -28818158.65248 -22427672.34046  21586394.3364                   21586390.9144
 -14041337.37947 -10685159.23845  21848684.4774                   21848683.7814
 11  8 26  1 46  0.0000000  0  8G10G12G26G29G05G25G02G30
 -16449303.99447 -12791525.10144  23458646.9384                   23458646.8794
 -23929519.48448 -18621086.59046  21370789.0234                   21370787.1454
  -1111466.40646   -828035.10543  23836199.7664                   23836199.9654
  -6927119.23047  -5284985.16445  22864604.6024                   22864603.5164
 -27921680.43048 -21729867.96947  20364281.1804                   20364279.6844
 -17226341.49248 -13414760.02746  21660135.0784                   21660136.3834
 -28812955.90248 -22423618.25046  21587384.3134                   21587380.8634
 -14072486.72348 -10709431.46945  21842756.9144                   21842756.4384
 11  8 26  1 46 30.0000000  0  8G10G12G26G29G05G25G02G30
 -16377049.06247 -12735222.60243  23472397.2344                   23472396.6414
 -23904216.45747 -18601369.96946  21375603.7664                   21375602.1564
  -1236913.52746   -925786.01643  23812327.7894                   23812328.3094
  -7040916.21547  -5373658.10545  22842949.4454                   22842948.8484
 -27930934.82848 -21737079.19147  20362520.1564                   20362518.4144
 -17263499.86748 -13443714.61746  21653064.2894                   21653064.9654
 -28807667.78948 -22419497.65246  21588390.4924                   21588387.2114
 -14103041.35248 -10733240.28545  21836942.1174                   21836941.6994
 11  8 26  1 47  0.0000000  0  8G10G12G26G29G05G25G02G30
 -16304609.91047 -12678776.54743  23486181.5394                   23486181.0514
 -23878449.58247 -18581291.91446  21380507.0164                   21380505.8364
  -1362317.03946  -1023502.91043  23788464.4454                   23788464.4774
  -7154655.10947  -5462285.76645  22821305.9304                   22821305.2774
 -27939654.62948 -21743873.82847  20360860.6254                   20360858.9574
 -17300074.60248 -13472214.40646  21646104.1334                   21646105.2274
 -28802289.05948 -22415306.44146  21589413.9614                   21589410.5744
 -14132996.33247 -10756581.84445  21831242.3754                   21831241.7304
 11  8 26  1 47 30.0000000  0  8G10G12G26G29G05G25G02G30
 -16232000.73047 -12622197.99644  23499998.5944                   23499998.0314
 -23852232.30148 -18560862.89146  21385496.1724                   21385494.6094
  -1487684.71546  -1121191.88743  23764607.6724                   23764608.0394
  -7268345.19947  -5550875.40245  22799671.5004                   22799670.4844
 -27947852.89548 -21750262.08247  20359300.6484                   20359298.8054
 -17336077.16448 -13500268.35946  21639253.1094                   21639254.5664
 -28796831.34048 -22411053.67646  21590453.1804                   21590449.5084
 -14162363.59048 -10779465.43745  21825653.6644                   21825653.2504
 11  8 26  1 48  0.0000000  0  8G10G12G26G29G05G25G02G30
 -16159216.50047 -12565483.03144  23513848.9694                   23513848.2734
 -23825559.53547 -18540078.93746  21390571.6724                   21390570.8404
  -1613005.27046  -1218844.14544  23740760.0864                   23740760.2624
  -7381977.24647  -5639419.79745  22778047.7894                   22778046.5124
 -27955523.44148 -21756239.13347  20357840.6884                   20357839.1954
 -17371499.82448 -13527870.43446  21632512.1884                   21632513.5004
 -28791286.82448 -22406733.27046  21591508.1484                   21591504.2734
 -14191135.90647 -10801885.43045  21820178.4614                   21820177.7034
 11  8 26  1 48 30.0000000  0  8G10G12G26G29G05G25G02G30
 -16086260.16447 -12508633.97744  23527731.6954                   23527731.8164
 -23798434.48848 -18518942.55946  21395733.3284                   21395732.1294
  -1738275.58646  -1316457.25843  23716921.1094                   23716921.9064
  -7495549.81647  -5727917.85545  22756435.5554                   22756434.1724
 -27962668.03948 -21761806.34047  20356481.4144                   20356479.3794
 -17406343.24648 -13555021.16446  21625882.0864                   21625882.9884
 -28785655.99648 -22402345.60946  21592579.4144                   21592575.9804
 -14219314.37548 -10823842.69945  21814816.3134                   21814815.6524
 11  8 26  1 49  0.0000000  0  9G10G15G12G26G29G05G25G02G30
 -16013136.10247 -12451654.22344  23541647.7274                   23541646.7704
   6144352.00856   4813705.38353  24603890.9774                   24603893.6884
 -23770860.49648 -18497456.35946  21400980.8834                   21400979.3714
  -1863494.30546  -1414030.16843  23693093.0084                   23693093.3054
  -7609062.72747  -5816369.42645  22734834.3204                   22734833.3484
 -27969289.59048 -21766965.98847  20355221.3284                   20355219.6804
 -17440609.38748 -13581722.05146  21619361.2034                   21619362.4924
 -28779940.66848 -22397892.10546  21593666.8054                   21593664.0434
 -14246901.34447 -10845339.05145  21809566.7664                   21809565.7274
 11  8 26  1 49 30.0000000  0  9G10G15G12G26G29G05G25G02G30
 -15939852.46947 -12394550.11743  23555593.3204                   23555592.6524
   6020638.43446   4717305.60943  24580349.2274                   24580351.4494
 -23742845.69148 -18475626.66046  21406311.8364                   21406310.5314
  -1988662.94946  -1511564.03144  23669273.8054                   23669274.7854
  -7722519.37147  -5904777.15245  22713244.8284                   22713243.7774
 -27975395.27348 -21771723.65247  20354059.5474                   20354057.5274
 -17474303.94548 -13607977.55546  21612949.4844                   21612950.5434
 -28774146.74648 -22393377.35246  21594769.4304                   21594765.8954
 -14273903.01648 -10866379.33245  21804428.5554                   21804427.7504
 11  8 26  1 50  0.0000000  0  9G10G15G12G26G29G05G25G02G30
 -15866409.73447 -12337322.05143  23569568.8444                   23569568.2384
   5896791.15646   4620801.60943  24556781.0784                   24556783.8954
 -23714390.08247 -18453453.48446  21411726.6174                   21411725.7114
  -2113775.86746  -1609054.49244  23645465.2504                   23645466.1054
  -7835915.80547  -5993137.96145  22691666.0164                   22691664.7664
 -27980984.27748 -21776078.71947  20352995.8674                   20352993.9494
 -17507424.91448 -13633786.10546  21606646.6484                   21606647.2774
 -28768272.05548 -22388799.66046  21595887.2814                   21595884.2194
 -14300317.87147 -10886962.35545  21799402.3984                   21799401.5354
 11  8 26  1 50 30.0000000  0  9G10G15G12G26G29G05G25G02G30
 -15792811.09047 -12279972.47743  23583574.1884                   23583573.4384
   5772812.51646   4524195.25843  24533188.9224                   24533191.0354
 -23685496.19547 -18430938.78946  21417224.8054                   21417223.7664
  -2238829.98446  -1706499.13343  23621668.3674                   23621668.7034
  -7949250.57047  -6081450.70345  22670099.0864                   22670098.2154
 -27986058.34048 -21780032.52047  20352030.6414                   20352028.8364
 -17539972.84448 -13659148.13346  21600453.0314                   21600453.9804
 -28762316.84048 -22384159.22746  21597020.7894                   21597017.2424
 -14326146.98448 -10907088.95745  21794486.6954                   21794486.0004
 11  8 26  1 51  0.0000000  0  9G10G15G12G26G29G05G25G02G30
 -15719064.87547 -12222507.90243  23597607.3674                   23597606.8284
   5648699.03146   4427483.85244  24509569.8364                   24509572.6294
 -23656172.55948 -18408089.21946  21422805.0314                   21422803.9614
  -2363827.72746  -1803899.85944  23597882.4694                   23597882.5984
  -8062527.43447  -6169718.34045  22648543.1024                   22648542.4414
 -27990625.19148 -21783591.10247  20351161.4454                   20351159.7034
 -17571953.92248 -13684068.45346  21594367.1414                   21594368.0944
 -28756287.30948 -22379460.87546  21598168.1804                   21598164.2664
 -14351396.86748 -10926764.20345  21789682.2274                   21789681.4304
 11  8 26  1 51 30.0000000  0  9G10G15G12G26G29G05G25G02G30
 -15645167.72347 -12164925.73843  23611669.5474                   23611669.3094
   5524459.23046   4330673.98444  24485928.4774                   24485930.2304
 -23626415.27348 -18384901.75446  21428467.6644                   21428466.4344
  -2488759.66046  -1901249.29344  23574108.1334                   23574108.7424
  -8175739.01247  -6257935.11745  22626999.5314                   22626998.4884
 -27994680.46548 -21786751.04347  20350389.6804                   20350387.9454
 -17603362.68748 -13708542.82846  21588390.3914                   21588391.6884
 -28750177.62148 -22374700.07446  21599330.8204                   21599326.9304
 -14376062.59448 -10945984.26645  21784988.0864                   21784987.0744
 11  8 26  1 52  0.0000000  0  9G10G15G12G26G29G05G25G02G30
 -15571113.12947 -12107220.87543  23625761.8914                   23625761.0824
   5400105.03547   4233774.95744  24462264.6644                   24462266.2234
 -23596217.65248 -18361371.15246  21434214.4774                   21434213.1994
  -2613612.66847  -1998537.23444  23550349.3444                   23550350.3594
  -8288873.79347  -6346092.04745  22605470.5164                   22605469.9534
 -27998216.13748 -21789506.10947  20349716.8134                   20349715.1564
 -17634190.04348 -13732564.14846  21582523.8834                   21582525.2424
 -28743978.41848 -22369869.52046  21600510.3914                   21600506.7894
 -14400135.55148 -10964742.42645  21780406.9614                   21780406.4844
 11  8 26  1 52 30.0000000  0  9G10G15G12G26G29G05G25G02G30
 -15496911.71947 -12049401.59843  23639881.6334                   23639880.8834
   5275631.08247   4136782.62944  24438577.1254                   24438579.3244
 -23565590.40247 -18337505.78146  21440042.3444                   21440041.4534
  -2738391.28147  -2095767.20744  23526605.2194                   23526605.6214
  -8401937.77747  -6434193.81645  22583955.3444                   22583954.0704
 -28001241.48448 -21791863.51247  20349141.2194                   20349139.5744
 -17664444.19948 -13756138.82046  21576766.9844                   21576768.6604
 -28737697.53148 -22364975.31246  21601705.5004                   21601701.9224
 -14423624.42248 -10983045.45745  21775937.6954                   21775936.7664
 11  8 26  1 53  0.0000000  0  9G10G15G12G26G29G05G25G02G30
 -15422571.53947 -11991474.20343  23654028.4304                   23654027.9024
   5151034.31346   4039694.60544  24414866.8914                   24414869.1994
 -23534541.09848 -18313311.53946  21445951.0234                   21445949.5514
  -2863097.71947  -2192940.94944  23502873.6884                   23502874.4414
  -8514934.69947  -6522243.32445  22562452.7194                   22562452.0744
 -28003764.09448 -21793829.16847  20348661.3134                   20348659.3134
 -17694131.37948 -13779271.68746  21571117.6414                   21571118.6524
 -28731340.75848 -22360021.97346  21602915.3134                   21602911.6454
 -14446535.85248 -11000898.53545  21771577.7424                   21771577.4024
 11  8 26  1 53 30.0000000  0  9G10G15G12G26G29G05G25G02G30
 -15348092.54747 -11933438.66043  23668200.9304                   23668200.8324
   5026320.23047   3942515.14544  24391134.8284                   24391136.2304
 -23503069.79347 -18288788.45346  21451939.8674                   21451938.4734
  -2987725.75047  -2290053.60544  23479157.9454                   23479158.4494
  -8627860.19547  -6610237.18045  22540963.6564                   22540962.9494
 -28005783.18448 -21795402.48447  20348276.7504                   20348275.4694
 -17723249.43448 -13801961.07846  21565576.8204                   21565577.4064
 -28724905.93048 -22355007.82046  21604139.8364                   21604136.2114
 -14468868.13347 -11018300.34045  21767327.7344                   21767327.3914
 11  8 26  1 54  0.0000000  0  9G10G15G12G26G29G05G25G02G30
 -15273468.58647 -11875290.12143  23682401.0394                   23682400.9064
   4901499.53946   3845252.61744  24367381.5474                   24367383.0434
 -23471170.21548 -18263931.65646  21458010.0004                   21458008.9774
  -3112262.95747  -2387095.49244  23455459.0314                   23455459.6844
  -8740703.47747  -6698166.96945  22519490.4454                   22519489.3984
 -28007291.25448 -21796577.59047  20347989.8054                   20347988.1914
 -17751789.92648 -13824200.42246  21560145.8524                   21560146.8094
 -28718384.10248 -22349925.86746  21605380.9064                   21605377.1804
 -14490613.38748 -11035244.70745  21763190.1804                   21763189.3554
 11  8 26  1 54 30.0000000  0  9G10G15G12G26G29G05G25G02G30
 -15198708.71947 -11817035.68743  23696628.1484                   23696627.4024
   4776568.78146   3747904.33244  24343607.6094                   24343609.6454
 -23438850.55948 -18238747.52346  21464160.1564                   21464158.6684
  -3236712.13747  -2484068.76644  23431777.1724                   23431777.5514
  -8853468.87947  -6786036.06645  22498031.1564                   22498030.6054
 -28008296.45348 -21797360.84047  20347798.4774                   20347797.0824
 -17779759.69548 -13845995.03146  21554823.3134                   21554824.3324
 -28711781.64148 -22344781.07846  21606637.1024                   21606633.5234
 -14511778.80947 -11051737.23445  21759162.3054                   21759161.3874
 11  8 26  1 55  0.0000000  0  9G10G15G12G26G29G05G25G02G30
 -15123808.21547 -11758671.68743  23710880.6414                   23710880.7734
   4651537.72746   3650477.87944  24319814.8834                   24319816.4384
 -23406107.07848 -18213233.13746  21470391.0394                   21470390.1564
  -3361062.43747  -2580965.01244  23408114.3204                   23408114.4844
  -8966147.20347  -6873837.31645  22476589.8204                   22476588.8404
 -28008793.27048 -21797747.96547  20347704.2504                   20347702.6094
 -17807152.01248 -13867339.68446  21549610.7274                   21549611.5904
 -28705091.19548 -22339567.75046  21607910.3524                   21607906.6604
 -14532358.18748 -11067773.11345  21755246.3134                   21755245.3984
 11  8 26  1 55 30.0000000  0  9G10G15G12G26G29G05G25G02G30
 -15048774.89147 -11700204.19544  23725158.9384                   23725158.8094
   4526403.76246   3552971.20743  24296002.3284                   24296003.9024
 -23372947.17248 -18187394.26646  21476701.4924                   21476700.1954
  -3485315.65247  -2677785.60544  23384469.7664                   23384469.2304
  -9078741.83647  -6961573.35945  22455163.6414                   22455162.9144
 -28008788.63348 -21797744.34447  20347705.0474                   20347703.0634
 -17833972.71948 -13888238.92646  21544506.9064                   21544508.0904
 -28698318.41447 -22334290.24645  21609199.0704                   21609195.6094
 -14552357.82048 -11083357.22745  21751440.5164                   21751440.1214
 11  8 26  1 56  0.0000000  0  9G10G15G12G26G29G05G25G02G30
 -14973610.00447 -11641634.18444  23739463.2114                   23739462.6334
   4401171.21946   3455387.76243  24272170.9224                   24272172.8164
 -23339371.98848 -18161231.78946  21483090.6094                   21483089.6334
  -3609466.75447  -2774526.62144  23360844.4224                   23360844.3754
  -9191249.22347  -7049241.40245  22433754.2664                   22433753.2384
 -28008282.69148 -21797350.09047  20347801.4304                   20347799.5554
 -17860220.97348 -13908692.10246  21539512.0474                   21539513.1294
 -28691461.68747 -22328947.34046  21610504.0394                   21610500.4694
 -14571777.35948 -11098489.32045  21747745.1644                   21747744.8554
 11  8 26  1 56 30.0000000  0  9G10G15G12G26G29G05G25G02G30
 -14898313.87947 -11582961.87543  23753791.3834                   23753790.7704
   4275845.25846   3357731.50043  24248322.1804                   24248323.6294
 -23305381.10248 -18134745.39546  21489558.7194                   21489557.3874
  -3733509.69947  -2871183.37944  23337239.5554                   23337239.7704
  -9303664.89847  -7136837.98445  22412362.0474                   22412361.3054
 -28007274.72348 -21796564.64147  20347993.3204                   20347991.1214
 -17885894.90248 -13928697.75846  21534626.1644                   21534627.0354
 -28684518.74247 -22323537.25045  21611824.9774                   21611821.7584
 -14590615.34848 -11113168.26245  21744160.4224                   21744159.4694
 11  8 26  1 57  0.0000000  0  9G10G15G12G26G29G05G25G02G30
 -14822893.34847 -11524192.66844  23768143.2344                   23768143.2034
   4150423.99646   3260000.93843  24224454.7894                   24224456.2974
 -23270981.71147 -18107940.68446  21496104.5784                   21496103.3674
  -3857445.12547  -2967756.35244  23313654.8754                   23313655.3244
  -9415991.39147  -7224365.06645  22390986.7664                   22390986.1844
 -28005770.96948 -21795392.87547  20348279.2194                   20348277.1884
 -17910999.45748 -13948259.73846  21529848.9534                   21529850.1334
 -28677493.81247 -22318063.27746  21613161.6174                   21613158.0784
 -14608877.22748 -11127398.28145  21740685.3204                   21740684.5434
 11  8 26  1 57 30.0000000  0  9G10G15G12G26G29G05G25G02G30
 -14747355.80547 -11465332.26244  23782517.9144                   23782517.6724
   4024905.02046   3162194.21543  24200569.3674                   24200569.8984
 -23236181.91447 -18080823.97746  21502726.5864                   21502725.4534
  -3981274.71947  -3064246.86744  23290091.2974                   23290090.8324
  -9528231.43047  -7311824.78945  22369628.2734                   22369627.7504
 -28003778.10248 -21793839.98047  20348658.5234                   20348656.5084
 -17935540.32448 -13967382.50046  21525179.2034                   21525180.0704
 -28670391.79748 -22312529.23845  21614512.9694                   21614509.6524
 -14626569.27348 -11141184.27745  21737318.2274                   21737317.9414
 11  8 26  1 58  0.0000000  0  9G10G15G12G26G29G05G25G02G30
 -14671692.82447 -11406374.10944  23796916.0554                   23796915.4264
   3899301.87547   3064321.92243  24176666.8674                   24176668.3484
 -23200972.75047 -18053388.27346  21509426.7344                   21509425.6334
  -4104983.67647  -3160643.35544  23266549.9304                   23266550.3914
  -9640372.41447  -7399207.32445  22348288.6724                   22348287.8834
 -28001287.07048 -21791898.90247  20349132.4454                   20349130.4694
 -17959507.16448 -13986057.96546  21520618.4454                   21520619.4964
 -28663201.85247 -22306926.68445  21615881.4924                   21615877.6764
 -14643681.51648 -11154518.47745  21734062.1414                   21734061.3054
 11  8 26  1 58 30.0000000  0  9G10G15G12G26G29G05G25G02G30
 -14595912.66446 -11347324.63743  23811335.9454                   23811335.4734
   3773611.85947   2966381.91043  24152749.1564                   24152750.3594
 -23165362.55148 -18025640.07846  21516203.5554                   21516202.4494
  -4228574.00846  -3256947.40244  23243031.0944                   23243031.3794
  -9752417.97347  -7486515.50445  22326967.1174                   22326966.3984
 -27998305.16048 -21789575.32847  20349700.1094                   20349697.8054
 -17982906.30548 -14004291.06646  21516165.3914                   21516166.5204
 -28655929.66447 -22301260.04745  21617265.4694                   21617261.9694
 -14660220.74648 -11167406.18745  21730915.0004                   21730914.0204
 11  8 26  1 59  0.0000000  0  9G10G15G12G26G29G05G25G02G30
 -14520024.32047 -11288190.90644  23825777.6254                   23825777.4144
   3647831.08247   2868371.14143  24128813.7114                   24128814.4844
 -23129360.02747 -17997586.17246  21523054.5004                   21523052.6994
  -4352048.83647  -3353161.48044  23219535.3524                   23219535.1134
  -9864372.36747  -7573752.64845  22305663.1804                   22305662.2704
 -27994840.72348 -21786875.75447  20350359.1334                   20350357.1994
 -18005745.03148 -14022087.48046  21511819.2504                   21511820.2584
 -28648582.00048 -22295534.58645  21618663.2194                   21618660.0824
 -14676194.75448 -11179853.46145  21727874.9924                   21727874.4804
 11  8 26  1 59 30.0000000  0  9G10G15G12G26G29G05G25G02G30
 -14444024.63746 -11228970.39143  23840239.6254                   23840239.7544
   3521967.53147   2770295.86344  24104862.8444                   24104863.3984
 -23092962.86347 -17969224.76646  21529980.7814                   21529979.0554
  -4475398.48847  -3449278.00044  23196062.3524                   23196061.9144
  -9976227.92647  -7660912.78545  22284377.3444                   22284376.7234
 -27990889.81648 -21783797.10947  20351111.0704                   20351109.1994
 -18028018.39548 -14039443.35946  21507580.8674                   21507582.1804
 -28641152.63748 -22289745.47346  21620077.0944                   21620073.7114
 -14691599.03148 -11191856.79345  21724944.0234                   21724943.1604
 11  8 26  2  0  0.0000000  0  9G10G15G12G26G29G05G25G02G30
 -14367912.07046 -11169661.93443  23854723.0554                   23854723.5984
   3396028.17247   2672161.50044  24080897.0864                   24080897.8324
 -23056169.27348 -17940554.44146  21536982.0474                   21536980.6454
  -4598615.36347  -3545291.07044  23172615.0864                   23172614.7544
 -10087978.56647  -7747991.16445  22263111.8984                   22263110.9884
 -27986450.41048 -21780337.82047  20351955.7274                   20351953.6884
 -18049723.05148 -14056356.08646  21503451.0394                   21503452.1294
 -28633637.48448 -22283889.50846  21621507.5394                   21621503.9734
 -14706430.69148 -11203413.93445  21722121.2344                   21722120.4264
 11  8 26  2  0 30.0000000  0  9G10G15G12G26G29G05G25G02G30
 -14291698.12946 -11110274.46943  23869226.4454                   23869226.0084
   3270006.93847   2573963.33644  24056915.7504                   24056916.7034
 -23018990.84848 -17911584.25446  21544057.1804                   21544055.8594
  -4721705.07447  -3641205.05944  23149191.6094                   23149191.4144
 -10199631.16447  -7834993.15645  22241865.2424                   22241864.0354
 -27981533.14548 -21776506.17247  20352891.5634                   20352889.1254
 -18070868.80948 -14072833.30546  21499426.7034                   21499428.0514
 -28626045.69547 -22277973.82846  21622952.2274                   21622948.6564
 -14720699.96948 -11214532.84845  21719405.5394                   21719405.0124
 11  8 26  2  1  0.0000000  0  9G10G15G12G26G29G05G25G02G30
 -14215380.36746 -11050806.12543  23883748.8674                   23883748.7074
   3143911.56647   2475707.41844  24032920.6024                   24032921.4804
 -22981425.13748 -17882312.28146  21551205.4064                   21551204.2544
  -4844658.66447  -3737012.98444  23125794.3364                   23125794.0124
 -10311178.70347  -7921913.28945  22220638.4924                   22220637.5944
 -27976134.73848 -21772299.60546  20353918.8284                   20353916.8914
 -18091451.43748 -14088871.72346  21495510.3524                   21495511.7034
 -28618372.18447 -22271994.47345  21624412.4924                   21624409.0474
 -14734403.22348 -11225210.71945  21716798.6414                   21716797.7384
 11  8 26  2  1 30.0000000  0  9G10G15G12G26G29G05G25G02G30
 -12563553.75046  -9763668.49243  24198081.1094                   24198081.3014
   4593158.99647   3604991.33244  24308702.8984                   24308703.9884
 -21368066.29747 -16625149.56246  21858217.5944                   21858216.5824
  -3392058.53147  -2605116.69544  23402214.8594                   23402214.5864
  -8847205.48047  -6781154.91445  22499223.2424                   22499222.2704
 -26394847.59848 -20540127.80147  20654827.2974                   20654825.6994
 -16536061.26648 -12876879.39546  21791491.0554                   21791492.3324
 -27035207.39147 -21038359.57045  21925678.6024                   21925674.7114
 -13172131.41448 -10007856.07845  22014088.6724                   22014087.7384
 11  8 26  2  2  0.0000000  0  9G10G15G12G26G29G05G25G02G30
 -12487047.92646  -9704053.62542  24212639.4844                   24212640.1334
   4466911.03547   3506616.47344  24284678.8284                   24284679.6254
 -21329746.45348 -16595289.95346  21865509.4384                   21865508.5634
  -3514741.53547  -2700713.75444  23378869.2894                   23378869.0744
  -8958549.33647  -6867916.32845  22478035.0314                   22478034.2114
 -26388505.39148 -20535185.80546  20656034.4534                   20656032.4694
 -16555532.66448 -12892051.92246  21787785.9224                   21787787.0274
 -27027382.90648 -21032262.56646  21927167.4694                   21927163.8834
 -13184718.98448 -10017664.59445  22011693.4224                   22011692.6214
 11  8 26  2  2 30.0000000  0  9G10G15G12G26G29G05G25G02G30
 -12410449.10946  -9644366.24643  24227216.5004                   24227216.3284
   4340593.95347   3408187.77344  24260641.4454                   24260641.6454
 -21291050.85547 -16565137.55946  21872873.0164                   21872871.7194
  -3637280.86347  -2796198.86744  23355550.9304                   23355550.3714
  -9069784.88747  -6954593.36346  22456867.9224                   22456866.8134
 -26381691.03548 -20529875.91046  20657331.4924                   20657329.5394
 -16574446.92248 -12906790.31246  21784186.5084                   21784187.8134
 -27019479.82848 -21026104.32045  21928671.2974                   21928667.7814
 -13196747.80148 -10027037.71945  22009404.0944                   22009403.2344
 11  8 26  2  3  0.0000000  0  9G10G15G12G26G29G05G25G02G30
 -12333750.84046  -9584601.34842  24241811.8834                   24241811.4064
   4214219.19146   3309714.12543  24236592.3984                   24236593.1604
 -21251973.31247 -16534687.54346  21880309.4224                   21880308.0234
  -3759663.87147  -2891562.19544  23332261.7664                   23332261.5204
  -9180901.53947  -7041177.75046  22435722.6024                   22435721.9304
 -26374397.73848 -20524192.81247  20658719.2274                   20658716.9344
 -16592796.13348 -12921088.41046  21780694.7814                   21780696.0354
 -27011489.34447 -21019877.97345  21930191.8914                   21930188.5514
 -13208210.48448 -10035969.68745  22007223.3524                   22007222.7424
 11  8 26  2  3 30.0000000  0  9G10G15G12G26G29G05G25G02G30
 -12256962.09446  -9524765.99643  24256423.4774                   24256423.6804
   4087782.80146   3211192.46543  24212531.9144                   24212533.4024
 -21212522.73447 -16503946.84446  21887816.8364                   21887815.3054
  -3881893.81647  -2986806.23044  23309002.1254                   23309001.9344
  -9291904.09047  -7127673.22345  22414599.5554                   22414598.8874
 -26366634.01648 -20518143.15646  20660196.7194                   20660194.4494
 -16610587.90248 -12934952.13346  21777309.1954                   21777310.3714
 -27003417.86348 -21013588.50445  21931727.5234                   21931724.0434
 -13219115.10948 -10044466.81245  22005148.1334                   22005147.6484
 11  8 26  2  4  0.0000000  0  9G10G15G12G26G29G05G25G02G30
 -12180089.85946  -9464865.59443  24271052.3594                   24271051.7894
   3961283.03946   3112621.41843  24188459.7114                   24188460.6804
 -21172706.94147 -16472921.55946  21895393.2894                   21895391.9924
  -4003971.46547  -3081931.59444  23285771.8754                   23285771.3984
  -9402794.53947  -7214081.35545  22393497.6884                   22393497.6334
 -26358406.43748 -20511732.04346  20661762.1094                   20661760.1954
 -16627827.68048 -12948385.73046  21774028.4774                   21774029.3284
 -26995269.93048 -21007239.47345  21933278.1644                   21933274.5394
 -13229467.60548 -10052533.69545  22003178.3284                   22003177.0744
 11  8 26  2  4 30.0000000  0  9G10G15G12G26G29G05G25G02G30
 -12103124.87147  -9404892.85243  24285698.6254                   24285698.0824
   3834734.88746   3014012.67643  24164378.3284                   24164378.9614
 -21132516.42647 -16441604.27746  21903041.0084                   21903040.2074
  -4125880.82847  -3176925.83644  23262572.8054                   23262572.8014
  -9513558.77747  -7300391.14545  22372420.5004                   22372418.9494
 -26349705.08248 -20504951.76246  20663417.9614                   20663416.2114
 -16644504.48048 -12961380.64546  21770855.1484                   21770855.9964
 -26987033.57448 -21000821.52745  21934845.6804                   21934842.6524
 -13239257.46948 -10060162.17645  22001315.1254                   22001314.6134
 11  8 26  2  5  0.0000000  0  9G10G15G12G26G29G05G25G02G30
 -12026076.43747  -9344855.09443  24300360.1954                   24300359.2894
   3708133.68046   2915362.54743  24140286.9064                   24140287.2544
 -21091961.24247 -16410002.85246  21910758.5394                   21910757.7344
  -4247625.85947  -3271792.02344  23239405.3674                   23239405.4804
  -9624202.05547  -7386606.67245  22351365.7814                   22351364.6764
 -26340539.18748 -20497809.49246  20665161.9384                   20665160.2894
 -16660626.60548 -12973943.33646  21767787.1174                   21767788.0314
 -26978715.97347 -20994340.28545  21936428.4774                   21936425.0274
 -13248493.36748 -10067358.98445  21999557.6174                   21999556.8094
 11  8 26  2  5 30.0000000  0  9G10G15G12G26G29G05G25G02G30
 -11948946.34446  -9284753.75443  24315037.8674                   24315037.6764
   3581482.77747   2816673.71144  24116186.0784                   24116186.7274
 -21051043.38347 -16378118.80946  21918544.6094                   21918543.8984
  -4369202.30147  -3366526.84044  23216270.3834                   23216269.9964
  -9734721.27747  -7472725.53545  22330334.3594                   22330333.3554
 -26330909.80948 -20490306.07046  20666994.3754                   20666992.3714
 -16676194.58648 -12986074.23846  21764824.7194                   21764825.6094
 -26970316.23847 -20987795.04746  21938026.7814                   21938023.0354
 -13257176.34848 -10074124.95745  21997905.4064                   21997904.7074
 11  8 26  2  6  0.0000000  0  9G10G15G12G26G29G05G25G02G30
 -11871737.12546  -9224590.75044  24329730.1564                   24329729.6644
   3454785.53947   2717948.73444  24092076.7664                   24092076.5084
 -21009765.47347 -16345954.21146  21926399.9614                   21926398.7034
  -4490606.11347  -3461127.14144  23193167.8204                   23193167.7154
  -9845114.68447  -7558746.35946  22309327.3364                   22309326.3554
 -26320818.82048 -20482442.95746  20668914.4774                   20668912.8054
 -16691209.08648 -12997773.84846  21761967.4844                   21761968.5594
 -26961833.89548 -20981185.43445  21939640.9844                   21939637.3834
 -13265307.57448 -10080460.97745  21996358.0784                   21996357.2274
 11  8 26  2  6 30.0000000  0  9G10G15G12G26G29G05G25G02G30
 -11794447.44547  -9164365.04744  24344437.9694                   24344437.4304
   3328048.24247   2619192.53944  24067958.9304                   24067959.0554
 -20968126.40647 -16313508.19546  21934323.3524                   21934322.4144
  -4611829.87147  -3555587.15644  23170099.2034                   23170099.2344
  -9955376.23447  -7644664.44145  22288345.5704                   22288344.0554
 -26310264.64148 -20474218.91046  20670923.2664                   20670921.2664
 -16705667.61348 -13009040.24246  21759215.9064                   21759217.4104
 -26953265.46947 -20974508.75045  21941271.3754                   21941267.7734
 -13272885.00048 -10086365.46945  21994916.2274                   21994915.4654
 11  8 26  2  7  0.0000000  0  9G10G15G12G26G29G05G25G02G30
 -11717087.66847  -9104084.72343  24359158.9454                   24359158.6024
   3201265.41847   2520400.86744  24043833.0164                   24043832.5904
 -20926137.31647 -16280789.41846  21942313.7974                   21942312.5044
  -4732877.87147  -3649910.18444  23147064.7894                   23147064.5474
 -10065512.13347  -7730484.59045  22267387.2894                   22267385.8954
 -26299257.57848 -20465641.97346  20673017.6024                   20673015.5474
 -16719579.43748 -13019880.63346  21756568.8284                   21756570.0474
 -26944619.02347 -20967771.26645  21942917.0004                   21942913.7344
 -13279918.38348 -10091846.02045  21993578.2194                   21993576.8484
 11  8 26  2  7 30.0000000  0  9G10G15G12G26G29G05G25G02G30
 -11639655.00046  -9043747.59843  24373894.1094                   24373893.7384
   3074445.28947   2421580.13344  24019699.6174                   24019700.0124
 -20883795.48448 -16247795.78946  21950371.3914                   21950370.3714
  -4853741.31847  -3744089.41844  23124064.8984                   23124065.0594
 -10175514.73447  -7816200.88346  22246454.2114                   22246453.0634
 -26287794.09448 -20456709.39146  20675198.9844                   20675197.0474
 -16732940.47748 -13030291.83646  21754026.2974                   21754027.4064
 -26935888.93747 -20960968.62145  21944578.1484                   21944574.9104
 -13286404.04748 -10096899.78545  21992343.6254                   21992342.9844
 11  8 26  2  8  0.0000000  0  9G10G15G12G26G29G05G25G02G30
 -11562157.21946  -8983359.73843  24388641.5164                   24388641.5314
   2947585.32447   2322728.37144  23995559.0864                   23995559.8204
 -20841109.36348 -16214533.87946  21958494.3834                   21958493.2894
  -4974421.86747  -3838126.14544  23101099.9454                   23101100.1604
 -10285387.06247  -7901815.66045  22225546.0084                   22225544.5594
 -26275881.93448 -20447427.17246  20677466.0704                   20677464.2344
 -16745757.30548 -13040278.97346  21751587.3754                   21751588.2774
 -26927080.71547 -20954105.08245  21946254.1644                   21946250.9064
 -13292349.02748 -10101532.24245  21991212.5314                   21991211.4344
 11  8 26  2  8 30.0000000  0  9G10G15G12G26G29G05G25G02G30
 -11484589.44546  -8922917.34443  24403402.4224                   24403401.7074
   2820695.64547   2223853.43444  23971412.5394                   23971413.2234
 -20798074.39548 -16181000.14846  21966683.2894                   21966682.5044
  -5094908.70747  -3932011.93444  23078172.7894                   23078172.0204
 -10395119.95347  -7987321.77045  22204664.5634                   22204663.0594
 -26263515.87148 -20437791.27046  20679819.2034                   20679817.7664
 -16758023.91048 -13049837.37146  21749253.0164                   21749253.9144
 -26918186.60547 -20947174.62545  21947946.5474                   21947943.1214
 -13297747.85548 -10105739.11745  21990184.9614                   21990184.3484
 11  8 26  2  9  0.0000000  0  9G10G15G12G26G29G05G25G02G30
 -11406968.32046  -8862433.37143  24418172.5944                   24418172.8634
   2693764.66447   2124946.30144  23947258.6094                   23947258.6254
 -20754707.62147 -16147207.86346  21974935.9694                   21974934.8164
  -5215212.06247  -4025754.73844  23055279.8364                   23055278.9964
 -10504725.13347  -8072728.37545  22183807.7424                   22183805.9694
 -26250711.88748 -20427814.12946  20682255.5394                   20682253.4964
 -16769755.55548 -13058978.91446  21747020.7274                   21747021.4064
 -26909220.74647 -20940188.25445  21949652.8364                   21949649.5864
 -13302616.10947 -10109532.56645  21989258.5634                   21989258.0664
 11  8 26  2  9 30.0000000  0  9G10G15G12G26G29G05G25G02G30
 -11329292.93446  -8801907.17243  24432954.1564                   24432953.9024
   2566798.59446   2026011.82444  23923097.6884                   23923097.7034
 -20711008.81648 -16113156.84446  21983251.3364                   21983249.9654
  -5335325.58247  -4119349.61344  23032422.5314                   23032422.2814
 -10614197.72347  -8158031.66446  22162975.6174                   22162974.1884
 -26237469.08248 -20417495.05546  20684775.9224                   20684773.3984
 -16780950.64848 -13067702.35946  21744890.3594                   21744891.6484
 -26900180.19548 -20933143.68745  21951373.4844                   21951369.7584
 -13306952.76247 -10112911.78545  21988433.0164                   21988432.3634
 11  8 26  2 10  0.0000000  0  9G10G15G12G26G29G05G25G02G30
 -11251552.59846  -8741330.32043  24447747.1484                   24447747.2664
   2439813.41047   1927062.46144  23898933.2974                   23898932.6254
 -20666967.33248 -16078838.79346  21991632.2734                   21991630.9654
  -5455231.75847  -4212782.93044  23009605.1884                   23009604.4144
 -10723522.23447  -8243219.55946  22142171.8754                   22142170.3094
 -26223776.32048 -20406825.35246  20687381.1884                   20687379.6334
 -16791597.11748 -13075998.30546  21742864.4774                   21742865.3364
 -26891051.38748 -20926030.34445  21953110.6804                   21953107.0354
 -13310746.23047 -10115867.73845  21987711.3284                   21987710.5664
 11  8 26  2 10 30.0000000  0  9G10G15G12G26G29G05G25G02G30
 -11173759.85945  -8680712.66443  24462550.4924                   24462550.2624
   2312801.88347   1828092.56644  23874763.7344                   23874763.3324
 -20622596.35548 -16044264.00845  22000075.9304                   22000074.4574
  -5574937.56647  -4306060.10944  22986825.9534                   22986824.9884
 -10832706.56247  -8328298.21946  22121394.7424                   22121393.3164
 -26209646.11748 -20395814.78946  20690070.5004                   20690068.0394
 -16801706.48848 -13083875.72746  21740940.6884                   21740941.5594
 -26881844.44948 -20918856.11345  21954862.6094                   21954859.1094
 -13314008.34447 -10118409.64545  21987090.6644                   21987089.9774
 11  8 26  2 11  0.0000000  0  9G10G15G12G26G29G05G25G02G30
 -11095917.28946  -8620056.09843  24477363.7814                   24477363.3484
   2185766.10247   1729103.77044  23850589.3284                   23850589.1804
 -20577899.43748 -16009435.24246  22008581.3134                   22008580.1414
  -5694439.73847  -4399178.62144  22964085.3444                   22964084.6764
 -10941748.95747  -8413266.28545  22100644.8134                   22100643.6524
 -26195081.33648 -20384465.59446  20692842.0394                   20692839.7274
 -16811280.68748 -13091336.13746  21739118.7734                   21739119.6454
 -26872559.76648 -20911621.31645  21956629.5474                   21956625.8324
 -13316741.61348 -10120539.46545  21986570.3284                   21986570.3094
 11  8 26  2 11 30.0000000  0  9G10G15G12G26G29G05G25G02G30
 -11018029.49646  -8559364.37143  24492184.8054                   24492185.1024
   2058707.34447   1630097.08244  23826410.3914                   23826410.6054
 -20532881.37948 -15974356.24246  22017148.0554                   22017147.3134
  -5813736.45747  -4492137.04344  22941384.0634                   22941383.1094
 -11050649.14848  -8498123.53546  22079921.6724                   22079920.3714
 -26180085.35248 -20372780.40246  20695695.6334                   20695693.5124
 -16820322.85548 -13098381.97746  21737397.9304                   21737399.3674
 -26863198.98448 -20904327.21545  21958410.6954                   21958407.2274
 -13318949.55147 -10122259.93445  21986150.2734                   21986149.6094
 11  8 26  2 12  0.0000000  0  9G10G15G12G26G29G05G25G02G30
 -10940090.65646  -8498632.82443  24507016.4064                   24507016.7734
   1931636.46147   1531080.94944  23802229.7034                   23802229.7194
 -20487536.55948 -15939022.61746  22025776.6094                   22025775.4774
  -5932815.85247  -4584926.10244  22918723.9224                   22918723.3634
 -11159396.93448  -8582862.02346  22059227.4614                   22059226.0204
 -26164652.52748 -20360754.80946  20698632.3054                   20698630.2624
 -16828826.33648 -13105008.06646  21735779.6484                   21735780.9304
 -26853753.83648 -20896967.37545  21960208.2734                   21960205.0204
 -13320626.04747 -10123566.28145  21985831.6024                   21985830.5124
 11  8 26  2 12 30.0000000  0  9G10G15G12G26G29G05G25G02G30
 -10862106.73946  -8437866.12643  24521856.7814                   24521856.3674
   1804552.41847   1432054.53944  23778046.1024                   23778045.9414
 -20441871.83248 -15903439.72346  22034466.7504                   22034465.5274
  -6051677.89547  -4677545.82044  22896105.3914                   22896104.5084
 -11267993.92247  -8667483.02346  22038562.2344                   22038560.9104
 -26148788.79748 -20348393.44546  20701650.8754                   20701648.6334
 -16836796.39848 -13111218.48846  21734263.1414                   21734264.5314
 -26844227.76647 -20889544.47345  21962020.7974                   21962017.3554
 -13321776.70348 -10124462.88345  21985612.5004                   21985612.0594
 11  8 26  2 13  0.0000000  0  9G10G15G12G26G29G05G25G02G30
 -10784080.58646  -8377066.49643  24536704.6334                   24536703.8284
   1677457.67247   1333019.78943  23753861.1724                   23753860.6094
 -20395890.73048 -15867610.30146  22043216.5784                   22043215.3204
  -6170319.51247  -4769993.77044  22873528.6644                   22873527.7424
 -11376438.36347  -8751985.14546  22017925.8204                   22017924.3554
 -26132497.03148 -20335698.54346  20704750.9454                   20704748.9964
 -16844234.90248 -13117014.72346  21732847.6954                   21732848.4884
 -26834621.33647 -20882058.96145  21963849.1174                   21963845.6954
 -13322403.90248 -10124951.60245  21985493.0864                   21985492.7734
 11  8 26  2 13 30.0000000  0  9G10G15G12G26G29G05G25G02G30
 -10706012.15646  -8316233.94942  24551560.6174                   24551559.2704
   1550357.55947   1233980.84444  23729674.7584                   23729673.9224
 -20349593.78948 -15831534.76646  22052026.5164                   22052025.1094
  -6288734.52347  -4862265.14844  22850994.6804                   22850993.5704
 -11484725.44948  -8836364.66046  21997319.1484                   21997317.8954
 -26115776.84448 -20322669.81246  20707932.9924                   20707931.1564
 -16851140.94148 -13122396.04346  21731533.4614                   21731534.0514
 -26824932.23047 -20874509.02045  21965692.9844                   21965689.1994
 -13322507.18747 -10125032.08645  21985473.3674                   21985472.8014
 11  8 26  2 14  0.0000000  0  9G10G15G12G26G29G05G25G02G30
 -10627903.93046  -8255370.37543  24566423.6334                   24566423.5314
   1423254.92647   1134939.94544  23705487.0554                   23705487.4224
 -20302984.00448 -15795215.46146  22060896.1334                   22060894.8204
  -6406919.49647  -4954357.28544  22828504.5084                   22828503.8244
 -11592853.36348  -8920620.14146  21976743.1174                   21976742.1644
 -26098630.65648 -20309309.13346  20711195.6094                   20711193.4184
 -16857516.18448 -13127363.75046  21730320.4144                   21730321.4064
 -26815160.09848 -20866894.37945  21967552.4614                   21967548.9654
 -13322088.65247 -10124705.94945  21985552.8364                   21985552.3634
 11  8 26  2 14 30.0000000  0  9G10G15G12G26G29G05G25G02G30
 -10549757.81247  -8194477.27043  24581294.7974                   24581293.6764
   1296152.60946   1035899.26244  23681300.4844                   23681300.0664
 -20256064.19948 -15758654.57845  22069824.9224                   22069823.0634
  -6524870.62547  -5046267.19944  22806059.6884                   22806058.6524
 -11700819.70748  -9004749.72346  21956197.8524                   21956196.6254
 -26081060.53548 -20295618.10946  20714539.1954                   20714537.3554
 -16863362.09848 -13131919.00046  21729207.7584                   21729209.0784
 -26805304.75048 -20859214.89545  21969427.8204                   21969424.5314
 -13321150.18047 -10123974.66845  21985731.5314                   21985731.3674
 11  8 26  2 15  0.0000000  0  8G15G12G26G29G05G25G02G30
   1169052.02746    936859.96544  23657114.1334                   23657113.5164
 -20208838.55148 -15721855.37546  22078811.5004                   22078809.9534
  -6642585.85547  -5137993.29744  22783658.8674                   22783657.9774
 -11808623.66448  -9088752.77346  21935683.1024                   21935682.3444
 -26063070.32048 -20281599.74646  20717962.6254                   20717960.4494
 -16868681.68448 -13136064.13346  21728195.6094                   21728196.6524
 -26795367.58647 -20851471.64845  21971318.7894                   21971314.9734
 -13319695.27747 -10122840.98045  21986008.4144                   21986007.8634
 11  8 26  2 15 30.0000000  0  8G15G12G26G29G05G25G02G30
   1041962.26646    837829.08244  23632929.7344                   23632929.4414
 -20161304.16048 -15684815.59846  22087856.9144                   22087855.5354
  -6760055.35247  -5229527.91844  22761305.1414                   22761304.3244
 -11916257.32448  -9172623.11746  21915201.2584                   21915200.2074
 -26044656.39848 -20267251.22746  20721466.4774                   20721464.4384
 -16873470.55948 -13139795.72346  21727284.3134                   21727285.2074
 -26785342.14547 -20843659.60945  21973226.6884                   21973223.3134
 -13317719.99248 -10121301.79745  21986384.3444                   21986383.1764
 11  8 26  2 16  0.0000000  0  8G15G12G26G29G05G25G02G30
    914885.64846    738808.45744  23608747.5554                   23608747.8244
 -20113464.25448 -15647537.75046  22096960.2974                   22096959.3554
  -6877275.66447  -5320868.36745  22738999.1024                   22738998.0354
 -12023718.51247  -9256359.06246  21894752.4384                   21894750.8134
 -26025821.14848 -20252574.38346  20725050.8284                   20725048.3914
 -16877730.62548 -13143115.25046  21726473.5554                   21726474.7774
 -26775228.64547 -20835778.95345  21975151.0234                   21975147.5704
 -13315226.68047 -10119358.95745  21986859.3984                   21986858.4384
 11  8 26  2 16 30.0000000  0  9G21G15G12G26G29G05G25G02G30
   7749379.70756   6055955.58653  25146383.6954                   25146383.6724
    787824.60546    639799.97344  23584568.4924                   23584568.4184
 -20065322.64848 -15610024.80145  22106121.7584                   22106119.8794
  -6994243.73047  -5412012.26244  22716740.0944                   22716739.2304
 -12131005.37948  -9339959.18046  21874336.2734                   21874334.8524
 -26006567.02748 -20237571.15646  20728714.5164                   20728712.2664
 -16881463.89148 -13146024.28546  21725763.1414                   21725764.5124
 -26765027.45348 -20827829.95345  21977092.1884                   21977088.6884
 -13312217.72748 -10117014.32845  21987431.2734                   21987430.9304
 11  8 26  2 17  0.0000000  0  9G21G15G12G26G29G05G25G02G30
   7663132.19546   5988749.87543  25129970.6644                   25129971.2504
    660782.32446    540806.10244  23560393.3754                   23560393.1054
 -20016881.57448 -15572278.51246  22115339.3754                   22115338.3834
  -7110955.50047  -5502956.44145  22694531.0394                   22694530.5554
 -12238115.64848  -9423421.68446  21853953.9534                   21853952.2624
 -25986896.58248 -20222243.52746  20732457.6884                   20732456.0824
 -16884671.98848 -13148524.10546  21725152.8834                   21725154.1334
 -26754738.26647 -20819812.39845  21979050.5314                   21979046.6374
 -13308695.22748 -10114269.53945  21988101.9304                   21988101.0824
 11  8 26  2 17 30.0000000  0  9G21G15G12G26G29G05G25G02G30
   7576884.89546   5921544.29743  25113559.0234                   25113558.7274
    533755.71146    441824.42644  23536220.4224                   23536220.5984
 -19968150.66847 -15534306.38745  22124612.9924                   22124611.4414
  -7227413.52347  -5593702.90244  22672369.5554                   22672368.6564
 -12345053.00848  -9506749.45346  21833604.2114                   21833602.9654
 -25966817.97748 -20206597.84446  20736278.8134                   20736276.1994
 -16887362.53548 -13150620.64546  21724640.8134                   21724642.0124
 -26744366.79748 -20811730.71545  21981023.8524                   21981020.5554
 -13304667.21548 -10111130.82445  21988868.3834                   21988867.1524
 11  8 26  2 18  0.0000000  0  9G21G15G12G26G29G05G25G02G30
   7490631.46546   5854333.97343  25097145.2894                   25097145.0634
    406741.75847    342852.62144  23512050.8364                   23512050.7774
 -19919138.68747 -15496115.22345  22133939.3834                   22133938.3634
  -7343619.95747  -5684253.31645  22650256.3914                   22650255.2234
 -12451821.06248  -9589945.29346  21813287.2034                   21813285.2624
 -25946339.44148 -20190640.53546  20740175.5634                   20740173.7424
 -16889543.15648 -13152319.83246  21724225.7974                   21724226.9574
 -26733919.16448 -20803589.68045  21983012.0394                   21983008.2584
 -13300141.73448 -10107604.47345  21989729.8364                   21989728.7704
 11  8 26  2 18 30.0000000  0  9G21G15G12G26G29G05G25G02G30
   7404382.06346   5787126.76643  25080731.9534                   25080732.4384
    279754.55147    243901.64144  23487885.9924                   23487885.6844
 -19869837.35547 -15457698.61345  22143321.0784                   22143320.2704
  -7459560.42647  -5774596.48045  22628193.1564                   22628192.7664
 -12558407.04748  -9672999.26246  21793004.3134                   21793002.9574
 -25925452.36348 -20174364.87146  20744150.4144                   20744148.1564
 -16891204.70348 -13153614.55146  21723909.6484                   21723910.3484
 -26723383.93048 -20795380.38745  21985016.7114                   21985013.5004
 -13295110.09448 -10103683.69945  21990686.9694                   21990685.8954
 11  8 26  2 19  0.0000000  0  9G21G15G12G26G29G05G25G02G30
   7318132.82446   5719919.66843  25064319.0314                   25064318.9064
    152792.89147    144970.57844  23463725.8914                   23463725.4694
 -19820253.50847 -15419061.85246  22152756.7344                   22152755.8714
  -7575234.44947  -5864732.03145  22606181.1644                   22606180.5634
 -12664812.00448  -9755912.16846  21772756.2034                   21772754.6054
 -25904163.04748 -20157775.78946  20748201.4694                   20748199.2974
 -16892352.53548 -13154508.95346  21723691.1644                   21723691.6724
 -26712764.25847 -20787105.29745  21987037.5004                   21987034.0274
 -13289578.09848 -10099373.05145  21991739.9924                   21991738.6684
 11  8 26  2 19 30.0000000  0  9G21G15G12G26G29G05G25G02G30
   7231888.24646   5652716.23843  25047907.2194                   25047907.7934
     25865.07847     46065.89144  23439572.6724                   23439571.8404
 -19770384.74647 -15380203.07045  22162246.5864                   22162245.3984
  -7690633.35947  -5954653.19945  22584222.3524                   22584221.2584
 -12771028.54348  -9838678.26246  21752543.5554                   21752542.5514
 -25882468.03548 -20140870.57446  20752329.9224                   20752327.7704
 -16892983.12148 -13155000.31646  21723571.0394                   21723572.0004
 -26702054.82847 -20778760.27045  21989075.5004                   21989072.2464
 -13283542.61748 -10094670.08645  21992887.8364                   21992887.1644
 11  8 26  2 20  0.0000000  0  9G21G15G12G26G29G05G25G02G30
   7145638.56646   5585508.85943  25031494.2664                   25031494.6134
   -101034.79747    -52817.02744  23415424.0554                   23415423.5824
 -19720243.18748 -15341131.72745  22171788.0864                   22171786.2624
  -7805762.50047  -6044364.16045  22562313.1644                   22562312.3524
 -12877063.30948  -9921302.71546  21732365.5784                   21732364.6764
 -25860378.50448 -20123657.94146  20756533.6724                   20756531.1254
 -16893107.21948 -13155097.00446  21723547.5234                   21723548.4774
 -26691264.53148 -20770352.22345  21991128.6414                   21991125.3134
 -13277014.85248 -10089583.51245  21994130.2034                   21994129.7114
 11  8 26  2 20 30.0000000  0  9G21G15G12G26G29G05G25G02G30
   7059379.66046   5518294.26643  25015080.1414                   25015079.5434
   -227907.44147   -151678.73844  23391281.0394                   23391280.2464
 -19669835.77348 -15301853.20745  22181380.3134                   22181378.6054
  -7920621.87547  -6133864.91445  22540456.3204                   22540455.2344
 -12982917.78948 -10003786.69146  21712222.7894                   21712220.9384
 -25837900.78548 -20106142.82846  20760811.0164                   20760808.8014
 -16892730.48048 -13154803.43746  21723619.1804                   21723620.1254
 -26680396.84848 -20761883.88745  21993196.9534                   21993193.5474
 -13270000.87148 -10084118.07445  21995465.4144                   21995464.2544
 11  8 26  2 21  0.0000000  0  9G21G15G12G26G29G05G25G02G30
   6973121.41846   5451080.19143  24998664.9534                   24998664.9884
   -354739.05947   -250508.48044  23367145.2424                   23367144.8094
 -19619154.52347 -15262361.31245  22191024.6414                   22191022.7894
  -8035197.09847  -6223144.26245  22518653.3834                   22518652.2934
 -13088578.83248 -10086119.93746  21692116.0704                   21692114.3244
 -25815026.46548 -20088318.67246  20765163.6564                   20765161.6174
 -16891843.94948 -13154112.63346  21723787.7344                   21723788.8404
 -26669441.02348 -20753346.86345  21995281.4844                   21995278.2344
 -13262492.12148 -10078267.09845  21996893.7664                   21996893.3244
 11  8 26  2 21 30.0000000  0  9G21G15G12G26G29G05G25G02G30
   6886861.48046   5383864.83243  24982250.8834                   24982250.0594
   -481528.70347   -349305.52344  23343018.0864                   23343017.1644
 -19568204.33247 -15222659.85245  22200720.1024                   22200718.4804
  -8149486.12947  -6312200.59845  22496904.8444                   22496903.8984
 -13194046.10948 -10168302.19146  21672045.9694                   21672044.8284
 -25791759.93448 -20070188.89546  20769591.2034                   20769589.1524
 -16890451.19948 -13153027.37146  21724052.7274                   21724053.9454
 -26658398.29748 -20744742.12145  21997382.8134                   21997379.5354
 -13254492.57048 -10072033.68745  21998416.0164                   21998415.3204
 11  8 26  2 22  0.0000000  0  9G21G15G12G26G29G05G25G02G30
   6800599.90646   5316648.12943  24965835.8364                   24965835.0124
   -608273.07047   -448067.28544  23318899.3204                   23318898.6764
 -19516987.61747 -15182750.72345  22210466.4694                   22210464.8364
  -8263485.15647  -6401030.94945  22475211.2034                   22475210.7974
 -13299317.02348 -10250331.43746  21652013.6564                   21652012.2304
 -25768103.22748 -20051755.08646  20774093.0164                   20774090.6174
 -16888553.85948 -13151548.92246  21724413.9614                   21724414.9304
 -26647268.24248 -20736069.33645  21999500.9064                   21999497.4384
 -13246004.34448 -10065419.49645  22000031.4694                   22000030.9804
 11  8 26  2 22 30.0000000  0  9G21G15G12G26G29G05G25G02G30
   6714329.41846   5249424.53143  24949417.9844                   24949417.7384
   -734975.55147   -546796.39844  23294788.6644                   23294787.9344
 -19465514.04347 -15142641.44945  22220261.1334                   22220260.2114
  -8377197.12947  -6489637.62945  22453572.9774                   22453572.1454
 -13404395.65248 -10332210.86346  21632017.8754                   21632016.3914
 -25744064.97748 -20033023.97346  20778667.1564                   20778665.5554
 -16886160.20748 -13149683.73446  21724869.4224                   21724870.2034
 -26636057.02348 -20727333.31245  22001634.9144                   22001630.6564
 -13237036.13748 -10058431.28145  22001738.2344                   22001737.3874
 11  8 26  2 23  0.0000000  0  9G21G15G12G26G29G05G25G02G30
   6628052.50046   5182195.88743  24933000.2584                   24932999.8754
   -861630.18047   -645488.23044  23270687.4534                   23270686.2464
 -19413783.98847 -15102332.32445  22230105.2974                   22230104.4224
  -8490615.11747  -6578015.23045  22431989.9694                   22431988.8634
 -13509276.68748 -10413936.30546  21612059.5314                   21612058.0234
 -25719644.67648 -20013995.15646  20783314.4384                   20783312.3634
 -16883269.16848 -13147430.95746  21725419.5474                   21725420.4924
 -26624761.34048 -20718531.47745  22003783.8984                   22003780.2274
 -13227587.21147 -10051068.47745  22003536.1804                   22003535.5274
 11  8 26  2 23 30.0000000  0  9G21G15G12G26G29G05G25G02G30
   6541772.16046   5114964.61942  24916581.3834                   24916582.0204
   -988230.12147   -744137.45744  23246595.8914                   23246594.5594
 -19361796.35547 -15061822.48845  22239998.3524                   22239997.4024
  -8603731.79347  -6666158.04345  22410464.2814                   22410463.6414
 -13613954.19148 -10495503.16046  21592140.0314                   21592138.8834
 -25694840.73848 -19994667.40646  20788034.2274                   20788032.1454
 -16879879.11348 -13144789.34446  21726064.1884                   21726065.6564
 -26613377.18748 -20709660.70745  22005950.2814                   22005946.8244
 -13217656.34448 -10043330.14545  22005425.5474                   22005425.2194
 11  8 26  2 24  0.0000000  0  9G21G15G12G26G29G05G25G02G30
   6455487.04346   5047729.58242  24900162.3134                   24900162.4064
  -1114773.38347   -842742.52344  23222515.4304                   23222514.1884
 -19309555.29747 -15021115.18745  22249938.9534                   22249938.1134
  -8716544.33247  -6754063.87545  22388997.0234                   22388996.1334
 -13718426.74648 -10576910.31246  21572259.7114                   21572258.4104
 -25669656.52348 -19975043.34046  20792826.5704                   20792824.5634
 -16875992.73448 -13141760.98046  21726804.0394                   21726805.4144
 -26601905.41448 -20700721.66445  22008133.2424                   22008130.0044
 -13207246.80547 -10035218.81645  22007406.8594                   22007406.0594
 11  8 26  2 24 30.0000000  0  9G21G15G12G26G29G05G25G02G30
   6369194.38346   4980488.71942  24883740.9844                   24883740.6134
  -1241258.87947   -941302.56644  23198445.9614                   23198444.7504
 -19257065.78548 -14980214.28945  22259927.4534                   22259926.6644
  -8829050.99647  -6841731.35245  22367587.7034                   22367587.0474
 -13822693.53948 -10658157.12946  21552418.3834                   21552416.5044
 -25644096.33648 -19955126.30946  20797690.6414                   20797688.4964
 -16871613.80548 -13138348.81646  21727637.3834                   21727638.8674
 -26590347.27348 -20691715.32845  22010332.5634                   22010329.1174
 -13196362.54747 -10026737.57845  22009477.9844                   22009476.9614
 11  8 26  2 25  0.0000000  0  9G21G15G12G26G29G05G25G02G30
   6282886.30546   4913235.78142  24867316.9614                   24867316.7894
  -1367691.07047  -1039821.06644  23174386.7034                   23174385.5124
 -19204338.12147 -14939127.79745  22269961.3204                   22269960.5784
  -8941255.66047  -6929163.51645  22346235.7974                   22346234.7504
 -13926760.20748 -10739247.99646  21532614.7194                   21532613.5044
 -25618170.08647 -19934924.02746  20802623.8984                   20802622.0784
 -16866751.88348 -13134560.29346  21728562.7504                   21728563.7234
 -26578710.27748 -20682647.53545  22012547.0474                   22012543.5554
 -13185013.69148 -10017894.30545  22011636.8834                   22011636.9144
 11  8 26  2 25 30.0000000  0  9G21G15G12G26G29G05G25G02G30
   6196570.52746   4845976.88342  24850891.8914                   24850891.1684
  -1494058.71147  -1138289.27344  23150339.5394                   23150338.5204
 -19151367.43048 -14897851.94145  22280041.6884                   22280040.1524
  -9053146.37547  -7016351.04745  22324943.5944                   22324942.6524
 -14030616.16848 -10820174.68746  21512851.5474                   21512850.4144
 -25591871.94948 -19914431.96946  20807628.6804                   20807626.7704
 -16861400.82848 -13130390.62146  21729581.0394                   21729582.1914
 -26566985.80948 -20673511.60245  22014778.3754                   22014774.4804
 -13173194.42247 -10008684.48045  22013886.7274                   22013885.8834
 11  8 26  2 26  0.0000000  0  9G21G15G12G26G29G05G25G02G30
   6110249.62146   4778713.92242  24834465.1094                   24834464.9614
  -1620355.93447  -1236702.62544  23126305.5314                   23126304.8524
 -19098153.42247 -14856386.47745  22290167.7504                   22290166.6564
  -9164716.55947  -7103288.80945  22303712.3524                   22303711.6804
 -14134256.01648 -10900932.96946  21493129.9224                   21493128.2814
 -25565201.15648 -19893649.52346  20812703.4384                   20812701.6174
 -16855559.67648 -13125839.05946  21730692.5944                   21730692.9534
 -26555170.60948 -20664304.94945  22017026.7664                   22017022.8834
 -13160904.12148  -9999107.60245  22016225.3834                   22016224.5704
 11  8 26  2 26 30.0000000  0  9G21G15G12G26G29G05G25G02G30
   6023910.93846   4711437.20342  24818034.3984                   24818036.0234
  -1746591.40247  -1335067.85545  23102284.7504                   23102283.3984
 -19044711.07047 -14814743.09845  22300337.3364                   22300336.1134
  -9275974.37947  -7189983.16045  22282540.6564                   22282540.1844
 -14237688.93448 -10981530.00446  21473446.5394                   21473445.7384
 -25538172.29348 -19872588.06246  20817847.4384                   20817845.2384
 -16849242.23448 -13120916.35946  21731894.8444                   21731896.0474
 -26543276.09848 -20655036.52045  22019290.1884                   22019286.7624
 -13148157.10947  -9989174.86345  22018650.8834                   22018650.4694
 11  8 26  2 27  0.0000000  0  9G21G15G12G26G29G05G25G02G30
   7512986.20746   5871755.69142  25101396.0944                   25101396.5314
   -297328.38747   -205771.93444  23378069.8524                   23378068.8834
 -17415615.54348 -13545318.01645  22610344.2344                   22610342.7584
  -7811482.98447  -6048820.99645  22561224.5554                   22561223.2934
 -12765480.01648  -9834354.18446  21753599.1334                   21753597.6024
 -23935358.69148 -18623642.40246  21122852.5864                   21122850.6764
 -15267021.39848 -11888016.98846  22032981.2664                   22032982.2234
 -24955872.98847 -19418099.03945  22321362.7194                   22321359.6294
 -11559526.89547  -8751281.18745  22320957.4774                   22320956.4264
 11  8 26  2 27 30.0000000  0  9G21G15G12G26G29G05G25G02G30
   7426631.49246   5804466.44142  25084963.1884                   25084964.1724
   -423409.87947   -304017.15244  23354076.6024                   23354076.2664
 -17361704.67647 -13503309.56245  22620603.1644                   22620601.9144
  -7922083.94147  -6135003.51645  22540177.3284                   22540176.6134
 -12868471.45348  -9914607.19946  21734000.2194                   21733998.6254
 -23907598.90648 -18602011.39146  21128135.2894                   21128132.7624
 -15259736.43448 -11882340.37546  22034367.5704                   22034368.4654
 -24943797.84847 -19408689.84845  22323660.4844                   22323657.2974
 -11545852.50448  -8740625.79345  22323559.6254                   22323558.2034
 11  8 26  2 28  0.0000000  0  9G21G15G12G26G29G05G25G02G30
   7340268.32046   5737170.58642  25068529.7734                   25068529.2664
   -549409.53947   -402198.63344  23330099.8054                   23330099.0784
 -17307563.41847 -13461121.58245  22630905.9384                   22630904.7624
  -8032350.54347  -6220925.49245  22519194.5784                   22519193.6724
 -12971238.18048  -9994685.13746  21714444.6414                   21714443.0904
 -23879477.02748 -18580098.23446  21133486.6644                   21133484.2274
 -15251970.44148 -11876288.94146  22035845.3134                   22035846.5084
 -24931631.53547 -19399209.61345  22325975.8674                   22325972.6054
 -11531717.84047  -8729611.76645  22326249.3834                   22326248.3094
 11  8 26  2 28 30.0000000  0  9G21G15G12G26G29G05G25G02G30
   7253890.18846   5669863.05543  25052091.6644                   25052091.9384
   -675330.27347   -500318.62945  23306138.0314                   23306137.7774
 -17253200.99247 -13418761.26645  22641250.2664                   22641249.2384
  -8142285.16047  -6306588.78145  22498274.5474                   22498273.6134
 -13073783.82448 -10074590.80146  21694930.4694                   21694928.9804
 -23851001.41448 -18557909.43746  21138905.0704                   21138902.9144
 -15243731.55948 -11869869.02746  22037413.3524                   22037414.4224
 -24919379.81247 -19389662.80945  22328307.1564                   22328303.7074
 -11517131.34447  -8718245.64845  22329024.9064                   22329023.7704
 11  8 26  2 29  0.0000000  0  9G21G15G12G26G29G05G25G02G30
   7167497.61346   5602544.27043  25035652.0394                   25035652.0354
   -801167.76647   -598373.73845  23282191.8054                   23282190.9454
 -17198619.26248 -13376230.05945  22651637.0474                   22651635.7774
  -8251883.05947  -6391989.69945  22477418.7034                   22477417.9534
 -13176104.82448 -10154321.41046  21675459.7504                   21675457.8134
 -23822173.64548 -18535446.23046  21144390.8524                   21144388.6134
 -15235020.78148 -11863081.39146  22039070.6094                   22039071.9494
 -24907041.32448 -19380048.40645  22330655.2424                   22330651.9964
 -11502094.44947  -8706528.56245  22331886.5474                   22331885.7934
 11  8 26  2 29 30.0000000  0  9G21G15G12G26G29G05G25G02G30
   7081090.76646   5535214.38343  25019209.4924                   25019209.8554
   -926918.31647   -696361.10545  23258262.7034                   23258261.5274
 -17143820.80947 -13333529.97345  22662064.7974                   22662063.6134
  -8361139.80947  -6477124.78145  22456627.7034                   22456626.4804
 -13278198.16848 -10233874.63346  21656031.7274                   21656030.3204
 -23792995.12948 -18512709.71146  21149943.1484                   21149940.8524
 -15225839.53148 -11855927.17246  22040817.8134                   22040818.8754
 -24894614.76647 -19370365.37545  22333020.1644                   22333016.3914
 -11486608.94947  -8694461.91045  22334833.1174                   22334832.2464
 11  8 26  2 30  0.0000000  0  9G21G15G12G26G29G05G25G02G30
   6994667.42246   5467871.62143  25002763.3674                   25002762.8324
  -1052580.94147   -794279.97745  23234349.4384                   23234348.7624
 -17088810.60248 -13290664.87945  22672532.9144                   22672532.0354
  -8470053.79747  -6561992.77745  22435902.3444                   22435901.3404
 -13380063.42248 -10313250.10546  21636647.6334                   21636646.0664
 -23763470.17248 -18489703.24246  21155561.9304                   21155559.4184
 -15216191.85947 -11848409.50446  22042653.7034                   22042654.5434
 -24882101.52347 -19360614.79345  22335400.9694                   22335397.5514
 -11470679.33247  -8682049.21145  22337864.5864                   22337864.1484
 11  8 26  2 30 30.0000000  0  9G21G15G12G26G29G05G25G02G30
   6908231.22346   5400518.84443  24986314.4304                   24986313.8954
  -1178148.20347   -892124.53145  23210454.8984                   23210453.7774
 -17033587.05147 -13247633.53945  22683041.4924                   22683040.4884
  -8578616.94547  -6646587.39545  22415243.1024                   22415242.0004
 -13481693.90248 -10392442.65246  21617307.9844                   21617306.3204
 -23733596.68748 -18466425.19146  21161246.4384                   21161243.9224
 -15206075.69548 -11840526.77346  22044578.8444                   22044579.8554
 -24869497.15648 -19350793.19545  22337799.2894                   22337795.9344
 -11454303.75847  -8669289.01245  22340980.3674                   22340979.6254
 11  8 26  2 31  0.0000000  0  9G21G15G12G26G29G05G25G02G30
   6821783.88746   5333157.38743  24969864.3594                   24969863.8444
  -1303614.67247   -989890.53545  23186579.2734                   23186578.6214
 -16978151.18747 -13204436.77345  22693590.8984                   22693590.0594
  -8686823.66447  -6730904.26245  22394652.0784                   22394650.8954
 -13583084.67248 -10471448.41046  21598013.8754                   21598012.2544
 -23703375.15648 -18442875.93046  21166997.5394                   21166995.1094
 -15195490.82848 -11832278.82846  22046592.9534                   22046593.7304
 -24856798.91447 -19340898.44945  22340216.1334                   22340212.0474
 -11437482.50447  -8656181.52745  22344181.4614                   22344180.8444
 11  8 26  2 31 30.0000000  0  9G21G15G12G26G29G05G25G02G30
   6735317.76246   5265781.28143  24953410.4614                   24953410.3524
  -1428983.75047  -1087580.64844  23162722.4384                   23162721.1054
 -16922512.59047 -13161082.03145  22704178.1414                   22704177.3794
  -8794676.60247  -6814945.46945  22374128.2974                   22374126.9454
 -13684240.12948 -10550270.80546  21578764.9064                   21578763.0744
 -23672814.63748 -18419062.52746  21172813.0164                   21172810.5944
 -15184446.19548 -11823672.60946  22048694.9224                   22048695.7424
 -24844013.31648 -19330935.62545  22342649.0944                   22342645.3014
 -11420224.83247  -8642733.96945  22347465.4694                   22347464.7154
 11  8 26  2 32  0.0000000  0  9G21G15G12G26G29G05G25G02G30
   6648840.16046   5198396.21143  24936954.6724                   24936953.7034
  -1554245.74247  -1185187.32044  23138885.6334                   23138884.2074
 -16866667.17247 -13117566.11745  22714805.2584                   22714804.4414
  -8902165.30147  -6898702.85545  22353673.7664                   22353672.9844
 -13785151.04748 -10628902.64846  21559561.6954                   21559560.5634
 -23641910.46148 -18394981.34046  21178693.7734                   21178691.8484
 -15172937.04348 -11814704.44146  22050884.7584                   22050885.4734
 -24831133.03548 -19320899.03545  22345100.1334                   22345096.4534
 -11402526.39147  -8628942.96545  22350833.6954                   22350832.4024
 11  8 26  2 32 30.0000000  0  9G21G15G12G26G29G05G25G02G30
   6562345.13746   5130997.56643  24920494.9224                   24920494.0314
  -1679402.10947  -1282711.70345  23115069.5554                   23115068.3834
 -16810623.28947 -13073895.56245  22725470.4534                   22725469.0354
  -9009291.13747  -6982177.48845  22333288.9384                   22333287.5004
 -13885820.08248 -10707346.01646  21540405.5634                   21540403.8364
 -23610670.32448 -18370638.37146  21184638.4774                   21184636.5474
 -15160970.71948 -11805380.03546  22053161.9614                   22053162.7584
 -24818162.46948 -19310792.10245  22347567.8204                   22347564.7114
 -11384394.84447  -8614814.48445  22354284.0634                   22354282.6884
 11  8 26  2 33  0.0000000  0  9G21G15G12G26G29G05G25G02G30
   6475841.32446   5063592.08243  24904033.3444                   24904033.2114
  -1804440.62947  -1380144.25045  23091275.3284                   23091273.9024
 -16754374.72747 -13030065.51245  22736174.1724                   22736173.0394
  -9116041.31247  -7065359.40245  22312974.7664                   22312973.0904
 -13986235.09448 -10785591.43446  21521296.5084                   21521295.4064
 -23579086.84848 -18346027.85946  21190648.3834                   21190646.5634
 -15148540.07048 -11795693.81246  22055527.1804                   22055528.1564
 -24805092.01248 -19300607.32045  22350055.2034                   22350051.5314
 -11365823.43047  -8600343.23445  22357817.8984                   22357817.0984
 11  8 26  2 33 30.0000000  0  9G21G15G12G26G29G05G25G02G30
   6389319.50446   4996172.54343  24887569.5394                   24887568.3714
  -1929367.06647  -1477489.48045  23067502.3674                   23067501.0004
 -16697933.03947 -12986084.98445  22746914.5944                   22746913.4574
  -9222420.82447  -7148252.49645  22292731.3674                   22292729.8834
 -14086402.51248 -10863643.93046  21502235.2114                   21502233.6334
 -23547171.65648 -18321158.87146  21196721.9844                   21196719.6644
 -15135656.09848 -11785654.35546  22057979.0164                   22057980.1454
 -24791930.15248 -19290351.30545  22352559.7974                   22352556.0704
 -11346823.52347  -8585538.09045  22361433.5314                   22361432.4144
 11  8 26  2 34  0.0000000  0  9G21G15G12G26G29G05G25G02G30
   6302774.46546   4928734.91843  24871099.9144                   24871099.4264
  -2054183.03947  -1574748.62145  23043750.7274                   23043749.2384
 -16641306.12947 -12941960.12945  22757690.3754                   22757689.4144
  -9328431.06647  -7230857.84045  22272558.0944                   22272556.7704
 -14186325.22348 -10941505.73046  21483220.4144                   21483218.7234
 -23514931.85948 -18296036.93746  21202856.8914                   21202854.7664
 -15122326.05948 -11775267.30946  22060515.6884                   22060516.7584
 -24778680.98048 -19280027.26645  22355081.3364                   22355077.5864
 -11327402.83247  -8570405.07445  22365128.8524                   22365128.2544
 11  8 26  2 34 30.0000000  0  9G21G15G12G26G29G05G25G02G30
   6216214.21146   4861285.44543  24854628.0004                   24854627.4614
  -2178876.96547  -1671912.66445  23020022.1724                   23020020.9224
 -16584488.60247 -12897686.73845  22768502.3674                   22768501.6024
  -9434060.03947  -7313166.10245  22252457.7734                   22252455.9144
 -14285992.13348 -11019168.21146  21464254.9844                   21464253.5904
 -23482361.38748 -18270657.34046  21209054.9774                   21209053.0904
 -15108543.80148 -11764527.88346  22063138.6174                   22063140.0704
 -24765335.93048 -19269628.51245  22357620.9064                   22357617.3204
 -11307555.32447  -8554939.48045  22368905.6804                   22368904.5554
 11  8 26  2 35  0.0000000  0  9G21G15G12G26G29G05G25G02G30
   6129640.72746   4793825.69543  24838153.3054                   24838153.2814
  -2303443.02347  -1768977.06645  22996317.8674                   22996316.8634
 -16527480.98847 -12853265.23845  22779350.8204                   22779349.5164
  -9539301.09847  -7395172.09445  22232430.9614                   22232429.4804
 -14385398.17648 -11096627.42246  21445338.1484                   21445336.8794
 -23449459.87548 -18245019.78546  21215315.8364                   21215313.2854
 -15094308.81248 -11753435.68046  22065847.1334                   22065848.4494
 -24751891.89547 -19259152.63345  22360178.7274                   22360175.5314
 -11287280.99647  -8539141.29345  22372763.5314                   22372762.7854
 11  8 26  2 35 30.0000000  0  9G21G15G12G26G29G05G25G02G30
   6043045.24246   4726348.78543  24821675.2974                   24821674.1524
  -2427886.52747  -1865945.96945  22972637.0004                   22972635.8324
 -16470294.96947 -12808704.70345  22790233.0234                   22790231.3444
  -9644159.54747  -7476879.95745  22212477.1024                   22212475.8284
 -14484549.28548 -11173887.97746  21426470.8204                   21426469.2274
 -23416238.50048 -18219132.99646  21221637.5004                   21221635.2154
 -15079632.15248 -11741999.32846  22068640.2274                   22068641.0704
 -24738357.01247 -19248605.96945  22362754.6174                   22362751.0164
 -11266591.23447  -8523019.39845  22376701.1724                   22376700.1724
 11  8 26  2 36  0.0000000  0 10G21G15G12G26G29G05G25G02G30G18
   5956430.17647   4658856.61343  24805192.7344                   24805192.0594
  -2552201.63347  -1962814.82045  22948980.5784                   22948979.5124
 -16412930.42647 -12764005.07845  22801148.7344                   22801147.9144
  -9748629.00447  -7558284.69545  22192597.0474                   22192595.6844
 -14583440.28548 -11250945.84846  21407652.1804                   21407650.6524
 -23382696.91448 -18192996.68746  21228020.0944                   21228018.1254
 -15064513.23448 -11730218.35246  22071517.1724                   22071518.0744
 -24724727.86747 -19237985.84845  22365347.9614                   22365344.7814
 -11245485.83248  -8506573.61345  22380716.7584                   22380716.0204
   9303991.55915                  24706129.680
 11  8 26  2 36 30.0000000  0 10G21G15G12G26G29G05G25G02G30G18
   5869791.48447   4591346.03143  24788705.8444                   24788704.8134
  -2676388.53147  -2059583.77345  22925348.5394                   22925347.6374
 -16355393.78947 -12719171.33245  22812097.5004                   22812096.3634
  -9852709.10547  -7639386.03545  22172790.8204                   22172790.0204
 -14682071.91848 -11327801.60946  21388883.2424                   21388881.7034
 -23348840.50048 -18166615.05546  21234463.3834                   21234461.1174
 -15048957.71548 -11718097.16046  22074477.4694                   22074478.5234
 -24711007.59047 -19227294.71545  22367959.2274                   22367955.5634
 -11223970.69947  -8489808.56245  22384811.7344                   22384810.6094
   9184394.652 5                  24683370.203
 11  8 26  2 37  0.0000000  0 10G21G15G12G26G29G05G25G02G30G18
   5783126.00046   4523814.58243  24772213.7504                   24772212.9734
  -2800446.73447  -2156252.44545  22901740.8444                   22901739.8914
 -16297690.96147 -12674208.09445  22823078.0394                   22823076.7934
  -9956398.83648  -7720183.20345  22153059.6334                   22153058.9454
 -14780444.60948 -11404455.60546  21370163.4144                   21370161.8204
 -23314674.38748 -18139992.10246  21240964.5394                   21240962.5004
 -15032970.65648 -11705639.71546  22077519.6644                   22077521.1214
 -24697198.32047 -19216534.22745  22370586.7584                   22370583.1724
 -11202051.31247  -8472728.52345  22388982.6254                   22388981.6644
   9064959.98045   7327537.71952  24660641.8984                   24660643.1454
 11  8 26  2 37 30.0000000  0 10G21G15G12G26G29G05G25G02G30G18
   5696435.66446   4456263.77043  24755717.2894                   24755716.4224
  -2924370.83247  -2252816.60945  22878159.0634                   22878158.1454
 -16239822.39547 -12629115.72345  22834090.2194                   22834089.4494
 -10059692.34848  -7800671.60945  22133403.4384                   22133402.8164
 -14878553.63348 -11480904.15246  21351494.0084                   21351492.0434
 -23280198.66448 -18113127.89546  21247525.1954                   21247523.1884
 -15016552.16447 -11692846.08646  22080643.9064                   22080644.6454
 -24683297.24247 -19205702.21145  22373231.7974                   22373228.7274
 -11179728.17247  -8455333.85545  22393230.5634                   22393229.6844
   8945690.94946   7234601.09442  24637945.9614                   24637947.6254
 11  8 26  2 38  0.0000000  0 10G21G15G12G26G29G05G25G02G30G18
   5609716.16446   4388690.23043  24739214.5004                   24739214.0314
  -3048161.22747  -2349276.60545  22854602.4384                   22854601.1604
 -16181794.61747 -12583899.29345  22845132.5864                   22845131.3714
 -10162589.95747  -7880851.53145  22113822.7734                   22113821.6094
 -14976400.05548 -11557148.06646  21332874.1954                   21332872.5204
 -23245419.75448 -18086027.44146  21254142.9304                   21254140.7934
 -14999708.27048 -11679720.97746  22083849.1724                   22083850.2234
 -24669307.56647 -19194801.16045  22375893.8054                   22375890.7234
 -11157007.55147  -8437629.47745  22397554.0234                   22397553.3204
   8826585.59846   7141792.00443  24615281.4534                   24615282.3134
 11  8 26  2 38 30.0000000  0 10G21G15G12G26G29G05G25G02G30G18
   5522975.11746   4321099.87543  24722708.5314                   24722707.8204
  -3171806.66447  -2445623.63745  22831072.9454                   22831072.1374
 -16123602.75447 -12538554.98845  22856206.3364                   22856204.6414
 -10265079.80947  -7960713.71545  22094319.3594                   22094318.2664
 -15073973.36348 -11633179.18046  21314306.4774                   21314304.8014
 -23210331.92648 -18058686.27046  21260819.9224                   21260818.4774
 -14982433.33248 -11666259.97746  22087136.5084                   22087137.3674
 -24655220.82847 -19183824.47745  22378574.6484                   22378571.2584
 -11133884.17647  -8419611.26645  22401954.1254                   22401953.5274
   8707653.21146   7049117.66843  24592649.3524                   24592650.0904
 11  8 26  2 39  0.0000000  0 10G21G15G12G26G29G05G25G02G30G18
   5436204.82446   4253486.75443  24706196.2894                   24706195.7034
  -3295311.50847  -2541861.11345  22807571.0234                   22807570.1054
 -16065257.48847 -12493091.15645  22867308.7814                   22867307.6564
 -10367166.01248  -8040261.36745  22074893.1804                   22074891.8984
 -15171278.62148 -11709001.41846  21295789.9384                   21295788.1804
 -23174945.05548 -18031112.07446  21267554.1564                   21267552.0904
 -14964737.22348 -11652470.79346  22090503.7114                   22090504.6724
 -24641043.72347 -19172777.36745  22381272.5164                   22381269.1254
 -11110368.22747  -8401287.16045  22406429.4924                   22406428.4734
   8588887.45346   6956573.16443  24570048.6564                   24570049.2344
 11  8 26  2 39 30.0000000  0 10G21G15G12G26G29G05G25G02G30G18
   5349406.30546   4185851.61343  24689679.1024                   24689678.4734
  -3418670.85947  -2637985.21545  22784096.9224                   22784095.4734
 -16006760.21147 -12447508.86345  22878440.1484                   22878439.0164
 -10468843.42248  -8119490.46945  22055544.2734                   22055543.0514
 -15268311.85948 -11784611.69146  21277325.3674                   21277323.4494
 -23139259.77048 -18003305.34046  21274344.7734                   21274342.6484
 -14946620.93748 -11638354.18746  22093951.4534                   22093952.1454
 -24626774.82847 -19161658.72745  22383987.7664                   22383984.7384
 -11086461.02347  -8382658.16445  22410978.8754                   22410978.0084
   8470291.51246   6864160.98043  24547480.9384                   24547481.3484
 11  8 26  2 40  0.0000000  0 10G21G15G12G26G29G05G25G02G30G18
   5262579.11346   4118194.16443  24673157.0004                   24673155.8444
  -3541881.74647  -2733993.64145  22760650.3984                   22760649.1724
 -15948113.74247 -12401810.32445  22889600.6644                   22889599.3714
 -10570108.30548  -8198398.12545  22036274.6724                   22036273.3054
 -15365070.24248 -11860007.79746  21258912.4774                   21258910.8794
 -23103278.55148 -17975268.02046  21281191.8914                   21281189.6414
 -14928086.68048 -11623911.89846  22097477.8754                   22097479.3954
 -24612413.13747 -19150467.78945  22386721.1024                   22386717.4224
 -11062165.13347  -8363726.30545  22415602.1954                   22415601.1054
   8351866.62146   6771882.05943  24524944.6724                   24524945.5084
 11  8 26  2 40 30.0000000  0 10G21G15G12G26G29G05G25G02G30G18
   5175724.41446   4050515.27343  24656628.9224                   24656627.9534
  -3664939.49647  -2829882.76245  22737233.5554                   22737231.9654
 -15889319.10947 -12355996.32045  22900788.8134                   22900787.7304
 -10670955.92648  -8276980.64845  22017083.8364                   22017082.4694
 -15461550.16448 -11935186.92646  21240553.4694                   21240551.4344
 -23067002.30948 -17947000.80946  21288094.9304                   21288093.0004
 -14909135.57048 -11609144.78946  22101084.6954                   22101085.8244
 -24597956.93047 -19139203.19945  22389471.9144                   22389468.6454
 -11037482.00847  -8344492.69545  22420298.9694                   22420297.7194
   8233615.87146   6679738.83643  24502442.7894                   24502442.6214
 11  8 26  2 41  0.0000000  0 10G21G15G12G26G29G05G25G02G30G18
   5088846.53546   3982818.28943  24640096.0084                   24640094.9494
  -3787835.86747  -2925646.10945  22713846.7344                   22713845.6994
 -15830375.46947 -12310066.22345  22912005.4774                   22912004.1644
 -10771377.70348  -8355231.33645  21997974.0634                   21997972.6994
 -15557744.14548 -12010143.24246  21222247.9694                   21222246.2814
 -23030428.58648 -17918501.79746  21295054.6644                   21295052.7034
 -14889765.12148 -11594050.92646  22104770.6644                   22104771.7234
 -24583400.67247 -19127860.64545  22392241.5084                   22392238.0744
 -11012409.42247  -8324955.61345  22425070.1724                   22425068.8714
   8115544.76646   6587735.59043  24479973.5634                   24479974.1884
 11  8 26  2 41 30.0000000  0 10G21G15G12G26G29G05G25G02G30G18
   5001949.97746   3915106.75043  24623560.3054                   24623559.2894
  -3910563.07847  -3021277.66445  22690492.4534                   22690491.3794
 -15771280.73047 -12264018.39545  22923250.6804                   22923249.7384
 -10871365.43748  -8433143.81245  21978946.8204                   21978945.8634
 -15653645.03548 -12084871.18046  21203998.4064                   21203996.7934
 -22993554.60248 -17889768.82046  21302071.4614                   21302069.5474
 -14869973.10248 -11578628.55146  22108536.6484                   22108537.7154
 -24568739.28947 -19116436.18745  22395031.7894                   22395028.3524
 -10986945.41847  -8305113.53145  22429915.7034                   22429914.9734
   7997660.01246   6495877.53543  24457541.4224                   24457541.0274
 11  8 26  2 42  0.0000000  0 10G21G15G12G26G29G05G25G02G30G18
   4915029.06346   3847376.26243  24607019.7424                   24607019.0704
  -4033122.99247  -3116778.84445  22667170.0554                   22667168.6954
 -15712042.98447 -12217859.13745  22934523.5944                   22934522.3364
 -10970920.88347  -8510719.44145  21960001.6484                   21960001.0124
 -15749255.08248 -12159372.48446  21185804.5864                   21185802.8244
 -22956388.69948 -17860808.36746  21309143.8524                   21309142.1254
 -14849767.23848 -11562883.70746  22112381.9844                   22112383.1844
 -24553977.59447 -19104933.55145  22397840.7194                   22397837.1294
 -10961098.15247  -8284972.79745  22434834.1884                   22434833.2384
   7879957.34846   6404161.37143  24435143.0634                   24435142.6994
 11  8 26  2 42 30.0000000  0 10G21G15G12G26G29G05G25G02G30G18
   4828081.58246   3779625.03943  24590474.0554                   24590473.2734
  -4155514.25847  -3212148.60945  22643879.7194                   22643878.1914
 -15652666.81247 -12171591.99645  22945822.5704                   22945820.8874
 -11070042.31248  -8587956.85945  21941139.9694                   21941139.2384
 -15844574.52748 -12233647.34446  21167665.7194                   21167664.5204
 -22918934.83248 -17831623.53546  21316271.2894                   21316269.3524
 -14829151.78548 -11546819.69546  22116305.3984                   22116305.7854
 -24539116.63348 -19093353.56245  22400668.9224                   22400664.9024
 -10934872.12147  -8264536.92645  22439824.9304                   22439823.5394
   7762436.29746   6312586.73043  24412779.5084                   24412779.2034
 11  8 26  2 43  0.0000000  0 10G21G15G12G26G29G05G25G02G30G18
   4741102.82046   3711849.46943  24573922.4144                   24573921.4344
  -4277737.77047  -3307387.65245  22620621.3364                   22620620.3134
 -15593159.40647 -12125222.59045  22957146.3674                   22957145.3094
 -11168730.34047  -8664856.59045  21922360.3364                   21922359.3594
 -15939604.59047 -12307696.72346  21149582.6954                   21149580.5204
 -22881199.48048 -17802219.35946  21323451.9384                   21323449.8134
 -14808133.35948 -11530441.68046  22120304.5634                   22120305.4964
 -24524160.09847 -19081699.10245  22403515.1334                   22403511.2934
 -10908274.28147  -8243811.33645  22444886.3754                   22444885.3364
   7645094.16846   6221151.47343  24390448.9064                   24390449.2274
 11  8 26  2 43 30.0000000  0 10G21G15G12G26G29G05G25G02G30G18
   4654098.23046   3644053.76643  24557366.1884                   24557365.1484
  -4399784.57047  -3402489.00845  22597396.9064                   22597395.1524
 -15533518.11347 -12078748.87145  22968495.7424                   22968494.4964
 -11266975.88348  -8741411.51645  21903664.6804                   21903663.1724
 -16034336.96548 -12381514.12946  21131555.3834                   21131553.3834
 -22843179.22748 -17772593.18746  21330687.1564                   21330685.0984
 -14786708.87948 -11513747.26646  22124381.1804                   22124382.2464
 -24509101.38347 -19069965.03145  22406380.5004                   22406377.3634
 -10881301.80147  -8222793.81245  22450019.1024                   22450018.0594
   7527937.98446   6129861.13743  24368154.6644                   24368155.7074
 11  8 26  2 44  0.0000000  0 10G21G15G12G26G29G05G25G02G30G18
   4567067.20346   3576237.46543  24540804.6804                   24540803.3554
  -4521651.75447  -3497450.39845  22574205.9534                   22574204.6764
 -15473746.04347 -12032173.26245  22979869.0634                   22979868.5744
 -11364775.61747  -8817619.05545  21885053.9534                   21885052.9494
 -16128769.27748 -12455097.71946  21113585.4694                   21113583.4184
 -22804876.47748 -17742746.88746  21337975.9224                   21337973.7504
 -14764880.94948 -11496738.47346  22128535.2114                   22128535.9734
 -24493940.41847 -19058151.28145  22409265.4774                   22409261.9144
 -10853957.52347  -8201486.57045  22455222.6724                   22455221.2854
   7410968.77346   6038716.49243  24345896.3674                   24345896.6294
 11  8 26  2 44 30.0000000  0 10G21G15G12G26G29G05G25G02G30G18
   4479998.65646   3508391.91443  24524236.3524                   24524235.1644
  -4643347.12147  -3592277.91045  22551047.7734                   22551046.7974
 -15413857.13347 -11985506.60245  22991266.1414                   22991265.0314
 -11462136.94147  -8893484.98445  21866526.8204                   21866525.2234
 -16222910.05548 -12528454.14546  21095670.8984                   21095668.9064
 -22766304.95348 -17712691.15646  21345315.4844                   21345313.5204
 -14742663.11348 -11479425.86746  22132763.0474                   22132763.8364
 -24478687.78948 -19046266.09845  22412167.6724                   22412163.8794
 -10826255.46147  -8179900.53145  22460494.2194                   22460493.1994
   7294176.64546   5947709.78942  24323671.2194                   24323672.2274
 11  8 26  2 45  0.0000000  0 10G21G15G12G26G29G05G25G02G30G18
   4392901.11746   3440523.79343  24507662.2424                   24507660.4264
  -4764858.12547  -3686961.75445  22527925.1334                   22527924.0744
 -15353845.24647 -11938744.11344  23002686.1804                   23002684.8324
 -11559047.36747  -8968999.57045  21848085.4144                   21848084.1764
 -16316747.71547 -12601574.36746  21077814.1174                   21077812.1484
 -22727457.46948 -17682420.38346  21352708.1884                   21352706.0314
 -14720048.80548 -11461804.31245  22137066.4144                   22137067.1764
 -24463333.89548 -19034302.00445  22415090.1564                   22415085.8634
 -10798189.21147  -8158030.71945  22465834.9144                   22465833.6914
   7177572.27046   5856849.43842  24301482.6954                   24301482.2234
 11  8 26  2 45 30.0000000  0 10G21G15G12G26G29G05G25G02G30G18
   4305781.81346   3372638.70343  24491083.4224                   24491082.3834
  -4886174.05947  -3781493.59845  22504839.7034                   22504838.5274
 -15293706.08247 -11891882.43445  23014130.3134                   23014128.9774
 -11655495.96547  -9044154.27045  21829731.4844                   21829730.5634
 -16410272.11347 -12674450.48046  21060017.1414                   21060014.9104
 -22688329.11348 -17651930.75046  21360154.2344                   21360152.1764
 -14697033.12548 -11443869.99646  22141446.5394                   22141447.1024
 -24447870.56247 -19022252.63745  22418032.4534                   22418028.4614
 -10769754.19547  -8135873.55545  22471246.1954                   22471244.5784
   7061164.24246   5766142.04343  24279330.4844                   24279330.3444
 11  8 26  2 46  0.0000000  0 10G21G15G12G26G29G05G25G02G30G18
   4218627.62146   3304726.44143  24474498.3594                   24474497.7424
  -5007304.41047  -3875880.82845  22481789.4454                   22481787.3794
 -15233454.94147 -11844933.50445  23025595.6884                   23025594.9104
 -11751492.06247  -9118956.39545  21811464.2194                   21811463.0394
 -16503493.62947 -12747090.58246  21042277.5704                   21042275.5984
 -22648935.12148 -17621234.12946  21367650.4534                   21367648.5004
 -14673631.44548 -11425634.90646  22145899.8054                   22145900.4494
 -24432309.89548 -19010127.43045  22420993.6804                   22420989.4494
 -10740966.14847  -8113441.28945  22476724.2664                   22476722.9924
   6944941.24646   5675578.86343  24257213.9064                   24257213.5124
 11  8 26  2 46 30.0000000  0 10G21G15G12G26G29G05G25G02G30G18
   4131438.58246   3236787.02343  24457906.6954                   24457905.9804
  -5128245.39547  -3970120.50445  22458775.0004                   22458773.2934
 -15173094.26247 -11797899.23045  23037082.2584                   23037081.2814
 -11847031.82447  -9193402.92245  21793284.1484                   21793282.3404
 -16596409.34047 -12819492.39846  21024596.1644                   21024594.2934
 -22609276.94548 -17590331.65246  21375197.3134                   21375195.0394
 -14649845.73048 -11407100.57446  22150425.7584                   22150426.6724
 -24416650.85948 -18997925.56645  22423973.2274                   22423969.0824
 -10711827.18447  -8090735.57445  22482268.8754                   22482268.2974
   6828905.02046   5585161.16043  24235133.2974                   24235132.7464
 11  8 26  2 47  0.0000000  0 10G21G15G12G26G29G05G25G02G30G18
   4044224.39846   3168828.01243  24441310.9304                   24441309.2034
  -5248984.09847  -4064202.56245  22435799.3594                   22435797.7584
 -15112617.32047 -11750774.36344  23048590.3834                   23048589.4734
 -11942101.73047  -9267483.32845  21775192.2034                   21775190.9534
 -16689006.69548 -12891646.13346  21006975.5004                   21006973.7074
 -22569347.19948 -17559217.55946  21382795.5944                   21382793.4144
 -14625668.67648 -11388261.30946  22155026.3984                   22155027.4534
 -24400882.98848 -18985638.88745  22426973.8204                   22426969.9774
 -10682330.35247  -8067751.02045  22487881.9304                   22487881.1914
   6713066.60547   5494897.65643  24213089.1174                   24213088.8134
 11  8 26  2 47 30.0000000  0 10G21G15G12G26G29G05G25G02G30G18
   3956981.30146   3100846.47343  24424708.3674                   24424707.0514
  -5369520.59047  -4158127.05545  22412861.9924                   22412860.1954
 -15052030.02047 -11703563.50044  23060119.8524                   23060118.3714
 -12036701.82047  -9341197.64545  21757190.5944                   21757189.2384
 -16781286.50048 -12963552.43046  20989415.4924                   20989413.1054
 -22529151.67248 -17527896.37146  21390444.4384                   21390442.2424
 -14601106.18048 -11369121.70346  22159700.6804                   22159701.2704
 -24385009.10548 -18973269.62145  22429994.5634                   22429990.7854
 -10652481.82047  -8044492.41845  22493562.1564                   22493560.9614
   6597424.32446   5404786.94943  24191083.1884                   24191082.9924
 11  8 26  2 48  0.0000000  0 10G21G15G12G26G29G05G25G02G30G18
   3869705.17646   3032839.21943  24408100.6024                   24408098.6914
  -5489855.52047  -4251894.49245  22389962.7194                   22389961.2774
 -14991339.66047 -11656272.31244  23071668.6804                   23071667.3874
 -12130832.64147  -9414546.30145  21739277.8594                   21739276.9774
 -16873250.53148 -13035212.66846  20971914.8984                   20971913.1724
 -22488696.79348 -17496373.07846  21398142.8134                   21398140.7504
 -14576164.98848 -11349687.00446  22164446.9774                   22164447.7584
 -24369032.55547 -18960820.34445  22433034.6254                   22433030.4884
 -10622288.57847  -8020965.20745  22499307.5634                   22499306.9264
   6481974.94947   5314826.55143  24169114.0944                   24169113.3634
 11  8 26  2 48 30.0000000  0 10G21G15G12G26G29G05G25G02G30G18
   3782385.75846   2964798.22343  24391483.8524                   24391482.4804
  -5609995.31647  -4345509.87545  22367100.5234                   22367099.6174
 -14930559.00447 -11608910.79345  23083235.0554                   23083233.9844
 -12224500.57447  -9487534.27745  21721453.7114                   21721451.8014
 -16964905.59048 -13106632.15246  20954473.5944                   20954471.6684
 -22447994.50048 -17464657.00846  21405888.1564                   21405886.2234
 -14550857.39547 -11329966.80146  22169262.3364                   22169263.7034
 -24352962.55547 -18948298.27045  22436092.6484                   22436088.9414
 -10591763.28547  -7997179.25445  22505116.4224                   22505115.6954
   6366710.15247   5225009.98843  24147180.3914                   24147178.8834
 11  8 26  2 49  0.0000000  0 10G21G15G12G26G29G05G25G02G30G18
   3695034.71146   2896732.58643  24374861.3984                   24374860.7894
  -5729924.89547  -4438961.44945  22344279.5554                   22344277.5944
 -14869678.28147 -11561471.29345  23094820.2274                   23094819.0354
 -12317690.31647  -9560149.62545  21703720.3364                   21703718.6524
 -17056237.15647 -13177799.56246  20937094.0864                   20937091.7464
 -22407035.06248 -17432740.56246  21413682.7584                   21413680.4494
 -14525173.99647 -11309953.77045  22174150.2194                   22174150.6334
 -24336786.51248 -18935693.54345  22439171.2584                   22439166.7934
 -10560896.79347  -7973127.43045  22510989.9384                   22510989.2424
   6251643.16047   5135347.53943  24125282.8134                   24125282.0744
 11  8 26  2 49 30.0000000  0 10G21G15G12G26G29G05G25G02G30G18
   3607656.43846   2828645.72343  24358233.9384                   24358232.7504
  -5849636.26247  -4532242.98845  22321498.4534                   22321497.4574
 -14808696.20347 -11513952.81645  23106424.2974                   23106423.4694
 -12410393.73847  -9632386.02745  21686079.2814                   21686077.8204
 -17147238.27748 -13248709.48046  20919776.7274                   20919774.6604
 -22365815.96948 -17400621.78946  21421526.4064                   21421524.0944
 -14499112.68747 -11289646.24645  22179109.4224                   22179110.0474
 -24320499.03947 -18923001.99645  22442270.4144                   22442266.5944
 -10529687.13347  -7948808.20745  22516929.0084                   22516928.1524
   6136779.79346   5045843.78943  24103424.4454                   24103424.5314
 11  8 26  2 50  0.0000000  0 10G21G15G12G26G29G05G25G02G30G18
   3520249.36346   2760536.40243  24341601.0314                   24341599.4304
  -5969127.51247  -4625353.00045  22298759.7734                   22298758.2274
 -14747617.29347 -11466358.88744  23118047.5084                   23118046.4774
 -12502609.19947  -9704242.19545  21668530.8204                   21668529.7274
 -17237907.79748 -13319361.00846  20902523.0864                   20902520.8404
 -22324341.30548 -17368303.86746  21429418.5474                   21429416.6374
 -14472677.54347 -11269047.43445  22184139.6954                   22184140.5554
 -24304101.02047 -18910224.32845  22445390.8284                   22445386.7974
 -10498138.82047  -7924225.10545  22522932.3914                   22522931.3164
   6022119.87946   4956498.59843  24081605.6094                   24081605.5234
 11  8 26  2 50 30.0000000  0 10G21G15G12G26G29G05G25G02G30G18
   3432801.16446   2692395.06343  24324959.8834                   24324958.9964
  -6088407.30547  -4718298.25445  22276061.8284                   22276060.1764
 -14686456.09047 -11418700.83645  23129686.3834                   23129684.9384
 -12594344.85247  -9775724.48845  21651074.4924                   21651072.6684
 -17328255.00047 -13389761.37946  20885330.4774                   20885328.2664
 -22282625.02048 -17335797.66846  21437356.7504                   21437354.9414
 -14445883.19147 -11248168.71546  22189238.5944                   22189239.1884
 -24287604.13347 -18897369.61345  22448529.6564                   22448526.0234
 -10466266.56647  -7899389.57445  22528997.2974                   22528996.6844
   5907652.83646   4867303.66043  24059823.2974                   24059823.1454
 11  8 26  2 51  0.0000000  0 10G21G15G12G26G29G05G25G02G30G18
   3345315.77046   2624224.73043  24308311.7734                   24308310.4884
  -6207468.07447  -4811072.83245  22253405.1024                   22253403.8014
 -14625211.13347 -11370977.51644  23141340.7034                   23141339.6024
 -12685593.54747  -9846827.33645  21633710.3444                   21633709.1844
 -17418273.65248 -13459905.74246  20868200.5944                   20868198.5124
 -22240665.54748 -17303101.96146  21445341.6804                   21445339.1644
 -14418728.14547 -11227008.93045  22194405.7504                   22194406.7894
 -24271003.02047 -18884433.69145  22451688.9924                   22451684.9184
 -10434069.26247  -7874300.76245  22535124.6094                   22535123.3954
   5793384.00046   4778263.20343  24038078.2344                   24038077.8204
 11  8 26  2 51 30.0000000  0 10G21G15G12G26G29G05G25G02G30G18
   3257797.58646   2556028.82843  24291657.4144                   24291656.8754
  -6326302.17247  -4903670.80145  22230792.0864                   22230790.2274
 -14563880.81647 -11323187.68044  23153011.4064                   23153010.5394
 -12776347.39147  -9917544.58645  21616440.5394                   21616439.2034
 -17507956.16047 -13529788.17646  20851134.3674                   20851132.1994
 -22198460.31248 -17270214.76646  21453373.2274                   21453370.6884
 -14391210.31247 -11205566.46945  22199642.3834                   22199643.1024
 -24254292.32847 -18871412.37945  22454868.7894                   22454864.6374
 -10401545.05547  -7848957.23045  22541313.0084                   22541312.8484
   5679319.05946   4689381.62143  24016372.7584                   24016372.6024
 11  8 26  2 52  0.0000000  0 10G21G15G12G26G29G05G25G02G30G18
   3170246.51646   2487807.31644  24274997.1254                   24274995.9694
  -6444906.00047  -4996089.31645  22208222.1884                   22208220.4924
 -14502467.90247 -11275333.49244  23164698.1414                   23164696.9574
 -12866602.53947  -9987873.23845  21599265.5864                   21599264.1684
 -17597299.86347 -13599406.60546  20834132.8524                   20834130.4964
 -22156011.50048 -17237137.76246  21461450.4774                   21461448.3714
 -14363332.13747 -11183843.21145  22204947.0394                   22204948.5234
 -24237471.65247 -18858305.36345  22458069.6804                   22458065.9614
 -10368696.54747  -7823360.99645  22547563.8914                   22547563.7194
   5565459.80546   4600660.27043  23994706.0394                   23994704.9884
 11  8 26  2 52 30.0000000  0 10G21G15G12G26G29G05G25G02G30G18
   3082660.73446   2419558.73444  24258330.2424                   24258328.8594
  -6563277.94147  -5088327.15245  22185696.7344                   22185695.4734
 -14440976.65647 -11227418.25844  23176399.6024                   23176398.2974
 -12956357.40247 -10057812.06245  21582185.7504                   21582184.3404
 -17686303.87948 -13668760.35546  20817196.0944                   20817193.6214
 -22113322.75048 -17203873.79746  21469574.0004                   21469571.6764
 -14335097.89847 -11161842.50445  22210319.7194                   22210320.8874
 -24220541.85247 -18845113.32845  22461291.4384                   22461287.7774
 -10335528.36347  -7797515.66045  22553875.9614                   22553875.4224
   5451805.27746   4512098.47743  23973078.3204                   23973077.5784
 11  8 26  2 53  0.0000000  0 10G21G15G12G26G29G05G25G02G30G18
   4570453.05946   3578877.51243  24541447.4534                   24541446.1804
  -5106000.55147  -3952786.28545  22463007.6024                   22463006.0944
 -12804001.80547  -9951853.46944  23487905.5234                   23487903.7894
 -11470195.61747  -8899763.87545  21864992.5704                   21864991.2664
 -16199552.37548 -12510252.66046  21100115.2344                   21100113.1454
 -20494987.63348 -15942833.44146  21777533.0944                   21777530.5004
 -12731101.08647  -9911974.85946  22515550.7274                   22515551.5394
 -22628092.90247 -17604244.03945  22764324.1414                   22764320.8874
  -8726634.39547  -6543832.03945  22860038.3054                   22860037.4344
   6913771.03946   5651292.73843  24251280.3914                   24251279.8364
 11  8 26  2 53 30.0000000  0 10G21G15G12G26G29G05G25G02G30G18
   4482793.41846   3510571.41044  24524766.0314                   24524765.1134
  -5223902.57447  -4044657.94145  22440571.2894                   22440569.7344
 -12742366.33247  -9903825.85244  23499634.1334                   23499632.8134
 -11558944.24247  -8968918.60945  21848104.4144                   21848103.1294
 -16287872.87148 -12579073.79746  21083308.5634                   21083306.3324
 -20451829.84848 -15909203.98846  21785745.7034                   21785743.7234
 -12702166.70347  -9889428.58246  22521056.9384                   22521057.7234
 -22610947.27347 -17590883.82045  22767587.0474                   22767583.3014
  -8692839.46547  -6517498.33245  22866469.5394                   22866468.8284
   6800526.48046   5563050.37543  24229730.5314                   24229730.1844
 11  8 26  2 54  0.0000000  0 10G21G15G12G26G29G05G25G02G30G18
   4395103.03546   3442241.32843  24508079.2734                   24508078.3954
  -5341558.03547  -4136337.46945  22418182.0314                   22418180.9414
 -12680656.40246  -9855740.22744  23511377.0234                   23511376.1684
 -11647178.10547  -9037672.23045  21831313.7974                   21831312.4104
 -16375841.43748 -12647620.70746  21066568.6174                   21066566.5164
 -20408434.37148 -15875389.34046  21794003.3444                   21794001.4654
 -12672879.56647  -9866607.44145  22526629.9924                   22526630.6374
 -22593685.36347 -17577433.00845  22770871.9454                   22770868.3484
  -8658728.91847  -6490918.68744  22872960.4924                   22872959.8014
   6687495.47346   5474974.40643  24208221.8754                   24208220.6134
 11  8 26  2 54 30.0000000  0 10G21G15G12G26G29G05G25G02G30G18
   4307374.71146   3373881.67643  24491385.2974                   24491383.5864
  -5458970.84447  -4227827.91845  22395838.8984                   22395837.7154
 -12618882.06646  -9807604.41444  23523132.8284                   23523131.3444
 -11734901.11747  -9106027.78945  21814620.6334                   21814619.6844
 -16463462.60548 -12715896.92246  21049895.0314                   21049892.6724
 -20364810.51648 -15841396.72346  21802305.0704                   21802303.1524
 -12643249.48047  -9843519.07045  22532267.9614                   22532269.0044
 -22576313.76647 -17563896.71945  22774177.7274                   22774173.8444
  -8624312.77047  -6464100.92645  22879509.5084                   22879509.0664
   6574671.74646   5387059.94943  24186752.0004                   24186751.0944
 11  8 26  2 55  0.0000000  0 10G21G15G12G26G29G05G25G02G30G18
   4219613.65646   3305496.50443  24474684.8594                   24474683.6644
  -5576132.20347  -4319122.43745  22373543.9144                   22373542.4264
 -12557040.31246  -9759416.06244  23534900.8914                   23534899.7734
 -11822104.59447  -9173978.52045  21798026.6724                   21798025.2384
 -16550728.30148 -12783896.14146  21033288.7114                   21033286.5664
 -20320954.97748 -15807223.57446  21810650.1024                   21810648.3984
 -12613273.69147  -9820161.31645  22537972.1644                   22537973.1374
 -22558826.67647 -17550270.44545  22777504.9304                   22777501.7274
  -8589588.38347  -6437042.96545  22886117.1954                   22886116.6094
   6462062.14146   5299312.34843  24165322.4384                   24165322.3524
 11  8 26  2 55 30.0000000  0 10G21G15G12G26G29G05G25G02G30G18
   4131825.34046   3237090.09843  24457979.1024                   24457978.2424
  -5693033.23447  -4410214.11745  22351298.7664                   22351296.8484
 -12495128.45747  -9711173.08244  23546682.4924                   23546680.9734
 -11908779.64847  -9241517.48845  21781532.5164                   21781531.3914
 -16637630.33648 -12851611.99646  21016751.6024                   21016749.8094
 -20276864.39848 -15772867.28146  21819040.5164                   21819038.6174
 -12582949.18047  -9796531.82045  22543742.9844                   22543743.5664
 -22541218.00847 -17536549.43745  22780856.4694                   22780852.3404
  -8554553.03547  -6409742.69145  22892784.7344                   22892783.6844
   6349673.62146   5211737.00443  24143935.7114                   24143935.0664
 11  8 26  2 56  0.0000000  0 10G21G15G12G26G29G05G25G02G30G18
   4043999.23846   3168654.26243  24441266.3984                   24441264.8484
  -5809681.01647  -4501108.44145  22329101.4844                   22329099.7034
 -12433159.80947  -9662885.85544  23558474.5784                   23558473.5124
 -11994933.46547  -9308650.29345  21765138.3754                   21765136.8054
 -16724176.52748 -12919050.56246  21000282.3834                   21000280.9184
 -20232551.46948 -15738337.72346  21827472.8204                   21827471.0004
 -12552289.26247  -9772640.97345  22549577.4304                   22549577.9494
 -22523497.19947 -17522741.03145  22784228.2584                   22784224.5824
  -8519220.25447  -6382210.66445  22899508.2894                   22899507.0704
   6237496.55546   5124326.46943  24122588.9304                   24122587.9454
 11  8 26  2 56 30.0000000  0 10G21G15G12G26G29G05G25G02G30G18
   3956131.02446   3100185.59743  24424545.9384                   24424543.7774
  -5926076.34847  -4591806.05945  22306952.1724                   22306950.3324
 -12371141.13747  -9614559.64144  23570276.0634                   23570275.1914
 -12080567.23047  -9375377.86745  21748842.5474                   21748841.4654
 -16810368.61348 -12986213.20746  20983880.6024                   20983878.4494
 -20188022.43748 -15703639.77746  21835946.3984                   21835944.2274
 -12521300.71947  -9748494.05545  22555474.0474                   22555475.3444
 -22505667.73447 -17508847.96945  22787621.1414                   22787617.5744
  -8483597.07047  -6354452.33245  22906286.8984                   22906286.3444
   6125528.02746   5037078.41043  24101282.2974                   24101281.3244
 11  8 26  2 57  0.0000000  0 10G21G15G12G26G29G05G25G02G30G18
   3868228.34446   3031690.10543  24407818.3054                   24407816.4844
  -6042208.29747  -4682298.44145  22284852.5474                   22284850.9144
 -12309067.73047  -9566190.78144  23582088.4774                   23582087.4614
 -12165669.94547  -9441691.63345  21732647.9924                   21732646.8404
 -16896196.29748 -13053091.89146  20967548.1724                   20967545.8914
 -20143271.60948 -15668769.01246  21844462.6254                   21844460.1804
 -12489978.38347  -9724087.03145  22561434.4304                   22561435.7234
 -22487721.16047 -17494863.65245  22791036.3284                   22791032.7114
  -8447678.49647  -6326463.84445  22913121.8524                   22913121.5044
   6013777.21146   4949999.96943  24080016.4454                   24080015.4104
 11  8 26  2 57 30.0000000  0 10G21G15G12G26G29G05G25G02G30G18
   3780291.57846   2963168.05144  24391083.8914                   24391082.4614
  -6158072.85247  -4772582.45745  22262804.5084                   22262802.5944
 -12246941.59447  -9517780.82444  23593911.2814                   23593910.3874
 -12250237.63747  -9507588.49645  21716555.2734                   21716554.0164
 -16981656.39848 -13119684.16046  20951285.6564                   20951283.7074
 -20098300.80148 -15633726.82046  21853019.7974                   21853017.8324
 -12458324.37147  -9699421.57045  22567457.9774                   22567459.3484
 -22469656.25047 -17480787.11345  22794474.5394                   22794470.7074
  -8411466.92647  -6298247.03545  22920012.9534                   22920012.0944
   5902245.79746   4863092.48443  24058792.3134                   24058791.2734
 11  8 26  2 58  0.0000000  0 10G21G15G12G26G29G05G25G02G30G18
   3692310.72346   2894611.63343  24374342.0474                   24374340.1724
  -6273676.58647  -4862663.23045  22240805.7584                   22240804.1724
 -12184775.16447  -9469339.48844  23605741.2274                   23605739.5514
 -12334277.05148  -9573073.72345  21700563.1884                   21700561.7814
 -17066756.25448 -13185995.71546  20935091.8594                   20935089.6844
 -20053121.85948 -15598522.45346  21861617.4304                   21861615.1214
 -12426351.18747  -9674507.40645  22573542.2114                   22573543.4304
 -22451481.87547 -17466625.26245  22797932.1884                   22797928.8324
  -8374975.00047  -6269811.76245  22926956.8284                   22926956.0864
   5790925.26647   4776349.34043  24037609.1804                   24037607.7504
 11  8 26  2 58 30.0000000  0 10G21G15G12G26G29G05G25G02G30G18
   3604286.71946   2826021.60943  24357591.1644                   24357589.9024
  -6389014.68047  -4952537.02345  22218857.4614                   22218855.7304
 -12122569.94147  -9420867.92244  23617578.1884                   23617576.9064
 -12417783.89547  -9638143.96145  21684672.7034                   21684671.1884
 -17151491.91448 -13252023.46946  20918966.9454                   20918964.8954
 -20007735.82448 -15563156.71546  21870254.3204                   21870251.7854
 -12394060.31247  -9649345.69145  22579687.2664                   22579688.4924
 -22433196.20747 -17452376.69545  22801412.5234                   22801408.3834
  -8338204.46147  -6241159.39145  22933954.0164                   22933953.5514
   5679817.70346   4689772.14143  24016466.2584                   24016465.1644
 11  8 26  2 59  0.0000000  0 10G21G15G12G26G29G05G25G02G30G18
   3516225.60946   2757402.66443  24340834.2734                   24340832.5594
  -6504078.34847  -5042196.97345  22196961.6644                   22196960.3984
 -12060323.18447  -9372363.98845  23629423.3984                   23629422.1724
 -12500749.47347  -9702792.43445  21668884.5314                   21668883.0944
 -17235855.05148 -13317760.95346  20902913.0164                   20902911.5744
 -19962139.23448 -15527626.89846  21878930.5234                   21878928.5704
 -12361448.89847  -9623934.20345  22585892.8834                   22585893.9224
 -22414792.95747 -17438036.50445  22804914.0864                   22804910.5554
  -8301152.59447  -6212287.80145  22941004.4534                   22941004.0514
   5568930.33247   4603366.50443  23995364.9144                   23995363.9344
 11  8 26  2 59 30.0000000  0 10G21G15G12G26G29G05G25G02G30G18
   3428123.94946   2688752.12143  24324068.5634                   24324066.6094
  -6618867.64547  -5131643.13745  22175117.7344                   22175116.3484
 -11998040.62947  -9323832.15244  23641275.5704                   23641274.1954
 -12583173.71548  -9767019.08245  21653199.6484                   21653197.9694
 -17319846.45348 -13383208.77046  20886930.3524                   20886928.1054
 -19916337.18048 -15491936.98046  21887646.6484                   21887643.9924
 -12328522.72347  -9598277.43045  22592159.1254                   22592159.5474
 -22396274.30947 -17423606.39145  22808438.0944                   22808434.7274
  -8263825.52747  -6183201.78544  22948107.6334                   22948107.2034
   5458260.77046   4517130.60243  23974305.3364                   23974303.7424
 11  8 26  3  0  0.0000000  0 10G21G15G12G26G29G05G25G02G30G18
   3339985.96146   2620073.27743  24307296.6564                   24307295.1334
  -6733374.39847  -5220869.12945  22153327.8284                   22153326.0554
 -11935720.36747  -9275270.94545  23653134.7114                   23653133.6844
 -12665048.85947  -9830817.85945  21637619.2894                   21637617.9264
 -17403459.25048 -13448361.57046  20871019.1174                   20871016.9774
 -19870327.19148 -15456085.03946  21896402.2114                   21896399.8554
 -12295280.02747  -9572374.02345  22598484.5864                   22598485.8634
 -22377635.15647 -17409082.37145  22811985.2194                   22811981.4694
  -8226221.50447  -6153899.94944  22955263.7664                   22955263.1134
   5347814.82046   4431068.94543  23953287.9454                   23953286.5704
 11  8 26  3  0 30.0000000  0 10G21G15G12G26G29G05G25G02G30G18
   3251807.38346   2551362.81343  24290516.5704                   24290514.7194
  -6847599.82047  -5309875.90645  22131591.7194                   22131590.0704
 -11873369.50447  -9226685.90644  23664999.6804                   23664998.7854
 -12746376.34848  -9894189.89845  21622143.1024                   21622141.7034
 -17486694.96948 -13513220.54746  20855179.9064                   20855177.7624
 -19824115.85548 -15420076.19946  21905195.7344                   21905193.5314
 -12261727.66047  -9546229.32045  22604869.6414                   22604870.2974
 -22358878.81247 -17394467.03545  22815554.1954                   22815550.6724
  -8188347.76647  -6124387.96544  22962471.4454                   22962470.2384
   5237589.59046   4345179.29743  23932312.2734                   23932311.8164
 11  8 26  3  1  0.0000000  0 10G21G15G12G26G29G05G25G02G30G18
   3163590.75046   2482622.70344  24273729.5394                   24273727.8794
  -6961538.15247  -5398658.97745  22109910.0004                   22109907.9654
 -11810988.07047  -9178077.04744  23676870.1564                   23676869.3834
 -12827150.58248  -9957130.83246  21606772.1094                   21606771.0234
 -17569548.59048 -13577781.78547  20839413.3754                   20839411.2464
 -19777702.98448 -15383910.32846  21914027.9384                   21914025.6214
 -12227866.04747  -9519843.64845  22611312.6724                   22611313.9534
 -22340002.29747 -17379758.05945  22819146.1024                   22819142.9264
  -8150204.81247  -6094666.18744  22969729.3284                   22969728.7034
   5127588.18446   4259464.07443  23911379.5784                   23911378.4884
 11  8 26  3  1 30.0000000  0 10G21G15G12G26G29G05G25G02G30G18
   3075329.25446   2413847.61743  24256933.9304                   24256931.9774
  -7075192.62547  -5487220.86345  22088281.3524                   22088280.1684
 -11748585.70346  -9129451.86744  23688744.3674                   23688743.9694
 -12907375.19948 -10019643.48845  21591506.1564                   21591504.5634
 -17652024.43448 -13642048.65246  20823718.6954                   20823716.7074
 -19731097.38348 -15347594.27046  21922896.6564                   21922894.0124
 -12193704.61747  -9493224.34045  22617813.3914                   22617814.7664
 -22321011.65647 -17364960.16445  22822760.2894                   22822756.7234
  -8111802.21147  -6064742.09844  22977037.1484                   22977036.0554
   5017805.21546   4173919.01644  23890488.2424                   23890487.7704
 11  8 26  3  2  0.0000000  0 10G21G15G12G26G29G05G25G02G30G18
   2987025.91046   2345039.93843  24240129.8054                   24240128.2424
  -7188556.73447  -5575556.49645  22066709.6174                   22066707.7424
 -11686161.72346  -9080809.86744  23700623.4774                   23700622.8404
 -12987044.04747 -10081723.08245  21576345.5164                   21576344.0234
 -17734116.67248 -13706016.60546  20808097.1724                   20808095.0634
 -19684297.37148 -15311126.72346  21931802.2734                   21931800.1024
 -12159242.77047  -9466370.95745  22624371.6954                   22624372.3364
 -22301902.83247 -17350070.17245  22826396.3134                   22826393.1844
  -8073139.67647  -6034615.44944  22984394.3284                   22984393.7504
   4908245.04746   4088547.58643  23869640.1094                   23869638.5204
 11  8 26  3  2 30.0000000  0 10G21G15G12G26G29G05G25G02G30G18
   2898690.31347   2276207.11744  24223320.5474                   24223318.0314
  -7301617.92247  -5663656.07445  22045194.7424                   22045192.9184
 -11623709.69946  -9032146.00844  23712507.9694                   23712506.9144
 -13066144.93447 -10143360.11745  21561293.3134                   21561291.6254
 -17815813.57048 -13769676.50047  20792550.6254                   20792548.4924
 -19637296.28948 -15274502.49646  21940746.4144                   21940743.8364
 -12124474.17247  -9439278.53145  22630987.7194                   22630988.4654
 -22282665.58247 -17335080.11745  22830057.3284                   22830053.4454
  -8034210.94147  -6004281.37144  22991802.3594                   22991801.3204
   4798918.10246   4003357.87143  23848835.8674                   23848834.7934
 11  8 26  3  3  0.0000000  0 10G21G15G12G26G29G05G25G02G30G18
   2810308.59047   2207338.36743  24206502.2584                   24206500.1294
  -7414386.55947  -5751527.69945  22023735.5004                   22023733.9614
 -11561245.81246  -8983472.88344  23724394.6804                   23724393.5004
 -13144688.34047 -10204562.74645  21546346.7194                   21546345.2304
 -17897126.14848 -13833036.93046  20777077.3054                   20777075.1644
 -19590109.62148 -15237733.66446  21949725.7974                   21949723.8164
 -12089415.12947  -9411959.78545  22637659.2274                   22637660.3914
 -22263312.94147 -17320000.12945  22833739.8754                   22833736.4104
  -7995032.57447  -5973752.77744  22999257.9304                   22999256.7934
   4689811.80946   3918340.10944  23828072.9924                   23828072.4144
 11  8 26  3  3 30.0000000  0 10G21G15G12G26G29G05G25G02G30G18
   2721880.06347   2138433.12543  24189674.5634                   24189672.4694
  -7526859.84847  -5839169.18445  22002332.8054                   22002331.0514
 -11498773.12147  -8934792.89844  23736283.3524                   23736281.5784
 -13222671.84847 -10265329.07445  21531506.9064                   21531505.9534
 -17978052.40248 -13896096.32046  20761677.4844                   20761675.4224
 -19542740.21148 -15200822.44146  21958739.6884                   21958737.7664
 -12054068.88747  -9384417.24645  22644385.6334                   22644386.3404
 -22243844.94947 -17304830.27345  22837444.3674                   22837440.5904
  -7955607.98447  -5943032.33244  23006760.1414                   23006759.5594
   4580926.71146   3833494.69144  23807352.9064                   23807352.0474
 11  8 26  3  4  0.0000000  0 10G21G15G12G26G29G05G25G02G30G18
   2633409.93047   2069495.46543  24172839.2274                   24172836.7304
  -7639029.26647  -5926573.88346  21980987.4384                   21980985.6804
 -11436289.22347  -8886104.16844  23748173.7734                   23748172.1174
 -13300087.40647 -10325652.85245  21516775.3444                   21516773.8834
 -18058584.58648 -13958848.64546  20746352.5474                   20746350.3914
 -19495184.90648 -15163766.35946  21967789.1174                   21967787.2774
 -12018432.80147  -9356648.86745  22651166.8914                   22651167.5474
 -22224255.16447 -17289565.51645  22841172.1334                   22841168.7584
  -7915934.62947  -5912118.04744  23014309.3364                   23014309.1174
   4472269.19946   3748826.61743  23786676.2734                   23786675.1454
 11  8 26  3  4 30.0000000  0 10G21G15G12G26G29G05G25G02G30G18
   2544899.83647   2000526.68843  24155996.0634                   24155993.7664
  -7750889.92647  -6013737.98446  21959700.9614                   21959699.1844
 -11373794.67647  -8837407.14844  23760065.2274                   23760064.5354
 -13376930.12547 -10385530.27345  21502153.0394                   21502151.2464
 -18138718.48048 -14021290.62147  20731103.7504                   20731101.7034
 -19447443.48448 -15126565.25046  21976874.3284                   21976872.4884
 -11982507.92247  -9328655.45345  22658002.3914                   22658004.1254
 -22204541.11347 -17274203.91044  22844923.4694                   22844920.1094
  -7876013.84047  -5881010.94944  23021905.5394                   23021905.4694
   4363842.13746   3664338.10243  23766043.2344                   23766041.6684
 11  8 26  3  5  0.0000000  0 10G21G15G12G26G29G05G25G02G30G18
   2456345.76247   1931523.59444  24139145.0864                   24139142.4264
  -7862442.26647  -6100661.85245  21938473.4454                   21938471.3204
 -11311296.50447  -8788707.29344  23771959.0474                   23771957.4774
 -13453201.57047 -10444962.53946  21487638.9924                   21487636.8244
 -18218456.05148 -14083423.77046  20715930.1564                   20715928.2034
 -19399522.57448 -15089224.27746  21985993.1024                   21985991.0314
 -11946301.42647  -9300442.60245  22664892.9144                   22664894.0984
 -22184706.27347 -17258748.21944  22848697.8914                   22848694.4654
  -7835852.86747  -5849716.68444  23029548.7664                   23029548.2304
   4255642.27347   3580026.62543  23745453.1804                   23745451.8324
 11  8 26  3  5 30.0000000  0 10G21G15G12G26G29G05G25G02G30G18
   2367751.61347   1862489.27744  24122285.8054                   24122283.0124
  -7973679.79747  -6187340.41046  21917305.1024                   21917303.6254
 -11248793.70747  -8740003.85944  23783852.8444                   23783851.5234
 -13528895.14848 -10503944.50445  21473234.7344                   21473233.1414
 -18297790.67248 -14145242.93046  20700833.2894                   20700831.1294
 -19351420.27348 -15051741.96546  21995146.7194                   21995144.4384
 -11909812.21147  -9272009.44545  22671836.5004                   22671837.4304
 -22164746.08647 -17243194.83244  22852496.1414                   22852492.9384
  -7795450.80947  -5818234.55544  23037237.0864                   23037235.9304
   4147674.54347   3495896.02343  23724907.9304                   23724906.3484
 11  8 26  3  6  0.0000000  0 10G21G15G12G26G29G05G25G02G30G18
   2279112.58247   1793420.02043  24105418.1254                   24105415.7624
  -8084603.32847  -6273774.29345  21896197.1954                   21896195.4774
 -11186293.11747  -8691302.13344  23795746.3134                   23795744.9964
 -13604012.04748 -10562477.12545  21458940.3524                   21458938.7344
 -18376724.42648 -14206749.73846  20685812.7504                   20685810.3594
 -19303143.45748 -15014123.66846  22004333.3594                   22004331.2504
 -11873047.37147  -9243361.51645  22678832.6564                   22678833.7934
 -22144664.24647 -17227546.64544  22856317.5394                   22856314.5944
  -7754814.96547  -5786570.26244  23044969.4304                   23044969.3404
   4039935.52747   3411943.62544  23704405.1484                   23704403.9734
 11  8 26  3  6 30.0000000  0 10G21G15G12G26G29G05G25G02G30G18
   2190429.86347   1724316.69144  24088542.7504                   24088540.3284
  -8195208.57447  -6359960.14845  21875149.8984                   21875148.1134
 -11123796.18747  -8642603.25044  23807638.8914                   23807637.7704
 -13678548.55148 -10620557.48845  21444756.6024                   21444755.1414
 -18455253.53148 -14267941.22346  20670869.1334                   20670866.4694
 -19254692.82448 -14976369.93046  22013553.8134                   22013551.3484
 -11836008.55947  -9214500.10245  22685880.9384                   22685882.3324
 -22124458.94547 -17211802.26245  22860162.5164                   22860159.2624
  -7713947.01247  -5754725.12144  23052746.0944                   23052745.7464
   3932427.52746   3328171.23443  23683947.3674                   23683945.2424
 11  8 26  3  7  0.0000000  0 10G21G15G12G26G29G05G25G02G30G18
   2101703.35247   1655179.21544  24071658.0314                   24071655.9454
  -8305492.64147  -6445895.75446  21854163.3984                   21854161.7464
 -11061306.18447  -8593909.78944  23819530.4384                   23819529.7074
 -13752502.44148 -10678183.85945  21430683.5234                   21430681.7424
 -18533376.05948 -14328815.89846  20656002.7894                   20656000.8594
 -19206070.87148 -14938482.69546  22022805.5474                   22022803.7664
 -11798699.07447  -9185427.77045  22692980.3204                   22692982.0434
 -22104129.81647 -17195961.39544  22864030.8914                   22864027.9694
  -7672850.49247  -5722701.86744  23060567.1564                   23060566.2344
   3825150.94147   3244579.18043  23663533.9144                   23663531.8714
 11  8 26  3  7 30.0000000  0 10G21G15G12G26G29G05G25G02G30G18
   2012933.57047   1586008.06344  24054765.9384                   24054763.7664
  -8415451.66847  -6531578.06646  21833238.7274                   21833237.3554
 -10998824.64847  -8545222.91044  23831419.7734                   23831419.7034
 -13825869.94948 -10735353.30945  21416721.9534                   21416720.6844
 -18611088.98848 -14389371.41446  20641214.5554                   20641212.6414
 -19157278.99247 -14900463.06246  22032090.5704                   22032088.2424
 -11761121.03547  -9156146.18445  22700131.2344                   22700132.3914
 -22083675.25847 -17180022.78144  22867923.5314                   22867920.5084
  -7631527.70747  -5690502.28544  23068430.4844                   23068429.5864
   3718107.62147   3161168.88343  23643163.5394                   23643161.6954
 11  8 26  3  8  0.0000000  0 10G21G15G12G26G29G05G25G02G30G18
   1924116.22347   1516799.84444  24037864.0634                   24037862.3284
  -8525086.69547  -6617007.91446  21812375.9064                   21812374.1374
 -10936358.78547  -8496548.27744  23843306.9064                   23843306.3554
 -13898652.95748 -10792067.31645  21402871.7974                   21402870.1374
 -18688394.15648 -14449609.18746  20626503.6094                   20626501.4454
 -19108323.12947 -14862315.62545  22041406.5474                   22041404.5234
 -11723281.44147  -9126660.79745  22707332.2274                   22707333.6054
 -22063098.93447 -17163989.28944  22871839.0474                   22871835.5004
  -7589985.72347  -5658131.89844  23076335.7504                   23076334.5944
   3611294.16847   3077937.70343  23622837.3914                   23622835.3204
 11  8 26  3  8 30.0000000  0 10G21G15G12G26G29G05G25G02G30G18
   1835258.83647   1447560.39844  24020954.7894                   24020953.0314
  -8634387.04747  -6702176.98446  21791577.1414                   21791575.1374
 -10873903.82846  -8447882.15244  23855191.5554                   23855191.4734
 -13970841.28548 -10848317.92645  21389135.2584                   21389133.5514
 -18765281.85248 -14509521.65646  20611872.5554                   20611869.9574
 -19059198.12148 -14824036.40246  22050754.7194                   22050752.4304
 -11685176.01647  -9096968.26645  22714583.7424                   22714584.5744
 -22042393.00447 -17147854.81644  22875779.3054                   22875775.5904
  -7548220.40247  -5625587.49244  23084282.9144                   23084282.3634
   3504718.68847   2994891.94943  23602556.6094                   23602554.4574
 11  8 26  3  9  0.0000000  0 10G21G15G12G26G29G05G25G02G30G18
   1746351.94547   1378282.39544  24004036.6954                   24004034.4264
  -8743359.12148  -6787090.25446  21770840.3984                   21770838.4264
 -10811471.71946  -8399233.82444  23867072.3524                   23867072.0634
 -14042441.55548 -10904110.32046  21375510.0314                   21375507.9844
 -18841758.69948 -14569113.99246  20597319.4774                   20597317.2974
 -19009915.68048 -14785634.48846  22060132.9064                   22060130.5784
 -11646816.64847  -9067077.85545  22721882.8364                   22721883.9694
 -22021565.75047 -17131625.79345  22879742.6484                   22879739.9184
  -7506243.97747  -5592878.60544  23092271.3984                   23092270.3164
   3398373.04347   2912025.30143  23582319.4774                   23582317.5864
 11  8 26  3  9 30.0000000  0 10G21G15G12G26G29G05G25G02G30G18
   1657396.35247   1308966.43443  23987109.2344                   23987106.8524
  -8851998.37948  -6871744.18446  21750166.5314                   21750165.1414
 -10749063.98446  -8350604.46144  23878948.1484                   23878947.7034
 -14113450.03148 -10959441.56646  21361997.5474                   21361995.7974
 -18917821.51648 -14628383.69946  20582845.0474                   20582842.3984
 -18960476.33248 -14747110.32045  22069540.5944                   22069538.6994
 -11608205.18047  -9036991.00045  22729230.4384                   22729231.8914
 -22000615.27747 -17115300.75844  22883729.8674                   22883726.0514
  -7464058.19147  -5560006.57044  23100298.8594                   23100298.1994
   3292259.50047   2829339.51243  23562126.5394                   23562124.7974
 11  8 26  3 10  0.0000000  0 10G21G15G12G26G29G05G25G02G30G18
   1568400.03147   1239618.74644  23970173.9064                   23970171.3634
  -8960294.36747  -6956130.63746  21729558.5164                   21729556.4064
 -10686675.79346  -8301990.35544  23890820.2664                   23890819.5984
 -14183856.83248 -11014303.98845  21348599.6884                   21348597.5824
 -18993460.25448 -14687322.95746  20568452.0004                   20568449.4494
 -18910874.91048 -14708459.85545  22078979.5004                   22078977.1644
 -11569337.03947  -9006704.16045  22736626.9694                   22736628.1724
 -21979533.41047 -17098873.34444  22887741.1414                   22887737.8524
  -7421658.70347  -5526968.03144  23108367.3754                   23108366.4384
   3186386.10546   2746840.85243  23541979.7114                   23541978.4184
 11  8 26  3 10 30.0000000  0 10G21G15G12G26G29G05G25G02G30G18
   1479361.92647   1170238.47344  23953229.7504                   23953227.8834
  -9068244.68047  -7040247.73046  21709015.9384                   21709014.2194
 -10624310.23846  -8253393.86744  23902687.8834                   23902687.5474
 -14253659.80548 -11068695.89145  21335316.4694                   21335314.5784
 -19068673.82448 -14745930.91046  20554138.9224                   20554136.4924
 -18861114.16848 -14669685.24246  22088448.8754                   22088446.1134
 -11530215.73047  -8976220.03545  22744071.8284                   22744072.4804
 -21958320.49647 -17082343.80544  22891777.8834                   22891774.5904
  -7379049.20747  -5493765.82044  23116475.3134                   23116474.4614
   3080752.95346   2664529.39843  23521878.3204                   23521876.7934
 11  8 26  3 11  0.0000000  0 10G21G15G12G26G29G05G25G02G30G18
   1390276.71147   1100821.50844  23936277.4534                   23936275.6454
  -9175851.39548  -7124097.07846  21688539.2194                   21688537.4734
 -10561975.49246  -8204821.39144  23914550.1804                   23914548.9964
 -14322862.04748 -11122619.68745  21322147.6724                   21322145.9344
 -19143464.74248 -14804209.53547  20539906.9224                   20539904.4884
 -18811201.39848 -14630792.16445  22097946.9534                   22097944.1844
 -11490849.56648  -8945545.10945  22751562.3834                   22751563.2504
 -21936981.10547 -17065715.70344  22895838.8834                   22895835.1174
  -7336238.00047  -5460406.45344  23124621.6884                   23124621.2934
   2975355.71947   2582401.77743  23501821.2974                   23501820.5824
 11  8 26  3 11 30.0000000  0 10G21G15G12G26G29G05G25G02G30G18
   1301151.34447   1031373.25444  23919317.4304                   23919315.3164
  -9283104.69547  -7207671.05146  21668129.8134                   21668128.0514
 -10499667.27747  -8156269.58244  23926406.8054                   23926405.8674
 -14391454.14148 -11176068.04746  21309094.7974                   21309093.1054
 -19217824.06248 -14862151.84446  20525756.7584                   20525754.2894
 -18761131.73047 -14591776.82845  22107474.5704                   22107472.4024
 -11451234.64847  -8914676.34845  22759101.4384                   22759101.7664
 -21915507.30147 -17048982.88745  22899925.4694                   22899921.5744
  -7293221.33247  -5426886.97744  23132807.9224                   23132806.9224
   2870202.23047   2500464.12144  23481811.4844                   23481810.4104
 11  8 26  3 12  0.0000000  0 10G21G15G12G26G29G05G25G02G30G18
   1211979.14547    961888.51244  23902348.7114                   23902346.0124
  -9390007.96547  -7290972.25046  21647786.5234                   21647784.9064
 -10437394.77347  -8107745.59844  23938256.8674                   23938255.9734
 -14459440.39848 -11229044.31645  21296157.3364                   21296155.7074
 -19291756.12548 -14919761.22346  20511687.8054                   20511685.3834
 -18710914.02747 -14552646.14845  22117030.9454                   22117028.6094
 -11411380.44148  -8883621.13745  22766684.9144                   22766686.0274
 -21893904.99647 -17032149.94145  22904036.0634                   22904032.4774
  -7250008.91847  -5393214.97744  23141031.1724                   23141030.0084
   2765286.60947   2418711.77344  23461847.0314                   23461845.4804
 11  8 26  3 12 30.0000000  0 10G21G15G12G26G29G05G25G02G30G18
   1122760.30947    892367.43044  23885370.6954                   23885368.8714
  -9496557.90247  -7373998.13346  21627510.8594                   21627509.1414
 -10375160.50047  -8059251.38344  23950099.7424                   23950099.3484
 -14526818.09848 -11281546.39845  21283335.6414                   21283333.9734
 -19365258.48048 -14977035.77747  20497700.7424                   20497698.3834
 -18660550.28947 -14513401.67245  22126614.6884                   22126612.7344
 -11371289.66847  -8852381.57845  22774314.2734                   22774315.2304
 -21872173.89847 -17015216.62544  22908171.2814                   22908167.7154
  -7206603.60547  -5359392.64144  23149290.7114                   23149289.9104
   2660609.85547   2337145.56344  23441927.7814                   23441925.4494
 11  8 26  3 13  0.0000000  0 10G21G15G12G26G29G05G25G02G30G18
   1033496.71947    822811.47344  23868384.4384                   23868382.0944
  -9602749.62947  -7456744.88746  21607303.1174                   21607301.0554
 -10312965.17647  -8010787.52044  23961935.3364                   23961934.6024
 -14593582.88748 -11333570.88345  21270630.9224                   21270629.4614
 -19438326.81248 -15033972.12147  20483796.0314                   20483793.6884
 -18610040.48847 -14474043.37946  22136226.5704                   22136224.5744
 -11330963.35547  -8820958.48845  22781987.8984                   22781988.7544
 -21850311.13347 -16998180.71944  22912331.1954                   22912328.1684
  -7163006.41447  -5325420.80544  23157586.9064                   23157586.1174
   2556174.79347   2255767.68444  23422054.3444                   23422052.5394
